[[{"header":{"parameterUnit":"m.s-1","parameterCategory":1,"la1":30.6,"la2":28.766,"lo1":-90.7593,"lo2":-88.6598,"dy":0.0162,"dx":0.0183,"nx":116,"ny":114,"refTime":"2023-10-22T06:00:00:Z","depth":0,"parameterNumber":2,"parameterNumberName":"U-component_of_WINDS"},"data":[0.0,0.0,0.0,0.0,0.0,0.0,0.0,0.0,0.0,0.0,0.0,0.0,0.0,0.0,0.0,0.0,0.0,0.0,0.0,0.0,0.0,0.0,0.0,0.0,0.0,0.0,0.0,0.0,0.0,0.0,0.0,0.0,0.0,0.0,0.0,0.0,0.0,0.0,0.0,0.0,0.0,0.0,0.0,0.0,0.0,0.0,0.0,0.0,0.0,0.0,0.0,0.0,0.0,0.0,0.0,0.0,0.0,0.0,0.0,0.0,0.0,0.0,0.0,0.0,0.0,0.0,0.0,0.0,0.0,0.0,0.0,0.0,0.0,0.0,0.0,0.0,0.0,0.0,0.0,0.0,0.0,0.0,0.0,0.0,0.0,0.0,0.0,0.0,0.0,0.0,0.0,0.0,0.0,0.0,0.0,0.0,0.0,0.0,0.0,0.0,0.0,0.0,0.0,0.0,0.0,0.0,0.0,0.0,0.0,0.0,0.0,0.0,0.0,0.0,0.0,0.0,0.0,0.0,0.0,0.0,0.0,0.0,0.0,0.0,0.0,0.0,0.0,0.0,0.0,0.0,0.0,0.0,0.0,0.0,0.0,0.0,0.0,0.0,0.0,0.0,0.0,0.0,0.0,0.0,0.0,0.0,0.0,0.0,0.0,0.0,0.0,0.0,0.0,0.0,0.0,0.0,0.0,0.0,0.0,0.0,0.0,0.0,0.0,0.0,0.0,0.0,0.0,0.0,0.0,0.0,0.0,0.0,0.0,0.0,0.0,0.0,0.0,0.0,0.0,0.0,0.0,0.0,0.0,0.0,0.0,0.0,0.0,0.0,0.0,0.0,0.0,0.0,0.0,0.0,0.0,0.0,0.0,0.0,0.0,0.0,0.0,0.0,0.0,0.0,0.0,0.0,0.0,0.0,0.0,0.0,0.0,0.0,0.0,0.0,0.0,0.0,0.0,0.0,0.0,0.0,0.0,0.0,0.0,0.0,0.0,0.0,0.0,0.0,0.0,0.0,0.0,0.0,0.0,0.0,0.0,0.0,0.0,0.0,0.0,0.0,0.0,0.0,0.0,0.0,0.0,0.0,0.0,0.0,0.0,0.0,0.0,0.0,0.0,0.0,0.0,0.0,0.0,0.0,0.0,0.0,0.0,0.0,0.0,0.0,0.0,0.0,0.0,0.0,0.0,0.0,0.0,0.0,0.0,0.0,0.0,0.0,0.0,0.0,0.0,0.0,0.0,0.0,0.0,0.0,0.0,0.0,0.0,0.0,0.0,0.0,0.0,0.0,0.0,0.0,0.0,0.0,0.0,0.0,0.0,0.0,0.0,0.0,0.0,0.0,0.0,0.0,0.0,0.0,0.0,0.0,0.0,0.0,0.0,0.0,0.0,0.0,0.0,0.0,0.0,0.0,0.0,0.0,0.0,0.0,0.0,0.0,0.0,0.0,0.0,0.0,0.0,0.0,0.0,0.0,0.0,0.0,0.0,0.0,0.0,0.0,0.0,0.0,0.0,0.0,0.0,0.0,0.0,0.0,0.0,0.0,0.0,0.0,0.0,0.0,0.0,0.0,0.0,0.0,0.0,0.0,0.0,0.0,0.0,0.0,0.0,0.0,0.0,0.0,0.0,0.0,0.0,0.0,0.0,0.0,0.0,0.0,0.0,0.0,0.0,0.0,0.0,0.0,0.0,0.0,0.0,0.0,0.0,0.0,0.0,0.0,0.0,0.0,0.0,0.0,0.0,0.0,0.0,0.0,0.0,0.0,0.0,0.0,0.0,0.0,0.0,0.0,0.0,0.0,0.0,0.0,0.0,0.0,0.0,0.0,0.0,0.0,0.0,0.0,0.0,0.0,0.0,0.0,0.0,0.0,0.0,0.0,0.0,0.0,0.0,0.0,0.0,0.0,0.0,0.0,0.0,0.0,0.0,0.0,0.0,0.0,0.0,0.0,0.0,0.0,0.0,0.0,0.0,0.0,0.0,0.0,0.0,0.0,0.0,0.0,0.0,0.0,0.0,0.0,0.0,0.0,0.0,0.0,0.0,0.0,0.0,0.0,0.0,0.0,0.0,0.0,0.0,0.0,0.0,0.0,0.0,0.0,0.0,0.0,0.0,0.0,0.0,0.0,0.0,0.0,0.0,0.0,0.0,0.0,0.0,0.0,0.0,0.0,0.0,0.0,0.0,0.0,0.0,0.0,0.0,0.0,0.0,0.0,0.0,0.0,0.0,0.0,0.0,0.0,0.0,0.0,0.0,0.0,0.0,0.0,0.0,0.0,0.0,0.0,0.0,0.0,0.0,0.0,0.0,0.0,0.0,0.0,0.0,0.0,0.0,0.0,0.0,0.0,0.0,0.0,0.0,0.0,0.0,0.0,0.0,0.0,0.0,0.0,0.0,0.0,0.0,0.0,0.0,0.0,0.0,0.0,0.0,0.0,0.0,0.0,0.0,0.0,0.0,0.0,0.0,0.0,0.0,0.0,0.0,0.0,0.0,0.0,0.0,0.0,0.0,0.0,0.0,0.0,0.0,0.0,0.0,0.0,0.0,0.0,0.0,0.0,0.0,0.0,0.0,0.0,0.0,0.0,0.0,0.0,0.0,0.0,0.0,0.0,0.0,0.0,0.0,0.0,0.0,0.0,0.0,0.0,0.0,0.0,0.0,0.0,0.0,0.0,0.0,0.0,0.0,0.0,0.0,0.0,0.0,0.0,0.0,0.0,0.0,0.0,0.0,0.0,0.0,0.0,0.0,0.0,0.0,0.0,0.0,0.0,0.0,0.0,0.0,0.0,0.0,0.0,0.0,0.0,0.0,0.0,0.0,0.0,0.0,0.0,0.0,0.0,0.0,0.0,0.0,0.0,0.0,0.0,0.0,0.0,0.0,0.0,0.0,0.0,0.0,0.0,0.0,0.0,0.0,0.0,0.0,0.0,0.0,0.0,0.0,0.0,0.0,0.0,0.0,0.0,0.0,0.0,0.0,0.0,0.0,0.0,0.0,0.0,0.0,0.0,0.0,0.0,0.0,0.0,0.0,0.0,0.0,0.0,0.0,0.0,0.0,0.0,0.0,0.0,0.0,0.0,0.0,0.0,0.0,0.0,0.0,0.0,0.0,0.0,0.0,0.0,0.0,0.0,0.0,0.0,0.0,0.0,0.0,0.0,0.0,0.0,0.0,0.0,0.0,0.0,0.0,0.0,0.0,0.0,0.0,0.0,0.0,0.0,0.0,0.0,0.0,0.0,0.0,0.0,0.0,0.0,0.0,0.0,0.0,0.0,0.0,0.0,0.0,0.0,0.0,0.0,0.0,0.0,0.0,0.0,0.0,0.0,0.0,0.0,0.0,0.0,0.0,0.0,0.0,0.0,0.0,0.0,0.0,0.0,0.0,0.0,0.0,0.0,0.0,0.0,0.0,0.0,0.0,0.0,0.0,0.0,0.0,0.0,0.0,0.0,0.0,0.0,0.0,0.0,0.0,0.0,0.0,0.0,0.0,0.0,0.0,0.0,0.0,0.0,0.0,0.0,0.0,0.0,0.0,0.0,0.0,0.0,0.0,0.0,0.0,0.0,0.0,0.0,0.0,0.0,0.0,0.0,0.0,0.0,0.0,0.0,0.0,0.0,0.0,0.0,0.0,0.0,0.0,0.0,0.0,0.0,0.0,0.0,0.0,0.0,0.0,0.0,0.0,0.0,0.0,0.0,0.0,0.0,0.0,0.0,0.0,0.0,0.0,0.0,0.0,0.0,0.0,0.0,0.0,0.0,0.0,0.0,0.0,0.0,0.0,0.0,0.0,0.0,0.0,0.0,0.0,0.0,0.0,0.0,0.0,0.0,0.0,0.0,0.0,0.0,0.0,0.0,0.0,0.0,0.0,0.0,0.0,0.0,0.0,0.0,0.0,0.0,0.0,0.0,0.0,0.0,0.0,0.0,0.0,0.0,0.0,0.0,0.0,0.0,0.0,0.0,0.0,0.0,0.0,0.0,0.0,0.0,0.0,0.0,0.0,0.0,0.0,0.0,0.0,0.0,0.0,0.0,0.0,0.0,0.0,0.0,0.0,0.0,0.0,0.0,0.0,0.0,0.0,0.0,0.0,0.0,0.0,0.0,0.0,0.0,0.0,0.0,0.0,0.0,0.0,0.0,0.0,0.0,0.0,0.0,0.0,0.0,0.0,0.0,0.0,0.0,0.0,0.0,0.0,0.0,0.0,0.0,0.0,0.0,0.0,0.0,0.0,0.0,0.0,0.0,0.0,0.0,0.0,0.0,0.0,0.0,0.0,0.0,0.0,0.0,0.0,0.0,0.0,0.0,0.0,0.0,0.0,0.0,0.0,0.0,0.0,0.0,0.0,0.0,0.0,0.0,0.0,0.0,0.0,0.0,0.0,0.0,0.0,0.0,0.0,0.0,0.0,0.0,0.0,0.0,0.0,0.0,0.0,0.0,0.0,0.0,0.0,0.0,0.0,0.0,0.0,0.0,0.0,0.0,0.0,0.0,0.0,0.0,0.0,0.0,0.0,0.0,0.0,0.0,0.0,0.0,0.0,0.0,0.0,0.0,0.0,0.0,0.0,0.0,0.0,0.0,0.0,0.0,0.0,0.0,0.0,0.0,0.0,0.0,0.0,0.0,0.0,0.0,0.0,0.0,0.0,0.0,0.0,0.0,0.0,0.0,0.0,0.0,0.0,0.0,0.0,0.0,0.0,0.0,0.0,0.0,0.0,0.0,0.0,0.0,0.0,0.0,0.0,0.0,0.0,0.0,0.0,0.0,0.0,0.0,0.0,0.0,0.0,0.0,0.0,0.0,0.0,0.0,0.0,0.0,0.0,0.0,0.0,0.0,0.0,0.0,0.0,0.0,0.0,0.0,0.0,0.0,0.0,0.0,0.0,0.0,0.0,0.0,0.0,0.0,0.0,0.0,0.0,0.0,0.0,0.0,0.0,0.0,0.0,0.0,0.0,0.0,0.0,0.0,0.0,0.0,0.0,0.0,0.0,0.0,0.0,0.0,0.0,0.0,0.0,0.0,0.0,0.0,0.0,0.0,0.0,0.0,0.0,0.0,0.0,0.0,0.0,0.0,0.0,0.0,0.0,0.0,0.0,0.0,0.0,0.0,0.0,0.0,0.0,0.0,0.0,0.0,0.0,0.0,0.0,0.0,0.0,0.0,0.0,0.0,0.0,0.0,0.0,0.0,0.0,0.0,0.0,0.0,0.0,0.0,0.0,0.0,0.0,0.0,0.0,0.0,0.0,0.0,0.0,0.0,0.0,0.0,0.0,0.0,0.0,0.0,0.0,0.0,0.0,0.0,0.0,0.0,0.0,0.0,0.0,0.0,0.0,0.0,0.0,0.0,0.0,0.0,0.0,0.0,0.0,0.0,0.0,0.0,0.0,0.0,0.0,0.0,0.0,0.0,0.0,0.0,0.0,0.0,0.0,0.0,0.0,0.0,0.0,0.0,0.0,0.0,0.0,0.0,0.0,0.0,0.0,0.0,0.0,0.0,0.0,0.0,0.0,0.0,0.0,0.0,0.0,0.0,0.0,0.0,0.0,0.0,0.0,0.0,0.0,0.0,0.0,0.0,0.0,0.0,0.0,0.0,0.0,0.0,0.0,0.0,0.0,0.0,0.0,0.0,0.0,0.0,0.0,0.0,0.0,0.0,0.0,0.0,0.0,0.0,0.0,0.0,0.0,0.0,0.0,0.0,0.0,0.0,0.0,0.0,0.0,0.0,0.0,0.0,0.0,0.0,0.0,0.0,0.0,0.0,0.0,0.0,0.0,0.0,0.0,0.0,0.0,0.0,0.0,0.0,0.0,0.0,0.0,0.0,0.0,0.0,0.0,0.0,0.0,0.0,0.0,0.0,0.0,0.0,0.0,0.0,0.0,0.0,0.0,0.0,0.0,0.0,0.0,0.0,0.0,0.0,0.0,0.0,0.0,0.0,0.0,0.0,0.0,0.0,0.0,0.0,0.0,0.0,0.0,0.0,0.0,0.0,0.0,0.0,0.0,0.0,0.0,0.0,0.0,0.0,0.0,0.0,0.0,0.0,0.0,0.0,0.0,0.0,0.0,0.0,0.0,0.0,0.0,0.0,-2.513,0.0,0.0,0.0,0.0,0.0,0.0,0.0,0.0,0.0,0.0,0.0,0.0,0.0,0.0,0.0,0.0,0.0,0.0,0.0,0.0,0.0,0.0,0.0,0.0,0.0,0.0,0.0,0.0,0.0,0.0,0.0,0.0,0.0,0.0,0.0,0.0,0.0,0.0,-3.0442,-3.0479,-3.0369,-3.0149,-3.0149,-2.9819,-2.9269,0.0,0.0,0.0,0.0,0.0,0.0,0.0,0.0,0.0,0.0,0.0,0.0,0.0,0.0,0.0,0.0,0.0,0.0,0.0,0.0,0.0,0.0,0.0,0.0,0.0,0.0,0.0,0.0,0.0,0.0,0.0,0.0,0.0,0.0,0.0,0.0,0.0,0.0,0.0,0.0,0.0,0.0,0.0,0.0,0.0,0.0,0.0,0.0,0.0,0.0,0.0,0.0,0.0,0.0,0.0,0.0,0.0,0.0,0.0,0.0,0.0,0.0,0.0,0.0,0.0,0.0,0.0,0.0,0.0,0.0,0.0,-2.4097,0.0,0.0,0.0,0.0,0.0,0.0,0.0,0.0,0.0,0.0,0.0,0.0,0.0,0.0,0.0,0.0,0.0,0.0,0.0,0.0,0.0,0.0,0.0,-3.0311,-3.0291,-3.0613,-3.0649,-3.0649,0.0,0.0,0.0,0.0,0.0,0.0,-3.1055,-3.0779,-3.0743,-3.0946,-3.057,-3.0413,-3.0573,-3.1211,-3.1016,-3.004,-2.9879,0.0,0.0,0.0,0.0,0.0,0.0,0.0,0.0,0.0,0.0,0.0,0.0,0.0,0.0,0.0,0.0,0.0,0.0,0.0,0.0,0.0,0.0,0.0,0.0,0.0,0.0,0.0,0.0,0.0,0.0,0.0,0.0,0.0,0.0,0.0,0.0,0.0,0.0,0.0,0.0,0.0,0.0,0.0,0.0,0.0,0.0,0.0,0.0,0.0,0.0,0.0,0.0,0.0,0.0,0.0,0.0,0.0,0.0,0.0,0.0,0.0,0.0,0.0,-2.6293,-2.6584,-2.6809,-2.671,-2.6413,-2.597,-2.5138,-2.4422,-2.396,-2.3804,0.0,0.0,0.0,0.0,0.0,0.0,0.0,0.0,0.0,0.0,0.0,0.0,0.0,0.0,0.0,0.0,0.0,0.0,0.0,0.0,0.0,-2.7637,-2.7587,-2.7635,-2.7652,-2.7652,-2.7652,0.0,0.0,0.0,0.0,0.0,-2.9526,-2.8312,-2.8097,-2.906,-2.8736,-2.8866,-2.9433,-3.1215,-3.2035,-3.1796,-3.099,-3.1029,-3.1598,0.0,0.0,0.0,0.0,0.0,0.0,0.0,0.0,0.0,0.0,0.0,0.0,0.0,0.0,0.0,0.0,0.0,0.0,0.0,0.0,0.0,0.0,0.0,0.0,0.0,0.0,0.0,0.0,0.0,0.0,0.0,0.0,0.0,0.0,0.0,0.0,0.0,0.0,0.0,0.0,0.0,-2.5597,-2.5058,0.0,0.0,0.0,0.0,0.0,0.0,0.0,0.0,0.0,0.0,0.0,0.0,0.0,-2.5463,-2.6348,-2.6747,-2.7006,-2.7291,-2.747,-2.7646,-2.7682,-2.759,-2.7578,-2.7517,-2.7118,0.0,-2.4665,-2.4671,0.0,0.0,0.0,0.0,0.0,0.0,0.0,0.0,0.0,0.0,0.0,0.0,0.0,0.0,0.0,0.0,0.0,0.0,0.0,0.0,0.0,-2.7578,-2.7873,-2.7873,-2.8444,-2.857,-2.7937,-2.8063,0.0,0.0,0.0,-2.7387,-2.8048,-2.7595,-2.7944,-2.9,-2.9907,-3.0369,-3.0418,-3.1513,-3.2058,-3.1993,-3.1357,-3.1704,-3.2643,-3.1928,0.0,0.0,0.0,0.0,0.0,0.0,0.0,0.0,0.0,0.0,0.0,0.0,0.0,0.0,0.0,0.0,0.0,0.0,0.0,0.0,0.0,0.0,0.0,0.0,0.0,0.0,0.0,0.0,0.0,0.0,0.0,0.0,0.0,0.0,0.0,0.0,0.0,0.0,0.0,-2.4497,-2.4697,-2.4014,-2.41,-2.3796,0.0,0.0,0.0,0.0,0.0,0.0,0.0,0.0,0.0,-2.5637,-2.5797,-2.6327,-2.73,-2.7622,-2.7259,-2.6299,-2.6693,-2.6318,-2.5275,-2.6693,-2.7184,-2.7048,-2.6935,-2.625,-2.5215,-2.5228,-2.4901,-2.4199,0.0,0.0,0.0,0.0,-1.9859,-1.999,0.0,0.0,0.0,0.0,0.0,0.0,0.0,0.0,0.0,0.0,0.0,0.0,-2.6063,-2.6968,-2.7579,-2.7746,-2.8596,-2.8792,-2.7958,-2.7719,-2.7292,-2.6413,-2.6124,-2.6218,-2.6646,-2.7199,-2.7891,-2.8642,-3.0208,-3.0836,-3.0695,-3.1579,-3.2022,-3.2084,-3.2056,-3.2348,-3.2879,-3.228,-3.1187,-2.9877,0.0,0.0,0.0,0.0,0.0,0.0,0.0,0.0,0.0,0.0,0.0,0.0,0.0,0.0,0.0,0.0,0.0,0.0,0.0,0.0,0.0,0.0,0.0,0.0,0.0,0.0,0.0,0.0,0.0,0.0,0.0,0.0,0.0,0.0,0.0,0.0,0.0,-2.3996,-2.42,-2.3661,-2.438,-2.4095,0.0,0.0,0.0,0.0,0.0,0.0,-2.3409,-2.343,-2.3961,-2.5139,-2.5184,-2.5659,-2.6749,-2.6942,-2.6375,-2.4923,-2.5354,-2.4759,-2.3446,-2.5255,-2.5932,-2.5714,-2.5652,-2.5329,-2.4901,-2.461,-2.4201,-2.3637,-2.1545,-2.0601,-2.0284,-1.8947,-1.8423,-1.8589,0.0,0.0,0.0,0.0,0.0,0.0,0.0,0.0,0.0,0.0,0.0,-2.2539,-2.3415,-2.4305,-2.506,-2.5626,-2.599,-2.6165,-2.6098,-2.506,-2.4413,-2.4345,-2.3523,-2.3872,-2.5447,-2.6604,-2.7117,-2.6974,-2.789,-2.8632,-2.9185,-3.1195,-3.2266,-3.2515,-3.3669,-3.3344,-3.1952,-2.9823,-2.9012,-2.8971,-2.6964,0.0,0.0,0.0,0.0,0.0,0.0,0.0,0.0,0.0,0.0,0.0,0.0,0.0,0.0,0.0,0.0,0.0,0.0,0.0,0.0,0.0,0.0,0.0,0.0,0.0,0.0,0.0,0.0,0.0,0.0,0.0,0.0,0.0,0.0,0.0,0.0,0.0,0.0,-2.4808,-2.5828,0.0,0.0,0.0,0.0,-1.9647,-1.9646,-2.0015,-2.0729,-2.0683,-2.1179,-2.2322,-2.235,-2.2844,-2.3776,-2.3795,-2.3899,-2.4107,-2.4126,-2.3936,-2.3766,-2.388,-2.388,-2.3765,-2.3472,-2.3368,-2.3254,-2.2066,-2.0934,-1.9877,-1.9165,-1.8486,-1.7895,-1.7904,-1.8105,-1.8409,0.0,0.0,0.0,0.0,0.0,0.0,0.0,0.0,-2.143,-2.1598,-2.2204,-2.2886,-2.3794,-2.5184,-2.6279,-2.6867,-2.7722,-2.7896,-2.7134,-2.5985,-2.5251,-2.505,-2.3834,-2.3954,-2.5717,-2.6735,-2.7621,-2.8257,-2.9325,-2.9953,-3.0167,-3.0895,-3.1353,-3.1449,-3.1845,-3.166,-3.1023,-3.1361,-3.059,-2.9043,-2.8162,-2.7225,0.0,0.0,0.0,0.0,0.0,0.0,0.0,0.0,0.0,0.0,0.0,0.0,0.0,0.0,0.0,0.0,0.0,0.0,0.0,0.0,0.0,0.0,0.0,0.0,0.0,0.0,0.0,0.0,0.0,0.0,0.0,0.0,0.0,0.0,0.0,0.0,0.0,-2.1872,-2.2574,0.0,-2.0414,-2.0521,-2.0529,-1.9873,-2.0235,-2.0879,-2.1851,-2.1873,-2.2359,-2.3221,-2.3249,-2.3548,-2.4083,-2.4083,-2.3375,-2.2053,-2.2053,-2.121,-1.9776,-2.1151,-2.1678,-2.1603,-2.1534,-2.1363,-2.102,-1.9173,-1.9469,-2.0834,-1.8832,-1.7911,-1.7543,-1.63,-1.587,-1.6019,0.0,0.0,0.0,0.0,0.0,0.0,0.0,0.0,-2.0775,-2.1521,-2.2405,-2.3394,-2.4396,-2.6066,-2.7402,-2.8096,-2.8965,-2.9098,-2.8217,-2.6867,-2.5919,-2.5531,-2.4489,-2.4649,-2.6213,-2.7308,-2.835,-2.9339,-3.0314,-3.0795,-3.0795,-3.0795,-3.0849,-3.0929,-3.0835,-3.065,-3.049,-3.1568,-3.0733,-2.8608,-2.7969,-2.7051,-2.5987,0.0,0.0,0.0,0.0,0.0,0.0,0.0,0.0,0.0,0.0,0.0,0.0,0.0,0.0,0.0,0.0,0.0,0.0,0.0,0.0,0.0,0.0,0.0,0.0,0.0,0.0,0.0,0.0,0.0,0.0,0.0,0.0,0.0,0.0,-2.1439,-2.173,-2.0209,-2.1121,-2.116,-1.9337,-1.9664,-1.9791,-1.9239,-1.9585,-2.0182,-2.1054,-2.1088,-2.1394,-2.194,-2.1948,-2.2041,-2.2219,-2.2236,-2.1571,-2.005,-1.9989,-1.9119,-1.7568,-1.9014,-1.9539,-1.9478,-1.9424,-1.9271,-1.896,-1.7411,-1.7995,-1.9846,-1.7844,-1.7093,-1.6838,-1.5419,-1.4862,-1.4808,0.0,0.0,0.0,0.0,0.0,0.0,0.0,-2.0214,-2.0535,-2.1494,-2.2592,-2.3794,-2.4997,-2.668,-2.8096,-2.8991,-2.9325,-2.9366,-2.9058,-2.7375,-2.6132,-2.5545,-2.5277,-2.5692,-2.6881,-2.831,-2.9352,-2.9953,-3.0541,-3.0822,-3.0822,-3.0822,-3.0969,-3.1223,-3.0942,-3.0703,-3.0486,-3.0199,-2.9112,-2.7613,-2.6029,-2.5903,-2.657,0.0,0.0,0.0,0.0,0.0,0.0,0.0,0.0,0.0,0.0,0.0,0.0,0.0,0.0,0.0,0.0,0.0,0.0,0.0,0.0,0.0,0.0,0.0,0.0,0.0,0.0,0.0,0.0,0.0,0.0,0.0,0.0,0.0,-1.8875,-1.9799,-2.0426,-2.0175,-2.1732,-2.1771,-1.8956,-1.9561,-1.9326,-1.7329,-1.75,-1.7738,-1.7901,-1.7901,-1.7948,-1.8111,-1.8111,-1.8179,-1.8321,-1.8321,-1.8321,-1.8321,-1.8179,-1.8023,-1.786,-1.7717,-1.7575,-1.7412,-1.7263,-1.7195,-1.7161,-1.6876,-1.6666,-1.649,-1.6035,-1.5771,-1.5608,-1.5309,-1.5113,-1.497,0.0,0.0,0.0,0.0,0.0,0.0,0.0,-1.992,-2.0307,-2.148,-2.2779,-2.4262,-2.5852,-2.7415,-2.8711,-2.9593,-2.9753,-2.9579,-2.9072,-2.7375,-2.6132,-2.5545,-2.6039,-2.7094,-2.8711,-2.9152,-2.986,-3.0862,-3.1249,-3.1423,-3.1423,-3.1423,-3.1476,-3.1543,-3.1463,-3.1382,-3.1354,-3.0897,-3.0121,-2.9193,-2.732,-2.6311,-2.5714,0.0,0.0,0.0,0.0,0.0,0.0,0.0,0.0,0.0,0.0,0.0,0.0,0.0,0.0,0.0,0.0,0.0,0.0,0.0,0.0,0.0,0.0,0.0,0.0,0.0,0.0,0.0,0.0,0.0,0.0,0.0,-1.774,-1.7803,-1.7969,-1.8769,-1.9016,-1.8107,-1.8692,-1.8869,-1.8279,-1.8378,-1.8417,-1.7989,-1.8091,-1.8301,-1.8654,-1.8565,-1.8531,-1.8565,-1.8464,-1.8423,-1.8477,-1.8477,-1.8477,-1.8477,-1.8423,-1.8287,-1.8023,-1.7989,-1.7772,-1.7419,-1.7378,-1.7236,-1.7032,-1.6951,-1.689,-1.6802,-1.6239,-1.5927,-1.5771,-1.5581,-1.5493,-1.5432,0.0,0.0,0.0,0.0,0.0,0.0,0.0,-1.9907,-2.0401,-2.1577,-2.314,-2.4756,-2.6386,-2.7789,-2.8911,-2.9673,-2.9513,-2.9058,-2.835,-2.6987,-2.6279,-2.6426,-2.7161,-2.8283,-2.982,-3.0207,-3.0795,-3.1597,-3.1891,-3.2038,-3.2038,-3.1904,-3.1917,-3.2024,-3.1713,-3.163,-3.164,-3.085,-3.0331,-3.0123,-2.8327,-2.7134,-2.633,-2.542,-2.4806,-2.4343,-2.4043,-2.3913,-2.3868,-2.3283,0.0,0.0,0.0,0.0,0.0,0.0,0.0,0.0,0.0,0.0,0.0,0.0,0.0,0.0,0.0,0.0,0.0,0.0,0.0,0.0,0.0,0.0,0.0,0.0,-1.6834,-1.6995,-1.7422,-1.7944,-1.8031,-1.7602,-1.7894,-1.8179,-1.8355,-1.8355,-1.8409,-1.8586,-1.8599,-1.8708,-1.8972,-1.8959,-1.8918,-1.8871,-1.8776,-1.8687,-1.862,-1.862,-1.862,-1.862,-1.8565,-1.8409,-1.8179,-1.8124,-1.7914,0.0,-1.7541,-1.7378,-1.7161,-1.7093,-1.6998,0.0,0.0,0.0,0.0,0.0,-1.573,-1.5696,0.0,0.0,0.0,0.0,0.0,0.0,0.0,-1.9973,-2.0575,-2.1817,-2.3474,-2.5104,-2.6613,-2.7843,-2.8778,-2.9339,-2.8911,-2.8257,-2.7415,-2.6573,-2.6627,-2.7802,-2.843,-2.9299,-3.0488,-3.1303,-3.1851,-3.2104,-3.2398,-3.2519,-3.2438,-3.2251,-3.2278,-3.2394,-3.1671,-3.1529,-3.1751,-3.0458,-3.0138,-3.0341,-2.8906,-2.8128,-2.7752,-2.682,-2.6512,-2.6352,-2.5354,-2.4899,-2.4645,-2.3932,0.0,0.0,0.0,0.0,0.0,0.0,0.0,0.0,0.0,0.0,0.0,0.0,0.0,0.0,0.0,0.0,0.0,0.0,0.0,0.0,0.0,0.0,0.0,0.0,-1.6856,-1.6632,-1.7412,-1.7419,-1.7541,-1.8077,-1.8498,-1.8762,-1.8816,-1.8918,-1.9006,-1.904,-1.904,-1.9061,-1.9094,0.0,0.0,0.0,0.0,-1.8938,-1.8796,-1.8782,-1.8782,-1.8762,-1.862,-1.8477,-1.8335,-1.8199,-1.8036,-1.786,-1.7704,-1.7555,-1.7385,-1.7229,-1.7005,-1.6734,-1.6578,-1.651,-1.6449,-1.6049,-1.5893,-1.5839,0.0,0.0,0.0,0.0,0.0,0.0,0.0,-1.9492,-2.012,-2.1777,-2.3126,-2.4583,-2.6293,-2.7522,-2.8377,-2.8751,-2.8671,-2.843,-2.8087,-2.7457,-2.7535,-2.8724,-2.9352,-3.0207,-3.1383,-3.181,-3.2051,-3.2104,-3.2398,-3.2111,-3.1277,-3.2071,-3.2164,-3.1521,-3.1594,-3.1712,-3.1679,-3.0775,-3.0292,-2.9894,-2.942,-2.886,-2.8371,-2.7531,-2.7069,-2.6839,-2.6415,-2.6633,-2.696,-2.5747,-2.547,-2.5409,-2.4287,-2.3599,0.0,0.0,0.0,0.0,0.0,0.0,0.0,0.0,0.0,0.0,0.0,0.0,0.0,0.0,0.0,0.0,0.0,0.0,0.0,-1.6474,-1.655,-1.7012,-1.8002,-1.8213,-1.8321,-1.8423,-1.8531,-1.8728,-1.9081,-1.904,-1.9094,-1.9325,-1.9345,-1.9447,-1.9698,-1.9501,-1.9434,-1.9522,-1.9291,-1.9094,-1.8952,-1.8938,-1.8884,-1.8762,0.0,0.0,-1.8498,-1.8464,-1.8233,-1.786,-1.7704,-1.7494,-1.7222,-1.708,-1.6917,-1.6734,-1.6578,-1.6449,-1.6341,-1.6252,-1.6144,-1.6008,0.0,0.0,0.0,0.0,0.0,0.0,0.0,-1.9887,-2.0054,-2.1376,-2.2579,-2.3821,-2.5157,-2.6079,-2.6613,-2.6613,-2.6627,-2.68,-2.7241,-2.7402,-2.815,-2.9633,-3.0261,-3.1049,-3.2091,-3.2398,-3.2612,-3.2759,-3.261,-3.2333,-3.1764,-3.1907,-3.1874,-3.1578,-3.1295,-3.1371,-3.1698,-3.0602,-3.0169,-2.9983,-2.9408,-2.891,-2.8588,-2.8171,-2.7848,-2.7618,-2.763,-2.7715,-2.7715,-2.7039,-2.6822,-2.6629,-2.5566,-2.5047,-2.4576,0.0,0.0,0.0,0.0,0.0,0.0,0.0,0.0,0.0,0.0,0.0,0.0,0.0,0.0,-1.6301,-1.5854,0.0,-1.6637,-1.6605,-1.708,-1.7684,-1.8443,-1.8674,-1.8762,-1.8762,-1.8884,-1.9074,-1.9291,-1.9257,-1.9271,-1.9413,-1.9434,-1.9535,-1.9752,-1.9698,-1.9657,-1.9664,-1.9576,-1.94,-1.9094,-1.9169,-1.9094,-1.8884,-1.8884,-1.8762,-1.8531,-1.8464,-1.8267,-1.7968,-1.7738,-1.7521,-1.729,-1.7073,-1.6937,-1.6856,-1.6781,-1.6612,-1.6415,-1.6415,-1.632,-1.6178,0.0,0.0,0.0,0.0,0.0,0.0,0.0,-2.0538,-2.034,-2.0989,-2.2031,-2.3033,-2.3928,-2.4502,-2.4756,-2.4569,-2.4716,-2.5331,-2.656,-2.7468,-2.8698,-3.0368,-3.1049,-3.1757,-3.2629,-3.2879,-3.3146,-3.3334,-3.2986,-3.2659,-3.2442,-3.2026,-3.1765,-3.173,-3.1064,-3.1114,-3.1605,-3.0374,-2.9918,-3.0046,-2.9383,-2.8934,-2.8693,-2.8584,-2.8463,-2.8379,-2.85,-2.8222,-2.7799,-2.7751,-2.7558,-2.7232,-2.658,-2.6375,-2.6037,-2.4193,-2.3904,0.0,0.0,0.0,0.0,0.0,0.0,0.0,0.0,-1.5116,-1.5028,-1.417,-1.4306,-1.4767,-1.5303,-1.5872,-1.649,-1.7209,-1.7772,-1.8287,-1.8742,-1.8938,-1.904,-1.9081,-1.9257,-1.9413,-1.9468,-1.9481,-1.9481,-1.9481,-1.9535,-1.961,-1.9732,-1.982,-1.9854,-1.9786,-1.9841,-1.9678,-1.9291,-1.9413,-1.9305,-1.8993,-1.8993,-1.885,-1.8565,-1.8423,-1.8287,-1.8111,-1.7758,-1.7514,-1.7358,-1.7087,-1.6978,-1.6978,-1.6978,-1.6829,-1.6605,-1.6578,-1.6476,-1.6334,0.0,0.0,0.0,0.0,0.0,0.0,0.0,0.0,-2.1041,-2.1088,-2.1683,-2.2418,-2.3327,-2.3728,-2.4008,-2.4235,-2.4957,-2.6026,-2.7455,-2.839,-2.9446,-3.0688,-3.1557,-3.2171,-3.2629,-3.308,-3.3253,-3.3026,-3.318,-3.2848,-3.1868,-3.2736,-3.2542,-3.1463,-3.1566,-3.1491,-3.1012,-3.038,-3.0008,-2.9831,-2.9465,-2.92,-2.8922,-2.8439,-2.8536,-2.8862,-2.8415,-2.8065,-2.7775,-2.7546,-2.7292,-2.7063,-2.6966,-2.6942,-2.6665,-2.5192,-2.4564,-2.3985,-2.2862,-2.1326,-1.9243,-1.6338,-1.5853,-1.5784,0.0,-1.4916,-1.5039,-1.5153,-1.5459,-1.5784,-1.6123,-1.6564,-1.708,-1.7684,-1.8077,-1.8443,-1.8905,-1.9094,-1.9237,-1.9359,-1.9291,-1.9345,-1.961,-1.9644,-1.9644,-1.9644,-1.9875,-2.0031,-2.0051,-1.9942,-1.9997,-2.0241,-2.001,-1.9786,-1.961,-1.9624,-1.9413,-1.8993,-1.8993,-1.8905,-1.8728,-1.8586,-1.8423,-1.8267,-1.7684,-1.7358,-1.7209,-1.7046,-1.6978,-1.6978,-1.6978,-1.6958,-1.691,-1.6775,-1.6625,-1.6497,0.0,0.0,0.0,0.0,0.0,0.0,0.0,0.0,0.0,-2.2453,-2.2162,-2.2153,-2.2482,-2.192,-2.1643,-2.2111,-2.3434,-2.4863,-2.6333,-2.807,-2.9646,-3.0982,-3.1717,-3.2318,-3.2786,-3.32,-3.336,-3.3227,-3.3047,-3.2694,-3.2259,-3.2407,-3.2067,-3.1399,-3.1527,-3.1277,-3.0788,-3.0487,-3.0213,-2.9779,-2.9513,-2.9248,-2.8934,-2.8246,-2.8113,-2.8246,-2.7715,-2.7353,0.0,-2.681,-2.6761,-2.6773,-2.6616,-2.6556,-2.6327,-2.5144,-2.4758,-2.414,-2.1767,-2.0181,-1.8594,-1.5762,-1.5206,-1.5331,-1.5111,-1.5248,-1.5466,-1.5852,-1.6171,-1.6469,-1.6768,-1.7188,-1.7602,-1.7935,-1.8389,-1.8796,-1.9081,-1.9325,-1.9434,-1.9305,-1.94,-1.9556,-1.9766,-1.9786,-1.982,-1.9908,-1.9942,-2.0051,-2.0227,-2.0173,-2.0187,-2.0329,-2.0275,-2.0153,-1.9922,-1.9922,-1.9732,-1.9379,-1.9203,-1.904,-1.8884,-1.8552,-1.8179,-1.7792,-1.7528,-1.729,-1.7066,-1.7005,-1.6978,-1.6978,-1.6978,-1.6978,-1.6971,-1.691,-1.6788,-1.6653,0.0,0.0,0.0,0.0,0.0,0.0,0.0,0.0,0.0,0.0,-2.2831,-2.2275,-2.1934,-2.0704,-2.0094,-2.0521,-2.2031,-2.3621,-2.517,-2.7402,-2.9366,-3.0915,-3.1704,-3.2372,-3.2959,-3.3267,-3.3414,-3.3414,-3.3013,-3.2812,-3.2812,-3.241,-3.2106,-3.1714,-3.1614,-3.1214,-3.0726,-3.0526,-3.0176,-2.9779,-2.9513,-2.9163,-2.8705,-2.7908,-2.7413,-2.7111,-2.6725,-2.6375,-2.6037,-2.5687,-2.5699,-2.5856,-2.5796,-2.5832,-2.5723,-2.4878,-2.4673,-2.3925,-2.0502,-1.939,-1.8381,-1.5481,-1.5045,-1.5337,-1.5547,-1.5811,-1.6103,-1.6429,-1.6727,-1.7012,-1.727,-1.765,-1.7968,-1.8124,-1.8586,-1.8972,-1.9128,-1.9291,-1.9345,-1.9169,-1.9312,-1.9488,-1.9678,-1.9841,-1.9976,-2.0098,-2.0064,-2.0139,-2.0315,-2.0329,-2.0349,-2.0383,-2.0451,-2.0363,-2.0098,-2.0098,-1.9908,-1.9535,-1.9305,-1.9115,-1.8918,-1.8511,-1.8036,-1.7534,-1.7453,-1.7297,-1.7093,-1.7012,-1.6978,-1.6978,-1.6978,-1.6978,-1.6978,-1.6978,-1.691,-1.6815,0.0,0.0,0.0,0.0,0.0,0.0,0.0,0.0,0.0,0.0,0.0,0.0,0.0,-2.0759,-2.0227,-2.018,-2.1336,-2.2779,-2.4543,-2.66,-2.8524,-3.0314,-3.149,-3.2372,-3.2959,-3.3267,-3.3414,-3.3414,-3.3414,-3.3414,-3.3414,-3.3314,-3.3113,-3.2498,-3.2008,-3.1504,-3.0898,-3.0404,-3.0045,-2.9779,-2.9513,-2.8934,-2.8137,-2.7353,-2.6411,-2.5506,-2.5494,-2.5144,-2.4613,-2.4013,-2.3844,-2.3941,-2.4516,-2.4866,-2.5023,-2.4721,-2.4275,-2.312,-1.9653,-1.9201,-1.892,-1.5795,-1.5513,-1.6049,-1.6056,-1.6517,-1.6944,-1.6958,-1.7195,-1.7446,-1.7609,-1.788,-1.8124,-1.8287,-1.8565,-1.8816,-1.8972,-1.8884,-1.883,-1.8972,-1.8871,-1.8905,0.0,-1.9746,-2.0098,-2.0098,-2.0363,-2.0471,-2.0329,-2.0329,-2.0397,-2.0526,-2.0397,-2.0261,-2.0098,-2.0098,-1.98,-1.9217,-1.9203,-1.9047,-1.8762,-1.8464,-1.8145,-1.7826,-1.7548,-1.7412,-1.7385,-1.71,-1.6978,-1.6978,-1.6978,-1.6978,-1.6978,-1.6978,-1.6978,-1.6971,0.0,0.0,0.0,0.0,0.0,0.0,0.0,0.0,0.0,0.0,0.0,0.0,0.0,0.0,0.0,0.0,-2.2058,-2.2818,-2.3437,-2.5571,-2.7442,-2.8918,-3.0581,-3.1704,-3.2104,-3.2585,-3.2839,-3.2839,-3.2839,-3.2933,-3.312,-3.2933,-3.265,-3.2324,-3.1931,-3.1361,-3.0739,-3.0366,-3.003,-2.9731,-2.8922,-2.8451,-2.8065,-2.6737,-2.5796,-2.5035,0.0,-2.3466,-2.3237,-2.2718,-2.2645,-2.285,-2.32,-2.3381,-2.3442,-2.3345,-2.2679,-2.1432,-1.9464,-1.8558,-1.7792,-1.6131,-1.6042,-1.6449,-1.6748,-1.6978,-1.7148,-1.7249,-1.7195,-1.7148,-1.7195,-1.7365,-1.7575,-1.7826,-1.8287,-1.8687,-1.8952,-1.9203,-1.9149,-1.8599,-1.8938,0.0,0.0,0.0,0.0,-2.0064,-2.0098,-2.0207,-2.0451,-2.0471,-2.0485,-2.0539,-2.0485,-2.0451,-2.0397,-2.0207,-1.9997,-1.98,-1.9393,-1.8938,-1.8464,-1.8375,-1.8111,-1.7704,-1.7507,-1.7365,-1.7256,-1.706,-1.6978,-1.6978,-1.6978,-1.6978,-1.6978,-1.6978,-1.6978,-1.6978,0.0,0.0,0.0,0.0,0.0,0.0,0.0,0.0,0.0,0.0,0.0,0.0,0.0,0.0,0.0,0.0,0.0,-2.3058,-2.3098,-2.4751,-2.6207,-2.7216,-2.8671,-2.9686,-3.0087,-3.0461,-3.0861,-3.1062,-3.1089,-3.1396,-3.1877,-3.1797,-3.1726,-3.1715,-3.1333,-3.0927,-3.0203,-2.9944,-2.9456,-2.8862,-2.7884,-2.7208,-2.6653,-2.5446,-2.448,0.0,-2.2609,-2.2188,-2.197,-2.1559,-2.1679,-2.2005,-2.2249,-2.2503,-2.2593,-2.1989,-2.1556,-2.0775,-1.894,-1.8176,-1.7697,-1.664,-1.6625,-1.6917,-1.7209,-1.727,-1.729,-1.7331,-1.71,-1.6883,-1.6829,-1.6849,-1.6978,-1.7277,-1.7684,-1.8179,-1.8742,-1.8938,-1.8918,-1.8674,-1.8864,-1.8884,0.0,0.0,0.0,-1.98,-1.9976,-2.0139,-2.0363,-2.0438,-2.0485,-2.0539,-2.0485,-2.0438,-2.0383,-2.0187,-1.9997,-1.9766,-1.9217,-1.8742,-1.8321,-1.8213,-1.7968,-1.7629,-1.7433,-1.7283,-1.7182,-1.7039,-1.6978,-1.6978,-1.6978,-1.6978,-1.6978,-1.6978,-1.6978,-1.6978,0.0,0.0,0.0,0.0,0.0,0.0,0.0,0.0,0.0,0.0,0.0,0.0,0.0,0.0,0.0,0.0,0.0,0.0,-2.3384,-2.4247,-2.4932,-2.5429,-2.605,-2.6666,-2.7161,-2.7201,-2.7495,-2.814,-2.835,-2.8925,-2.9766,-3.0034,-3.0314,-3.053,-3.0333,-2.9891,-2.9424,-2.8943,-2.8087,-2.7184,-2.6387,-2.5301,-2.4118,-2.3495,-2.2585,-2.1474,-2.1462,-2.1112,-2.0665,-2.0759,-2.1064,-2.1523,-2.1535,-2.2066,-2.2283,-2.0823,-2.0926,-2.0912,-1.8192,-1.8135,-1.8536,-1.7294,-1.7209,-1.7419,-1.7419,-1.7412,-1.7358,-1.7182,-1.6904,-1.6639,-1.6463,-1.6347,-1.6374,-1.6686,-1.6904,-1.7385,-1.8409,-1.8213,-1.838,-1.9094,-1.8728,-1.8498,-1.8742,-1.8531,0.0,-1.9379,0.0,-2.0241,-2.0119,-2.0261,-2.0397,-2.0539,-2.0397,-2.0261,-2.0119,-2.0085,-1.9786,-1.9183,-1.8742,-1.8464,-1.8301,-1.8002,-1.7792,-1.7629,-1.7331,-1.7202,-1.7182,-1.7039,-1.6978,-1.6978,-1.6978,-1.6978,-1.6978,-1.6978,-1.6978,-1.6978,0.0,0.0,0.0,0.0,0.0,0.0,0.0,0.0,0.0,0.0,0.0,0.0,0.0,0.0,0.0,0.0,0.0,0.0,-2.3445,-2.444,-2.4874,-2.4521,-2.5991,-2.6551,-2.5945,-2.6386,-2.668,-2.6841,-2.6921,-2.7175,-2.7602,-2.7468,-2.7516,-2.7571,-2.7259,-2.6804,-2.6227,-2.5932,-2.5506,-2.4975,-2.4178,-2.3726,-2.3273,-2.2549,-2.1945,-2.145,-2.1245,-2.1026,-2.0702,-2.0965,-2.1522,-2.209,-2.237,-2.1835,-2.1219,-2.1242,-1.9809,-1.8287,-1.8016,-1.7605,-1.7223,-1.7158,-1.7283,-1.7419,-1.7419,-1.7331,-1.7114,-1.6632,-1.6212,-1.5771,-1.5282,-1.5533,-1.5981,-1.6497,-1.7175,-1.7935,-1.8762,-1.9532,-1.9762,-1.9178,-1.9782,-1.9923,-1.8972,-1.9169,0.0,0.0,-1.9569,-1.9834,-2.0241,-2.0404,-2.0505,-2.0539,-2.0397,-2.0309,-2.0275,-1.9942,-1.9522,-1.904,-1.8816,-1.8565,-1.8321,-1.8124,-1.7894,-1.7629,-1.7446,-1.7297,-1.7182,-1.7039,-1.6978,-1.6978,-1.6978,-1.6978,-1.6978,-1.6978,-1.6978,-1.6978,0.0,0.0,0.0,0.0,0.0,0.0,0.0,0.0,0.0,0.0,0.0,0.0,0.0,0.0,0.0,0.0,0.0,0.0,0.0,-2.4822,-2.4836,-2.4059,-2.4973,-2.5047,-2.3998,-2.4412,-2.4501,-2.4075,-2.4329,-2.4676,-2.5077,-2.5064,-2.5139,-2.5346,-2.5229,-2.4985,-2.4601,-2.4324,-2.3962,0.0,0.0,-2.2068,-2.1837,-2.1209,-2.0907,-2.0774,-2.0738,-2.0991,-2.1426,-2.1873,-2.2392,-2.3019,-2.3393,-2.3154,-2.2549,-2.1388,-2.0067,-1.8809,-1.7727,-1.7281,-1.7182,-1.7351,-1.746,-1.7453,-1.7188,-1.6958,-1.6598,-1.5872,-1.5411,-1.5004,-1.4709,-1.4974,-1.5418,-1.6243,-1.7148,-1.8065,-1.9115,-2.0006,-2.0332,-1.9838,-2.0288,-2.0395,-1.9692,-1.954,-1.9677,0.0,-1.984,-1.9942,-2.0207,-2.0363,-2.0471,-2.0539,-2.0397,-2.0295,-2.0227,-1.9712,-1.9305,-1.8993,-1.8708,-1.8443,-1.8213,-1.8002,-1.7772,-1.7541,0.0,-1.7236,-1.7093,-1.7012,-1.6978,-1.6978,-1.6978,-1.6978,-1.6978,-1.6978,-1.6978,-1.6978,0.0,0.0,0.0,0.0,0.0,0.0,0.0,0.0,0.0,0.0,0.0,0.0,0.0,0.0,0.0,0.0,0.0,0.0,0.0,0.0,-2.4956,-2.4045,-2.3986,-2.343,-2.223,-2.2403,-2.2006,-2.124,-2.1561,-2.2017,-2.2525,-2.2792,-2.3046,-2.3313,-2.3567,-2.3522,-2.33,-2.3054,-2.276,-2.2286,-2.1249,-2.0551,-2.0166,0.0,-1.982,-1.9929,-2.0219,-2.1112,-2.2259,-2.2963,-2.3526,-2.4142,-2.4673,-2.5059,-2.4801,-2.204,-2.1197,-2.064,-1.7822,-1.7346,-1.765,-1.767,-1.765,-1.746,-1.6856,-1.6463,-1.5961,-1.5138,-1.4694,-1.4483,-1.4613,-1.4687,-1.5103,-1.5955,-1.697,-1.8078,-1.9426,-1.9998,-2.0444,-2.0851,-2.0772,-2.0622,-2.0608,-2.0139,-2.0088,-2.083,-2.0741,-2.0407,-2.0139,-2.0261,-2.0363,-2.0451,-2.0349,-2.0187,-1.9976,-1.9468,-1.9115,-1.8918,-1.8531,-1.8247,-1.8091,-1.7826,-1.7602,-1.7412,-1.7283,0.0,-1.6978,-1.6978,-1.6978,-1.6978,-1.6978,-1.6978,-1.6978,-1.6978,-1.6978,-1.6978,0.0,0.0,0.0,0.0,0.0,0.0,0.0,0.0,0.0,0.0,-2.7215,0.0,0.0,0.0,0.0,0.0,0.0,0.0,0.0,0.0,0.0,-2.5013,-2.4973,-2.4532,-2.352,-2.2587,-2.1987,-2.1818,-2.0971,-2.0588,-2.0695,-2.0748,-2.0802,-2.0855,-2.0895,-2.0697,-2.0435,-2.0383,-2.0335,-2.0194,-1.9672,-1.9569,-1.9653,-1.9358,0.0,0.0,-2.0424,-2.104,-2.18,-2.2983,-2.4178,-2.5252,-2.5771,-2.538,-2.4752,-2.4907,-2.2656,-2.0056,-2.0127,-1.894,-1.7684,-1.7792,-1.765,-1.7304,-1.67,-1.6144,-1.5561,-1.4888,-1.4506,-1.4274,-1.4465,-1.4905,-1.5427,-1.6276,-1.7408,-1.8606,-1.9749,-2.0628,-2.1182,-2.1642,-2.177,-2.1866,-2.1711,-2.1822,0.0,0.0,-2.2154,-2.1574,-2.0295,-2.0315,-2.0227,-1.9997,-2.0085,-1.9888,-1.9359,-1.9257,-1.9006,-1.8599,-1.8531,-1.8355,-1.8091,-1.8036,-1.7792,-1.7419,-1.7392,0.0,-1.6978,-1.6978,-1.6978,-1.6978,-1.6978,-1.6978,-1.6978,-1.6978,-1.6978,-1.6978,0.0,0.0,0.0,0.0,0.0,0.0,0.0,0.0,0.0,0.0,-2.8407,-2.826,0.0,0.0,0.0,0.0,0.0,0.0,0.0,0.0,0.0,-2.5945,-2.5907,-2.5419,-2.4326,-2.3873,-2.3293,-2.2543,0.0,-2.1494,-2.0704,-2.0704,-2.0423,-1.9786,-1.9786,-1.9747,-1.976,-1.9615,-1.9619,-1.9655,-1.9458,-1.9499,-1.965,0.0,0.0,0.0,-2.0641,-2.1305,-2.2005,-2.2778,-2.4106,-2.5578,-2.6387,-2.6638,-2.6561,-2.6103,-2.4759,-2.3035,-2.1422,-2.0233,-1.9309,-1.8171,-1.7521,-1.6971,-1.613,-1.5575,-1.5097,-1.4196,-1.4056,-1.426,-1.4506,-1.4976,-1.5506,-1.6228,-1.7389,-1.8586,-1.9885,-2.0965,-2.1751,-2.1978,-2.2359,-2.2519,-2.2336,-2.2295,-2.2328,-2.2694,-2.2611,-2.2168,-2.1334,-2.1256,-2.1128,-2.0978,-2.0886,-2.0736,-2.0516,-1.9958,-1.9407,-1.9115,-1.8687,-1.8335,-1.7968,-1.8057,-1.7846,-1.7419,-1.7419,0.0,-1.6978,-1.7293,-1.7293,-1.6978,-1.7293,-1.7293,-1.6978,-1.6978,-1.6978,-1.6978,0.0,0.0,0.0,0.0,0.0,0.0,0.0,-2.694,-2.7471,-2.9269,-2.969,-2.9635,-2.9085,-2.859,0.0,0.0,0.0,0.0,0.0,0.0,0.0,0.0,0.0,0.0,-2.5238,0.0,0.0,-2.3537,-2.339,0.0,0.0,0.0,0.0,0.0,-1.96,-1.9546,-1.9693,-1.9466,-1.9588,0.0,0.0,-1.9779,0.0,0.0,0.0,0.0,0.0,-2.1329,-2.1993,-2.2564,-2.3671,-2.5096,-2.6109,-2.7401,-2.8248,-2.7066,-2.671,-2.6172,-2.3295,-2.1975,-2.0811,-1.9023,-1.7773,-1.6619,-1.5691,-1.5216,-1.4677,-1.38,-1.3951,-1.4464,-1.5144,-1.5319,-1.5645,-1.6514,-1.7419,-1.8454,-1.975,-2.0875,-2.1854,-2.2386,-2.2706,-2.2748,-2.2811,-2.2589,0.0,-2.3268,-2.2889,-2.2476,-2.2219,-2.21,-2.1879,-2.1798,-2.1546,-2.1449,-2.1615,-2.0516,-1.9811,-1.959,-1.8809,-1.8301,-1.786,-1.8134,-1.8074,-1.7635,-1.7742,0.0,0.0,-1.7811,-1.7706,-1.7398,-1.7811,-1.7706,-1.7293,-1.7188,-1.7188,-1.7188,0.0,0.0,0.0,0.0,0.0,0.0,0.0,-2.7215,-2.8557,-3.0846,-3.0882,-3.0791,-3.1066,-3.0424,0.0,0.0,0.0,0.0,0.0,0.0,0.0,0.0,0.0,0.0,0.0,0.0,0.0,-2.5162,-2.3731,0.0,0.0,0.0,0.0,0.0,0.0,-1.9626,-1.947,-1.943,0.0,0.0,0.0,0.0,0.0,0.0,0.0,0.0,0.0,-2.0557,-2.1074,-2.2309,-2.3,-2.3484,-2.4238,-2.6218,-2.8343,-2.8595,-2.794,-2.7119,-2.7282,-2.435,-2.121,-2.0939,-1.8677,-1.6428,-1.5888,-1.5158,-1.457,-1.4677,-1.4576,-1.5144,-1.7247,-1.643,-1.6114,-1.8053,-1.7865,-1.7976,-1.9477,-2.0256,-2.1218,-2.2793,-2.2877,-2.3,-2.3423,-2.3593,-2.3698,-2.3698,-2.3722,-2.3102,-2.1868,-2.1868,-2.1727,-2.1421,-2.1377,-2.1227,-2.0834,-2.0188,-1.9704,-1.9256,-1.8699,-1.8301,-1.7977,-1.858,-1.8605,-1.8273,-1.8711,0.0,0.0,-1.8536,-1.8536,-1.8432,-1.8536,-1.8536,-1.8432,-1.7915,-1.7706,-1.7706,0.0,0.0,0.0,0.0,0.0,0.0,0.0,-2.6848,-2.7785,-3.0644,-3.0681,-3.0589,-3.0974,-3.0736,-3.0075,0.0,0.0,0.0,0.0,0.0,0.0,0.0,0.0,0.0,0.0,0.0,-2.6328,-2.6489,-2.6092,0.0,0.0,0.0,0.0,0.0,0.0,-2.0389,-1.943,-1.943,0.0,0.0,0.0,0.0,0.0,0.0,0.0,0.0,0.0,0.0,-2.1038,-2.1401,-2.2092,-2.2863,-2.2648,-2.4282,-2.6389,-2.7469,-2.7888,-2.7938,-2.7676,-2.6617,-2.4778,-2.1882,-1.9943,-1.8493,-1.7374,-1.6034,-1.5216,-1.5867,-1.6285,-1.6769,-1.7498,-1.8076,-1.8411,-1.8183,-1.8124,-1.8139,-1.8407,-1.9036,-2.0151,-2.2017,-2.233,-2.2718,-2.3634,0.0,-2.3764,-2.3658,-2.3634,-2.3303,-2.2606,-2.2693,-2.2646,-2.2283,-2.2079,-2.2055,-2.1915,-2.1026,-2.0432,-2.0237,-1.9723,-1.9226,-1.8964,-1.9366,-1.9272,-1.8818,-1.9033,0.0,0.0,-1.8962,-1.8955,-1.8641,-1.8641,-1.8432,-1.802,-1.7496,-1.7293,-1.7293,0.0,0.0,0.0,0.0,0.0,0.0,-2.6536,-2.6591,-2.7398,-3.0387,-3.0552,-3.0534,-3.0937,-3.0754,-3.0222,-2.925,0.0,0.0,0.0,0.0,0.0,0.0,0.0,0.0,0.0,0.0,-2.7233,-2.7361,-2.7693,-2.7419,0.0,0.0,-2.4787,-2.2342,0.0,0.0,0.0,0.0,0.0,0.0,0.0,0.0,0.0,0.0,0.0,0.0,0.0,0.0,0.0,0.0,0.0,-2.2472,-2.174,-2.2757,-2.4497,-2.5859,-2.7336,-2.838,-2.8268,-2.8055,-2.7185,-2.4074,-2.2073,-2.057,-1.9547,-1.8078,-1.6909,-1.718,-1.8096,-1.8699,-1.8473,-1.9554,-2.0298,-1.9666,-1.8914,-1.8588,-1.916,-1.9328,-2.0038,-2.1754,-2.2278,-2.2615,-2.3146,-2.3487,-2.3569,-2.3382,-2.3382,-2.3211,-2.287,-2.3,-2.3041,-2.2911,-2.2578,-2.2448,-2.257,-2.1571,-2.0996,-2.0934,-2.0275,-1.9863,-1.9558,-1.9898,-1.9702,-1.928,-1.9501,0.0,0.0,-1.959,-1.9485,-1.9059,-1.8955,-1.8649,-1.823,-1.7503,-1.7188,-1.7188,0.0,0.0,0.0,0.0,0.0,0.0,0.0,-2.6701,-2.804,-3.0479,-3.0791,-3.0937,-3.1359,-3.0699,-3.0039,-2.9599,0.0,0.0,0.0,0.0,0.0,0.0,0.0,0.0,0.0,0.0,-2.7417,-2.7822,-2.7822,-2.7985,-2.833,-2.7029,-2.5386,-2.3556,0.0,0.0,0.0,0.0,0.0,0.0,0.0,0.0,0.0,0.0,0.0,0.0,0.0,0.0,0.0,0.0,0.0,0.0,0.0,-2.1991,-2.2863,-2.4195,-2.6238,-2.8316,-2.9403,-2.8465,-2.7312,-2.8167,-2.5307,-2.226,-2.2381,-2.1376,-2.0078,-1.8683,-1.9743,-2.0935,-2.0776,-2.0583,-2.1123,-2.3031,-2.0459,-1.9318,-2.249,-2.1945,-2.1534,-2.2378,-2.2858,-2.2751,-2.1951,-2.274,-2.3195,-2.3016,-2.3,0.0,-2.2489,-2.2635,-2.2724,-2.2724,-2.2383,-2.2188,-2.2188,-2.1452,-2.0934,-2.077,-2.0213,-1.9692,-1.9386,-1.9938,-1.9962,0.0,0.0,0.0,0.0,-2.032,-2.032,-2.0216,-1.9702,-1.9493,-1.9388,-1.823,-1.7811,-1.7706,0.0,0.0,0.0,0.0,0.0,0.0,0.0,-2.5837,-2.6664,-2.848,-2.8975,-2.9415,-3.0075,-2.9929,-2.9727,-2.958,0.0,0.0,0.0,0.0,0.0,0.0,0.0,0.0,0.0,0.0,-2.793,-2.7822,-2.8333,-2.8663,-2.8792,-2.8359,-2.6754,-2.4273,-2.3967,-2.2393,0.0,0.0,0.0,0.0,0.0,0.0,-2.0704,0.0,0.0,0.0,0.0,0.0,0.0,0.0,0.0,0.0,0.0,0.0,0.0,-2.3354,-2.4944,-2.6782,-2.7887,-2.8474,-2.8306,-2.6515,-2.5291,-2.4297,-2.3464,-2.1998,-2.0978,-2.1536,-2.2176,-2.2639,-2.2385,-2.3222,-2.3925,-2.392,-2.2912,-2.1704,-2.0928,-2.1,-2.1051,-2.0841,-2.2236,-2.3105,0.0,0.0,-2.3,-2.283,-2.2805,-2.2659,-2.2302,-2.2342,-2.2294,-2.2188,-2.2082,-2.1961,-2.1831,-2.1301,-2.1023,-2.0959,-2.073,-2.0503,-2.04,-2.0615,-2.0602,0.0,0.0,0.0,0.0,-2.032,-2.032,-2.0216,-1.9702,-1.9493,-1.9388,-1.823,-1.7811,-1.7706,0.0,0.0,0.0,0.0,0.0,0.0,0.0,-2.5271,-2.5892,-2.7215,-2.7801,-2.8462,-2.9269,-2.9342,-2.9415,-2.9562,0.0,0.0,0.0,0.0,0.0,0.0,0.0,0.0,-2.6811,-2.7691,-2.8187,-2.8223,-2.8883,-2.9214,-2.9214,-2.936,-2.8013,-2.5326,-2.4976,-2.3384,0.0,0.0,0.0,0.0,0.0,0.0,-2.0806,0.0,0.0,0.0,0.0,0.0,0.0,0.0,0.0,0.0,0.0,0.0,0.0,0.0,-2.4109,-2.5474,-2.6761,-2.794,-2.8373,-2.7021,-2.6439,-2.6105,-2.5494,-2.4136,-2.3107,-2.3345,-2.4004,-2.4302,-2.3502,-2.4649,-2.5542,-2.4958,-2.3608,-2.2394,-2.1631,-2.1156,-2.087,-2.0906,-2.1889,-2.2489,0.0,-2.2659,-2.283,-2.2635,-2.2553,-2.2399,-2.2107,-2.2082,-2.1977,-2.1741,-2.179,-2.1741,-2.1555,-2.1278,-2.1092,-2.1019,-2.0905,-2.0824,-2.0759,-2.0759,-2.0661,0.0,0.0,0.0,0.0,-2.032,-2.032,-2.0216,-1.9702,-1.9493,-1.9388,-1.8439,-1.8118,-1.802,0.0,0.0,0.0,0.0,0.0,0.0,0.0,0.0,0.0,0.0,-2.7215,-2.8022,-2.881,-2.8938,0.0,0.0,0.0,0.0,0.0,0.0,0.0,0.0,0.0,0.0,-2.7215,-2.7636,-2.8223,-2.8975,-2.9415,-2.9617,-2.9617,-3.0039,-2.899,-2.6618,-2.5676,-2.4099,0.0,0.0,0.0,0.0,-2.1256,-2.0939,0.0,0.0,0.0,0.0,0.0,0.0,0.0,0.0,0.0,0.0,0.0,0.0,0.0,0.0,0.0,0.0,0.0,-2.6929,-2.7682,-2.885,-2.8162,-2.733,-2.7879,-2.7108,0.0,-2.4234,-2.5212,-2.5872,-2.4271,-2.5086,-2.5959,-2.6117,-2.3296,-2.1869,-2.3868,-2.1988,-2.0899,-2.2227,-2.1843,-2.1453,-2.1382,-2.2179,-2.2594,-2.2448,-2.2277,-2.2107,-2.1936,-2.1912,-2.1741,-2.1384,-2.153,-2.153,-2.136,-2.1181,-2.1002,-2.0832,-2.0824,-2.0734,-2.058,-2.058,-2.0483,0.0,0.0,0.0,0.0,-2.0336,-2.0336,-2.0232,-1.9806,-1.9597,-1.9485,-1.8843,-1.8619,-1.8514,0.0,0.0,0.0,0.0,0.0,0.0,0.0,0.0,0.0,0.0,0.0,-2.7508,-2.8061,-2.8608,0.0,0.0,0.0,0.0,0.0,0.0,0.0,0.0,0.0,0.0,-2.7675,-2.8333,-2.8792,-2.8975,-2.9709,-3.0057,-3.0057,-3.0461,-2.9466,-2.7313,-2.6104,-2.4035,0.0,0.0,0.0,0.0,-2.1628,-2.1435,0.0,0.0,0.0,0.0,-2.1641,-2.1752,0.0,0.0,0.0,0.0,0.0,0.0,0.0,0.0,-2.375,-2.4075,-2.4847,0.0,-2.6545,-2.6187,-2.6374,-2.652,0.0,-2.5919,-2.5564,-2.5165,-2.5659,-2.5974,-2.5583,-2.558,-2.5919,-2.6814,-2.5922,-2.4622,-2.3179,-2.113,-2.0764,-2.3422,-2.2564,-2.2335,-2.3629,-2.2701,-2.2107,-2.2066,-2.2017,-2.1912,-2.1741,-2.1725,-2.1555,-2.1197,-2.123,-2.123,-2.1189,-2.088,-2.0702,-2.0653,-2.0515,-2.0426,-2.0385,-2.0385,-2.0361,0.0,0.0,0.0,-2.0328,-2.0474,-2.0531,-2.0515,-2.0168,-2.0111,-1.9991,-1.9337,-1.9076,-1.8957,0.0,0.0,0.0,0.0,0.0,0.0,0.0,0.0,0.0,0.0,0.0,0.0,0.0,0.0,0.0,0.0,0.0,0.0,0.0,0.0,0.0,0.0,0.0,-2.7914,-2.804,-2.848,-2.8993,-2.9544,-2.9782,-3.0094,-3.0479,-3.0681,-2.9958,-2.8429,-2.6335,-2.3816,0.0,0.0,0.0,0.0,-2.1523,0.0,0.0,0.0,0.0,0.0,-2.166,-2.191,0.0,-2.2669,-2.2749,-2.2611,0.0,0.0,0.0,0.0,-2.3768,-2.3901,-2.4476,-2.5291,-2.5905,-2.5571,-2.5838,-2.6146,-2.5959,-2.5705,-2.5545,-2.5692,-2.5838,-2.6077,-2.6132,-2.5492,-2.5319,-2.6707,-2.4788,-2.2944,-2.2125,-2.2163,-2.2692,-2.3834,-2.3455,-2.3196,0.0,-2.2486,-2.1936,-2.1936,-2.1847,-2.1766,-2.166,-2.1579,-2.1449,-2.1254,-2.1083,-2.0962,-2.0889,-2.0775,-2.0677,-2.0596,-2.0491,-2.045,-2.0442,-2.0361,-2.032,0.0,0.0,0.0,-2.045,-2.0466,-2.0523,-2.058,-2.0393,-2.032,-2.02,-1.9895,-1.9712,-1.9529,0.0,0.0,0.0,0.0,0.0,0.0,0.0,0.0,0.0,0.0,0.0,0.0,0.0,0.0,0.0,0.0,0.0,0.0,0.0,0.0,0.0,0.0,-2.8095,-2.8058,-2.848,-2.848,-2.9012,-3.0112,-2.9929,-3.0204,-3.0882,-3.1011,-3.0364,-2.8946,-2.6097,-2.337,0.0,0.0,0.0,0.0,-2.1323,0.0,0.0,0.0,0.0,0.0,0.0,0.0,0.0,-2.2338,-2.2552,-2.2792,-2.2792,0.0,0.0,0.0,0.0,0.0,-2.4476,-2.5104,-2.5611,-2.5732,-2.5825,-2.5932,-2.6092,-2.5732,-2.5451,-2.5705,-2.5825,-2.5894,-2.5951,-2.5135,-2.4883,-2.5961,-2.2677,-2.0381,-2.1405,-2.3665,-2.5041,-2.4423,-2.4481,0.0,-2.2847,-2.2486,-2.2303,-2.2303,-2.2266,-2.2174,-2.2174,-2.1653,-2.1343,-2.1303,-2.0986,-2.0734,-2.0556,-2.0726,-2.0742,-2.0596,-2.0596,-2.058,-2.0547,-2.0369,-2.0279,-2.0279,0.0,0.0,-2.0539,-2.0385,-2.0426,-2.058,-2.0393,-2.032,-2.0312,-2.0255,-2.015,-1.9917,0.0,0.0,0.0,0.0,0.0,0.0,0.0,0.0,0.0,0.0,0.0,0.0,0.0,0.0,0.0,0.0,0.0,0.0,0.0,0.0,0.0,-2.8902,-2.8517,-2.848,-2.8883,-2.8902,-2.914,-2.9672,-3.0644,-3.1194,-3.1341,-3.2001,-3.0384,-2.6692,-2.4634,-2.2771,-2.1109,0.0,0.0,-2.1655,-2.1243,0.0,0.0,0.0,0.0,0.0,0.0,0.0,0.0,-2.1964,-2.2245,-2.2485,-2.2485,0.0,0.0,0.0,0.0,0.0,-2.4476,-2.5251,-2.5718,-2.501,-2.5211,-2.5464,-2.501,-2.4836,-2.4783,-2.4823,-2.5237,-2.5203,-2.3901,-2.5155,-2.6138,-2.5326,-2.3836,-2.2668,-2.2261,-2.3112,-2.4572,-2.664,0.0,-2.5271,-2.6443,-2.5271,-2.4402,-2.4402,-2.4374,-2.4356,-2.4356,-2.2344,-2.11,-2.0937,-2.0742,-2.0547,-2.0361,-2.0547,-2.0621,-2.0596,-2.0596,-2.0515,-2.0353,-2.0182,-2.0101,-2.0101,0.0,-2.0206,-2.0361,-2.0328,-2.0426,-2.058,-2.0393,-2.032,-2.0288,-1.9979,-1.9857,-1.9731,0.0,0.0,0.0,0.0,0.0,0.0,0.0,0.0,0.0,0.0,0.0,0.0,0.0,0.0,0.0,0.0,0.0,0.0,0.0,0.0,-2.9085,-2.9287,-2.892,-2.8792,-2.8975,-2.9195,-2.9709,-3.0552,-3.1121,-3.1744,-3.2386,-3.1115,-2.9055,-2.62,-2.4212,-2.2468,-2.1109,-2.1109,-2.1283,-2.1588,0.0,0.0,0.0,0.0,0.0,0.0,0.0,0.0,0.0,0.0,-2.1951,-2.2178,-2.2178,0.0,0.0,0.0,0.0,0.0,-2.4289,-2.493,-2.5424,-2.517,-2.4881,-2.4705,-2.4374,-2.341,-2.2602,-2.268,-2.3651,-2.4037,-2.267,-2.348,-2.375,-2.194,-2.2995,-2.3683,-2.26,-2.3796,-2.5389,0.0,0.0,-2.4845,-2.5945,-2.5271,-2.4698,-2.4576,-2.4684,0.0,-2.4416,-2.2195,-2.0937,-2.0856,-2.0686,-2.118,-2.2222,-2.118,-2.0547,-2.045,-2.045,-2.0353,-2.0174,-1.9995,-1.9914,-1.9914,0.0,-2.002,-2.0174,-2.0076,-2.0198,-2.0426,-2.0255,-2.0239,-2.0288,-2.0036,-1.9938,-1.982,0.0,0.0,0.0,0.0,0.0,0.0,0.0,0.0,0.0,0.0,0.0,0.0,0.0,0.0,0.0,0.0,0.0,0.0,0.0,0.0,-2.9122,-2.9415,-2.914,-2.9067,-2.9269,-2.9562,-3.0259,-3.1377,-3.1671,-3.2132,-3.2755,-2.9906,-2.7603,-2.5798,-2.3661,-2.216,-2.1109,-2.1109,-2.1243,-2.143,0.0,0.0,0.0,0.0,0.0,0.0,0.0,0.0,0.0,0.0,0.0,0.0,0.0,0.0,0.0,-2.2699,-2.3193,-2.3728,-2.4022,-2.4529,-2.505,-2.5344,-2.4842,-2.424,-2.4121,-2.2636,-2.1286,-2.1161,-2.2274,-2.2876,-2.1951,-2.215,-2.2005,-2.0408,-2.2413,-2.3638,-2.2296,-2.4004,-2.5836,-2.7033,-2.5315,-2.4526,-2.5389,-2.5536,-2.5458,-2.5185,-2.5234,0.0,-2.4971,-2.2291,-2.1111,-2.1635,-2.1458,-2.2371,-2.4484,-2.2839,-2.1656,-2.1041,-2.0529,-2.0206,-1.9995,-1.9808,-1.9727,-1.9727,-1.9687,-1.9792,-1.9987,-1.98,-1.9938,-2.0247,-2.0117,-2.015,-2.0247,-2.0117,-2.0011,-1.993,0.0,0.0,0.0,0.0,0.0,0.0,0.0,0.0,0.0,0.0,0.0,0.0,0.0,0.0,0.0,0.0,0.0,0.0,0.0,0.0,-2.8993,-2.903,-2.8993,-2.9342,-3.0094,-3.0149,-3.0571,-3.1414,-3.2533,-3.2549,-3.158,-2.9119,-2.6816,-2.4598,-2.2609,-2.1491,-2.1109,-2.1109,-2.1122,-2.1136,-2.1122,0.0,0.0,0.0,0.0,0.0,0.0,0.0,0.0,0.0,0.0,0.0,0.0,0.0,-2.2418,-2.2445,-2.2886,-2.342,-2.3728,-2.4222,-2.4743,-2.5037,-2.4869,-2.4529,-2.4226,-2.33,-2.2303,-2.1735,-2.1779,-2.1884,-2.163,-2.2417,-2.3406,-2.4135,-2.3336,-2.2214,-2.0941,0.0,-2.4973,-2.7322,-2.5765,-2.538,-2.744,-2.7653,-2.7643,-2.7632,0.0,0.0,-2.7375,-2.3111,-2.1546,-2.3623,-2.3531,-2.4251,-2.6168,-2.6057,-2.5155,-2.3306,-2.1249,-2.0141,-1.98,-1.9613,-1.9532,-1.9524,-1.9362,-1.9492,-1.9792,-1.9605,-1.9752,-2.0085,-2.0068,-2.0076,-2.0085,-2.0068,-1.9849,-1.9597,0.0,0.0,0.0,0.0,0.0,0.0,0.0,0.0,0.0,0.0,0.0,0.0,0.0,0.0,0.0,0.0,0.0,0.0,0.0,-2.8535,-2.8847,-2.9324,-2.9104,-2.936,-3.0185,-3.0442,-3.1212,-3.2533,-3.3248,-3.269,-3.0926,-2.8442,-2.6121,-2.399,-2.2084,-2.1216,-2.1109,-2.1109,-2.1109,-2.1109,-2.1109,-2.1109,0.0,0.0,0.0,0.0,0.0,0.0,0.0,0.0,-2.1189,-2.1269,-2.1269,-2.155,-2.1924,-2.2098,-2.2565,-2.3113,-2.3407,-2.3297,-2.3254,-2.3518,-2.2745,-2.2024,-2.2497,-2.1662,-2.0487,-1.9273,-2.0069,-2.1323,-2.2336,-2.1339,-2.0973,-2.2528,-2.1621,-2.0586,-2.0302,-2.1075,-2.3029,-2.672,-2.4241,-2.418,-2.8972,-2.8363,-2.8186,-2.9388,0.0,0.0,-2.7247,-2.4183,-2.2748,-2.3437,-2.3362,-2.4931,-2.8211,-2.6804,-2.5772,-2.5019,-2.2819,-2.0981,-1.9459,-1.9386,-1.9354,-1.9354,-1.9289,-1.9337,-1.9451,-1.9386,-1.95,-1.9735,-1.9849,-1.9898,-1.9906,-2.0028,-1.9979,-1.989,0.0,0.0,0.0,0.0,0.0,0.0,0.0,0.0,0.0,0.0,0.0,0.0,0.0,0.0,0.0,0.0,0.0,0.0,-2.8168,-2.8315,-2.8645,-2.9177,-2.9067,-2.936,-3.0185,-3.0461,-3.1469,-3.323,-3.3872,-3.2786,-3.0053,-2.8013,-2.5816,-2.3363,-2.1797,-2.1216,-2.1376,-2.1189,-2.1109,-2.1109,-2.1109,-2.1109,0.0,0.0,0.0,0.0,0.0,0.0,0.0,0.0,-2.1109,-2.1109,-2.1109,-2.1309,-2.1655,-2.179,-2.1924,-2.2082,-2.2289,-2.1736,-2.1129,-2.144,-2.0801,-2.02,-2.0631,-2.0152,-1.9265,-1.8159,-1.9205,-2.0815,-2.2222,-2.0585,-1.9638,-2.1398,-2.0363,-1.9557,-1.993,-2.0686,-2.2467,-2.6046,-2.3578,-2.3539,-2.8552,-2.7924,-2.7796,-2.9063,0.0,0.0,0.0,-2.4931,-2.3954,-2.5123,-2.5113,-2.6704,-3.013,-2.8032,-2.6529,-2.5701,-2.3474,-2.1362,-1.9256,-1.9256,-1.9256,-1.9256,-1.9256,-1.9256,-1.9256,-1.9256,-1.9362,-1.9532,-1.9719,-1.9792,-1.9808,-1.993,-1.9946,-1.9914,0.0,0.0,0.0,0.0,0.0,0.0,0.0,0.0,0.0,0.0,0.0,0.0,0.0,0.0,0.0,0.0,0.0,0.0,-2.7803,-2.815,-2.8388,-2.8388,-2.8773,-2.936,-3.0167,-3.0204,-3.1194,-3.3211,-3.4422,-3.2913,-2.8873,-2.7951,-2.5853,-2.2861,-2.163,-2.143,-2.1937,-2.1349,-2.1109,-2.1109,-2.1109,-2.1109,-2.1109,0.0,0.0,0.0,0.0,0.0,0.0,0.0,-2.1109,-2.1109,-2.1109,-2.1309,-2.1614,-2.1614,-2.0961,-2.0243,-2.0175,-1.9324,-1.8498,-1.8827,-1.9415,-1.9709,-1.8949,-1.8919,-1.9087,-1.9071,-1.966,-2.0424,-2.1039,-2.0571,-2.0365,-2.1301,-2.027,-1.9378,-1.9735,-2.1581,-2.3598,-2.5447,-2.4237,-2.391,-2.5887,-2.6268,-2.6408,0.0,0.0,0.0,0.0,-2.5267,-2.4867,-2.9159,-2.9258,-3.0216,-3.2091,-3.0026,-2.7844,-2.5453,-2.3205,-2.1101,-1.9256,-1.9256,-1.9256,-1.9256,-1.9355,-1.9355,-1.9256,-1.9256,-1.9362,-1.9524,-1.9711,-1.9784,-1.9784,-1.9784,-1.967,-1.944,0.0,0.0,0.0,0.0,0.0,0.0,0.0,0.0,0.0,0.0,0.0,0.0,0.0,0.0,0.0,0.0,0.0,0.0,-2.7803,-2.7618,-2.7801,-2.837,-2.8498,-2.881,-2.9324,-3.0185,-3.1047,-3.1946,-3.2588,-3.1328,-2.8389,-2.7133,-2.5236,-2.3007,-2.192,-2.1283,-2.1056,-2.0882,-2.0802,-2.0802,-2.0802,-2.0922,-2.1082,0.0,0.0,0.0,0.0,0.0,0.0,0.0,0.0,0.0,-2.1109,-2.1456,-2.1817,-2.1681,-2.1701,-2.153,-2.0515,-1.9435,-1.8497,-1.7842,-1.7507,-1.7386,-1.757,-1.8858,-1.9752,-1.9171,-1.9055,-1.9527,-2.0954,-2.0055,-1.9621,-2.1232,-2.0054,-1.9013,-1.937,-2.1058,-2.2984,-2.4949,-2.364,-2.3828,-2.7276,-2.6513,-2.6364,0.0,0.0,0.0,0.0,-2.5471,-2.5278,-2.6449,-2.793,-2.9558,-3.149,-2.965,-2.7576,-2.5302,-2.4471,-2.2375,-1.9061,-1.8939,-1.8948,-1.9159,-2.0606,-2.0489,-1.9256,-1.9256,-1.9289,-1.9337,-1.9394,-1.9419,-1.9435,-1.9549,-1.9557,-1.954,0.0,0.0,0.0,0.0,0.0,0.0,0.0,0.0,0.0,0.0,-2.8645,-2.8755,0.0,0.0,0.0,0.0,0.0,0.0,0.0,-2.7398,-2.7471,-2.8113,-2.8297,-2.859,-2.8975,-3.002,-3.0516,-3.0442,-3.1488,-3.0714,-2.8169,-2.7019,-2.5492,-2.3534,-2.2456,-2.1643,-2.1176,-2.0949,-2.0775,-2.0681,-2.0802,-2.0949,-2.1109,0.0,0.0,0.0,0.0,0.0,0.0,0.0,0.0,0.0,-2.1109,-2.1349,-2.1474,-2.0773,-2.052,-2.0153,-1.8766,-1.7784,-1.6999,-1.668,-1.6495,-1.6609,-1.7364,-1.8676,-1.9621,-1.9265,-1.8939,-1.9016,-2.0185,-1.9319,-1.8872,-2.0298,-1.9463,-1.8744,-1.9102,-2.0721,-2.2566,-2.4461,-2.3133,-2.3557,-2.7485,-2.628,-2.6045,0.0,0.0,0.0,0.0,-2.574,-2.5567,-2.632,-2.8341,-2.9947,-3.1223,-2.9275,-2.7641,-2.6337,-2.5199,-2.3409,-2.1037,-2.0246,-2.0394,-2.127,-2.1826,-2.1357,-2.032,-1.9618,-1.9256,-1.9256,-1.9256,-1.9256,-1.9272,-1.937,-1.9311,-1.9128,0.0,0.0,0.0,0.0,0.0,0.0,0.0,0.0,0.0,0.0,-2.815,-2.8388,0.0,0.0,0.0,0.0,0.0,0.0,0.0,0.0,-2.7361,-2.7803,-2.8205,-2.8608,-2.8975,-2.9709,-2.9727,-2.8975,-3.0901,-3.057,-2.8254,-2.7393,-2.6156,-2.4452,-2.302,-2.2178,-2.179,-2.1203,-2.0802,-2.0588,-2.0842,-2.0975,-2.1056,-2.1269,0.0,0.0,0.0,0.0,0.0,0.0,0.0,0.0,-2.1069,-2.1059,-2.0731,-1.938,-1.8299,-1.7261,-1.6086,-1.5167,-1.4785,-1.5665,-1.6267,-1.6966,-1.7973,-1.8582,-1.9029,-1.937,-1.9086,-1.8874,-1.9199,-1.8574,-1.8225,-1.8874,-1.868,-1.8574,-1.8915,-2.0595,-2.2368,-2.4141,-2.2799,-2.3112,-2.6525,-2.5597,0.0,0.0,0.0,0.0,0.0,-2.5825,-2.5638,-2.7727,-2.9713,-3.0875,-3.1142,-2.8831,-2.779,-2.7995,-2.5724,-2.4573,-2.4459,-2.2621,-2.2909,-2.4743,-2.2796,-2.2028,-2.2038,-2.0034,-1.9232,-1.9232,-1.9256,-1.9256,-1.9256,-1.9256,-1.896,-1.8457,0.0,0.0,0.0,0.0,0.0,0.0,0.0,0.0,0.0,0.0,0.0,0.0,0.0,0.0,0.0,0.0,0.0,0.0,0.0,0.0,-2.7361,-2.7803,-2.8462,-2.8902,-2.8975,-2.9159,-2.9159,-2.8975,-3.0057,-3.0007,-2.8769,-2.7241,-2.6082,-2.5184,-2.3014,-2.1537,-2.0575,-1.9987,-1.9706,-1.9653,-1.972,-2.0013,-2.0374,-1.9987,-1.9774,0.0,0.0,0.0,0.0,0.0,0.0,0.0,-2.0775,-2.0528,-2.0039,-1.9221,-1.843,-1.7573,-1.626,-1.5873,-1.5869,-1.6097,-1.6917,-1.7762,-1.8273,-1.8485,-1.8631,-1.885,-1.9029,-1.9167,-1.9248,-1.898,-1.8801,-1.8956,-1.868,-1.8525,-1.8753,-2.018,-2.2035,-2.4098,-2.252,-2.2162,-2.4496,-2.4356,0.0,0.0,0.0,0.0,-2.7265,-2.5316,-2.5121,-2.7265,-2.9416,-3.0488,-3.0541,-2.8644,-2.7691,0.0,-2.6872,-2.6523,-2.6323,-2.4367,-2.4671,-2.663,-2.3223,-2.2659,-2.3904,-2.05,-1.9045,-1.9053,-1.9199,-1.9256,-1.9256,-1.9256,-1.896,-1.8457,0.0,0.0,0.0,0.0,0.0,0.0,0.0,0.0,0.0,0.0,0.0,0.0,0.0,0.0,0.0,0.0,0.0,0.0,0.0,0.0,-2.7435,-2.804,-2.8645,-2.8975,-2.8975,-2.8975,-2.8975,-2.8975,-2.9214,-2.9214,-2.8952,-2.7038,-2.5991,-2.5581,-2.3074,-2.1416,-2.0414,-1.9973,-1.9626,-1.9399,-1.9666,-1.996,-2.0153,-1.9873,-1.9668,-1.9509,-1.9206,0.0,0.0,0.0,0.0,0.0,0.0,0.0,-2.0113,-1.8542,-1.7905,-1.7313,-1.5475,-1.5366,-1.5863,-1.6631,-1.7372,-1.7989,-1.8257,-1.8387,-1.8476,-1.8574,-1.8874,-1.9102,-1.9021,-1.8923,-1.8858,-1.8858,-1.8558,-1.8379,-1.8566,-1.9287,-2.051,-2.2552,-2.0992,-2.0844,-2.3687,0.0,0.0,0.0,0.0,-2.4932,-2.6989,-2.5126,-2.4932,-2.708,-2.9119,-3.0221,-3.0354,-2.9338,-2.8777,-2.8856,-2.8638,-2.8498,-2.8346,-2.7341,-2.696,-2.7001,-2.4194,-2.3551,-2.4228,-2.0394,-1.8907,-1.8996,-1.9086,-1.9183,-1.9256,-1.9256,-1.8762,-1.816,0.0,0.0,0.0,0.0,0.0,0.0,0.0,0.0,0.0,0.0,0.0,0.0,0.0,0.0,0.0,0.0,0.0,0.0,0.0,0.0,0.0,-2.837,-2.8773,-2.8957,-2.8883,-2.8883,-2.8847,-2.8773,-2.8268,-2.826,-2.8667,-2.6744,-2.5818,-2.569,-2.3004,-2.1349,-2.0508,-2.016,-1.9666,-1.9185,-1.9773,-2.0013,-1.9967,-1.9976,-1.9866,-1.9601,-1.9358,-1.943,-1.97,-2.0007,0.0,0.0,0.0,0.0,-2.0272,-1.7753,-1.6986,-1.6591,-1.4446,-1.4603,-1.5691,-1.6974,-1.7607,-1.7949,-1.8054,-1.8225,-1.8355,-1.8322,-1.8647,-1.8891,-1.8753,-1.8696,-1.868,-1.868,-1.8395,-1.8217,-1.8347,-1.8225,-1.8854,-2.0833,-1.9274,-1.9468,-2.3075,0.0,0.0,0.0,0.0,-2.5058,-2.7341,-2.5241,-2.5058,-2.7431,-2.9092,-3.0034,-3.0287,-3.0034,-3.0034,-3.0274,-3.0034,-2.9913,-2.9913,-2.9913,-2.8809,-2.6888,-2.5076,-2.4056,-2.352,-2.0105,-1.8761,-1.8891,-1.8923,-1.9053,-1.9216,-1.9216,-1.8639,-1.7672,0.0,0.0,0.0,0.0,0.0,0.0,0.0,0.0,0.0,0.0,-2.6976,-2.7233,0.0,0.0,0.0,0.0,0.0,0.0,0.0,0.0,0.0,-2.837,-2.8773,-2.8828,-2.848,-2.848,-2.8297,-2.7987,-2.6863,-2.6727,-2.7518,-2.6034,-2.5439,-2.5455,-2.2532,-2.0735,-1.988,-1.9332,-1.8701,-1.8222,-1.8808,-1.9092,-1.9048,-1.9088,-1.9034,-1.9023,-1.8946,-1.8968,-1.9102,-1.97,-2.0054,0.0,0.0,0.0,-1.8972,-1.7431,-1.6179,-1.4988,-1.3947,-1.4705,-1.6014,-1.6677,-1.7429,-1.7884,-1.7746,-1.7859,-1.794,-1.7778,-1.829,-1.8753,-1.8728,-1.8598,-1.8485,-1.8485,-1.8314,-1.8135,-1.8005,-1.7965,-1.8617,-2.043,-1.8876,-1.8581,-2.1001,0.0,0.0,0.0,-2.4145,-2.5605,-2.9362,-2.598,-2.5696,-2.9362,-2.9734,-2.994,-2.998,-2.994,-2.994,-2.998,-2.994,-2.9913,-2.9913,-2.9913,-2.8809,-2.6888,-2.4909,-2.3087,-2.1353,-1.9347,-1.8501,-1.8541,-1.8696,-1.8866,-1.9021,-1.9021,-1.8431,-1.7672,0.0,0.0,0.0,0.0,0.0,0.0,0.0,0.0,0.0,0.0,0.0,-2.6756,0.0,0.0,0.0,-2.6296,0.0,0.0,0.0,0.0,0.0,-2.7062,-2.7239,-2.6906,-2.6073,-2.6073,-2.5929,-2.5758,-2.5035,-2.5248,-2.6267,-2.4688,-2.4363,-2.499,-2.2276,-2.0802,-2.0241,-1.9492,-1.8931,-1.8515,-1.8998,-1.9172,-1.9172,-1.8986,-1.9008,-1.9171,-1.8968,-1.9008,-1.9251,-1.9834,-2.0134,-2.0247,-2.0775,0.0,0.0,0.0,-1.7098,-1.5892,-1.4576,-1.483,-1.5642,-1.6487,-1.7015,-1.7348,-1.7469,-1.7632,-1.7737,-1.7656,-1.7973,-1.8273,-1.8273,-1.8371,-1.842,-1.8314,-1.8144,-1.8005,-1.7924,-1.7827,-1.8002,-1.8815,-1.8174,-1.7936,0.0,0.0,0.0,0.0,-2.3978,-2.5696,-2.9734,-2.6162,-2.5787,-2.9734,-2.9913,-2.9913,-2.9913,-2.9913,-2.9913,-2.9913,-2.9913,-2.9913,-2.9913,-2.9913,-2.8809,-2.6876,-2.4876,-2.2862,-2.0936,-1.9091,-1.8355,-1.8555,-1.8541,-1.868,-1.885,-1.8948,-1.8345,-1.7538,0.0,0.0,0.0,0.0,0.0,0.0,0.0,0.0,0.0,0.0,0.0,0.0,0.0,0.0,0.0,0.0,-2.6316,0.0,0.0,0.0,0.0,-2.5697,-2.5513,-2.497,-2.4098,-2.4039,-2.3991,-2.3911,-2.331,-2.3645,-2.4952,-2.331,-2.3263,-2.4349,-2.2274,-2.1042,-2.0521,-1.9867,-1.9372,-1.9052,-1.9199,-1.9212,-1.9158,-1.9061,-1.9092,-1.9172,-1.9153,-1.9145,-1.9239,-1.9813,-2.0013,-2.0107,-2.0615,-2.0828,0.0,0.0,0.0,-1.6292,-1.5182,-1.4819,-1.4935,-1.5926,-1.6446,-1.6795,-1.7112,-1.7348,-1.7502,-1.7502,-1.7656,-1.7778,-1.7778,-1.807,-1.8257,-1.807,-1.7932,-1.7835,-1.7786,-1.7664,-1.7559,-1.751,-1.7502,-1.7526,0.0,0.0,0.0,0.0,-2.3502,-2.532,-2.8782,-2.5692,-2.5602,-2.9508,-2.97,-2.9726,-2.9806,-2.9806,-2.9806,-2.9806,-2.9806,-2.9847,-2.9913,-2.9913,-2.8809,-2.6876,-2.4876,-2.3137,-2.1665,-1.9184,-1.853,-1.9124,-1.8662,-1.8493,-1.868,-1.885,-1.8356,-1.7637,0.0,0.0,0.0,0.0,0.0,0.0,0.0,0.0,0.0,0.0,0.0,0.0,-2.7031,-2.6499,-2.6205,-2.6518,-2.626,-2.6058,-2.6076,-2.5429,0.0,-2.4885,-2.4178,0.0,-2.363,-2.363,-2.347,-2.3078,-2.1888,-2.2067,-2.3496,-2.2231,-2.2297,-2.333,-2.2352,-2.1309,-2.0193,-2.0214,-1.9867,-1.9377,-1.9052,-1.8784,-1.8597,-1.9158,-1.9025,-1.8637,-1.9479,-1.9239,-1.8624,-1.9212,-1.947,-1.9466,-1.9773,-2.0054,-2.0016,0.0,0.0,0.0,-1.5229,-1.4658,-1.4131,-1.4871,-1.5699,-1.6381,-1.6576,-1.6893,-1.7136,-1.7136,-1.7283,-1.7413,-1.7413,-1.7705,-1.7884,-1.7697,-1.7656,-1.7599,-1.7437,-1.7404,-1.7339,-1.7161,-1.7136,-1.721,0.0,0.0,0.0,0.0,-2.2395,-2.4263,-2.633,-2.4452,-2.5071,-2.8911,-2.9085,-2.9219,-2.9499,-2.9499,-2.9499,-2.9499,-2.9499,-2.9646,-2.9913,-2.9913,-2.8809,-2.6876,-2.4876,-2.3962,-2.3596,-1.9741,-1.9285,-2.077,-1.893,-1.8306,-1.8485,-1.8671,-1.8455,-1.8133,0.0,0.0,0.0,0.0,0.0,0.0,0.0,0.0,0.0,0.0,0.0,0.0,0.0,-2.7123,-2.6701,-2.6591,-2.626,-2.6241,-2.6756,-2.574,0.0,-2.3664,-2.2793,-2.1888,-2.0945,-2.0888,-2.073,-2.0359,-1.9919,-2.0272,-2.1376,-2.1272,-2.159,-2.2178,-2.1857,-2.147,-2.1029,-2.0281,-1.984,-1.9626,-1.9319,-1.9038,-1.8771,-1.8798,-1.8784,-1.8784,-1.8918,-1.8998,-1.9092,-1.935,0.0,0.0,0.0,-2.0013,-1.9713,-1.8631,-1.7021,-1.5446,-1.5053,-1.429,-1.3709,-1.431,-1.4871,-1.539,-1.5804,-1.617,-1.6462,-1.6568,-1.6925,-1.7177,-1.7063,-1.7429,-1.7713,-1.7648,-1.7551,-1.7453,-1.7396,-1.7283,-1.7185,-1.712,-1.7112,-1.7136,0.0,0.0,0.0,0.0,0.0,-2.4141,-2.6194,-2.4407,-2.5025,-2.8857,-2.9045,-2.9085,-2.9205,-2.9205,-2.9299,-2.9486,-2.9285,-2.9446,-2.9913,-2.9726,-2.937,-2.8719,-2.6797,-2.515,-2.3871,-2.2494,-2.231,-2.277,-2.0844,-2.0157,-2.006,-1.895,-1.8088,-1.7486,0.0,0.0,0.0,0.0,0.0,0.0,0.0,0.0,0.0,-2.6995,0.0,0.0,0.0,0.0,-2.727,-2.7013,-2.6208,-2.5971,-2.6509,-2.4929,-2.3502,-2.2539,-2.1437,-2.052,-1.9712,-1.9466,-1.9359,-1.9359,-1.9172,-1.9519,-2.0388,-2.0575,-2.0935,-2.1454,-2.1052,-2.1159,-2.1561,-2.0722,-2.0334,-2.0187,-1.9599,-1.9305,-1.9212,-1.9105,-1.9132,-1.9225,-1.9332,-1.9426,-1.9506,-1.9506,0.0,0.0,0.0,-1.988,-1.9661,-1.893,-1.7812,-1.6582,-1.5503,-1.4612,-1.3925,-1.4006,-1.4221,-1.4611,-1.5268,-1.561,-1.5861,-1.6154,-1.6552,-1.682,-1.6771,-1.7047,-1.7323,-1.7445,-1.7364,-1.7291,-1.7291,-1.7185,-1.7112,-1.7112,-1.7112,0.0,0.0,0.0,0.0,0.0,0.0,0.0,-2.4957,-2.3808,-2.4771,-2.8651,-2.8738,-2.8738,-2.8738,-2.8738,-2.8898,-2.9192,-2.8991,-2.9152,-2.9619,-2.9526,-2.9593,-2.969,-2.8501,-2.725,-2.5878,-2.4511,-2.4419,-2.4785,-2.2862,-2.1665,-2.0964,-1.9947,-1.8606,-1.7403,0.0,0.0,0.0,0.0,0.0,0.0,0.0,0.0,-2.7399,-2.7785,0.0,0.0,0.0,0.0,0.0,-2.7726,-2.6136,-2.5173,-2.519,-2.2937,-2.1554,-2.1437,0.0,0.0,-2.0214,-1.9666,-1.9653,-2.0127,-1.9639,-1.9859,-2.0615,-2.0054,-2.0254,-2.1015,-1.9907,-2.0248,-2.1561,-2.1547,-2.1323,-2.1002,-1.984,-1.9546,-1.984,-2.0107,-2.004,-1.992,-2.0762,-2.0535,-1.984,-1.9813,0.0,0.0,0.0,-1.9559,-1.9786,-1.9786,-1.906,-1.797,0.0,0.0,0.0,-1.3897,-1.3812,-1.4171,-1.4992,-1.5195,-1.535,-1.5812,-1.6146,-1.6332,-1.6519,-1.6568,-1.669,-1.7047,-1.7096,-1.7096,-1.7104,-1.7096,-1.7096,-1.7096,-1.7096,0.0,0.0,0.0,0.0,0.0,-2.0431,-2.2611,-2.2708,-2.2708,-2.4423,-2.8039,-2.8207,-2.8207,-2.8207,-2.8207,-2.8283,-2.8591,-2.8591,-2.8751,-2.9045,-2.9339,-2.9472,-2.9499,-2.9793,-2.9913,-2.9644,-2.5787,-2.5332,-2.6888,-2.4876,-2.2954,-2.1353,-2.1669,-2.0219,-1.8086,0.0,0.0,0.0,0.0,0.0,0.0,-2.8443,-2.8205,-2.8095,0.0,0.0,0.0,-2.8773,-2.7546,-2.6285,-2.5442,-2.46,-2.4269,-2.4628,-2.3111,-2.2122,-2.183,-2.0626,-1.9973,-1.992,-1.976,-1.9546,-1.9292,-1.9345,-1.9386,-1.9412,-1.9679,-1.9933,-2.016,-2.0267,-2.0307,-2.0254,-1.9826,-2.0094,-2.0708,-1.9746,-1.9666,-2.008,-1.9733,-1.9813,-2.0094,-1.992,-2.0241,-2.0655,0.0,-1.988,-1.992,0.0,-1.9426,-1.9492,0.0,0.0,-1.7841,-1.7527,0.0,0.0,0.0,0.0,0.0,-1.5588,-1.489,-1.4278,-1.4944,-1.5317,-1.5626,-1.5934,-1.6202,-1.6495,-1.6868,-1.6812,-1.6771,-1.6909,-1.6812,-1.673,-1.673,-1.6844,0.0,0.0,0.0,0.0,0.0,-2.0978,-2.2961,-2.4508,-2.5711,-2.68,-2.7816,-2.7615,-2.7591,-2.7591,-2.7722,-2.7976,-2.827,-2.827,-2.8537,-2.9045,-2.9125,-2.9285,-2.9499,-2.9793,-2.9913,-2.9824,-2.8719,-2.8629,-2.8899,-2.6979,-2.5878,-2.5275,-2.4109,-2.2913,-2.1763,0.0,0.0,0.0,0.0,0.0,-2.914,-2.892,-2.8883,-2.8828,0.0,0.0,0.0,-2.7592,-2.6778,-2.5896,-2.4915,-2.4116,-2.3719,-2.3886,-2.2613,-2.1816,-2.1633,-2.0713,-2.0214,-2.016,-1.992,-1.9693,-1.9466,-1.9519,-1.9466,-1.9292,-1.9386,-1.9506,-1.9626,-1.9586,-1.9599,-1.9573,-1.8865,-1.9305,-2.0454,-1.9933,-2.008,-2.0561,-2.0227,-2.0374,-2.0735,0.0,0.0,-2.1363,-2.0601,-2.0374,0.0,0.0,0.0,0.0,0.0,0.0,-1.8811,-1.8081,-1.7757,-1.7468,-1.7131,0.0,0.0,-1.5848,-1.5102,-1.4403,-1.4498,-1.4708,-1.5009,-1.5374,-1.5666,-1.5975,-1.6341,-1.6316,-1.6389,-1.6709,-1.6698,-1.6584,-1.6584,-1.6674,0.0,0.0,-1.9897,-2.1337,-1.9485,-2.1073,-2.2657,-2.4102,-2.6325,-2.7575,-2.7696,-2.7295,-2.7134,-2.7268,-2.7308,-2.7482,-2.7859,-2.7896,-2.8136,-2.8497,-2.8871,-2.9138,-2.9325,-2.974,-2.9913,-2.9913,-2.9913,-2.9913,-2.9824,-2.8629,-2.7702,-2.6924,-2.5833,-2.4541,-2.3084,0.0,0.0,0.0,-2.9507,-2.9562,-2.9641,-2.9635,-2.9599,-2.9452,0.0,-2.7739,-2.6532,-2.5471,-2.5892,-2.5952,-2.5202,-2.3985,-2.3189,-2.286,-2.1734,-2.1042,-2.1015,-2.0508,-2.0347,-2.0575,-2.0094,-1.996,-2.0187,-1.992,-1.98,-1.9786,-1.9225,-1.9092,-1.9279,-1.8464,-1.8531,-1.9269,-1.8424,-1.8835,-2.0134,-2.0113,-2.0575,-2.1149,-2.1122,-2.1296,-2.1614,-2.1574,-2.171,-2.1911,-2.1376,-2.0975,0.0,0.0,0.0,0.0,0.0,-2.0214,-2.0262,-1.8663,0.0,0.0,0.0,-1.7478,0.0,-1.6265,-1.5748,-1.5151,-1.4479,-1.4277,-1.4432,-1.4806,-1.5025,-1.5277,-1.565,-1.5731,-1.5999,-1.6722,-1.6649,-1.6527,-1.6552,-1.6552,0.0,-1.6292,-1.9683,-2.1139,-1.9371,-2.1212,-2.2448,-2.2319,-2.5455,-2.7335,-2.7589,-2.7068,-2.6907,-2.7161,-2.6934,-2.6961,-2.7228,-2.7549,-2.7696,-2.7722,-2.8631,-2.9045,-2.9072,-2.9659,-2.9913,-2.9913,-2.9913,-2.9913,-2.9913,-2.9913,-2.8809,-2.7311,-2.7211,-2.5799,-2.3578,0.0,0.0,-2.9104,-2.9507,-2.9562,-2.969,-3.002,-2.98,-2.9288,-2.8393,-2.722,-2.6019,-2.4728,-2.4886,-2.4457,-2.2855,-2.2408,-2.1951,-2.1238,-2.0948,-2.0655,-2.0414,-2.0233,-2.0147,-1.9973,-2.0094,-2.0067,-1.988,-1.9826,-1.98,-1.9786,-1.9439,-1.9185,-1.8998,-1.8584,-1.8504,-1.8651,-1.8477,-1.8838,-1.9559,-1.9786,-2.0521,-2.1443,-2.1203,-2.1296,-2.1588,-2.1283,-2.1537,-2.1964,-2.1857,-2.1309,-2.0708,0.0,0.0,0.0,-2.016,0.0,0.0,0.0,0.0,0.0,0.0,0.0,0.0,-1.8711,-1.682,-1.5148,-1.5142,-1.4302,-1.3734,-1.4237,-1.4473,-1.4757,-1.526,-1.5472,-1.5813,-1.6535,-1.6357,-1.6202,-1.6341,-1.6357,0.0,-1.6113,-1.9376,-2.1466,-2.1166,-2.4279,-2.5038,-2.2164,-2.5087,-2.6934,-2.6987,-2.6653,-2.6507,-2.656,-2.6734,-2.6854,-2.6907,-2.7442,-2.7696,-2.7722,-2.8631,-2.9045,-2.9072,-2.9659,-2.9913,-2.9913,-2.9913,-2.9913,-2.9913,-2.9913,-2.9644,-2.935,-2.9374,-2.8824,-2.8047,-2.7021,-2.7021,-2.7193,-2.7758,-2.7843,-2.798,-2.8294,-2.8345,-2.8023,-2.714,-2.6315,-2.5226,-2.3571,-2.376,-2.3528,-2.211,-2.1857,-2.1523,-2.0935,-2.0762,-2.0615,-2.0468,-2.0307,-2.016,-2.0013,-2.016,-2.0094,-1.98,-1.98,-1.972,-1.9586,-1.9439,-1.9292,-1.9132,-1.8838,-1.8784,-1.8931,-1.8931,-1.9265,-1.9813,-1.996,-2.0454,-2.1172,-2.1109,-2.1203,-2.1309,-2.1162,-2.1296,-2.1577,-2.1724,-2.1376,0.0,0.0,-2.1122,-2.0869,0.0,-2.0775,-2.0855,0.0,0.0,0.0,-2.1296,0.0,0.0,0.0,-1.8182,-1.6968,-1.6654,-1.5374,-1.4455,-1.4938,-1.447,-1.4115,-1.4635,-1.4935,-1.5301,-1.5837,-1.5991,-1.6081,-1.6162,-1.6908,0.0,-1.6048,-1.9927,-2.2108,-2.1303,-2.4703,-2.5413,-2.1998,-2.4883,-2.668,-2.6814,-2.6547,-2.6386,-2.6386,-2.6533,-2.66,-2.6613,-2.7201,-2.7482,-2.7522,-2.8564,-2.9045,-2.9072,-2.9659,-2.9913,-2.9913,-2.9913,-2.9913,-2.9913,-2.9913,-2.9734,-2.953,-2.965,-2.9314,-2.8725,-2.4871,-2.4994,-2.52,-2.5882,-2.6057,-2.6215,0.0,0.0,-2.6572,-2.5698,-2.5307,-2.4441,-2.2875,-2.3166,-2.322,-2.2552,-2.1964,-2.1563,-2.1376,-2.0882,-2.0561,0.0,0.0,-2.012,-2.0067,-2.012,-2.004,-1.98,-1.9746,-1.9626,-1.9511,-1.9399,-1.9457,-1.9439,-1.9078,-1.9145,-1.9519,-1.9359,-1.9653,-2.0167,-2.0167,-2.0441,-2.0788,-2.1015,-2.1109,-2.1122,-2.1176,-2.1189,-2.1243,-2.1601,-2.1403,-2.1162,-2.1456,-2.1614,0.0,0.0,0.0,0.0,0.0,0.0,0.0,0.0,0.0,-2.1056,0.0,0.0,0.0,-1.8084,-1.666,-1.5595,-1.5718,0.0,0.0,0.0,0.0,0.0,0.0,-1.5868,0.0,-1.6335,-1.7593,0.0,-1.6506,-2.0231,-2.2165,-2.087,-2.417,-2.4895,-2.1752,-2.4621,-2.6493,-2.6734,-2.6507,-2.6386,-2.6386,-2.6386,-2.6386,-2.64,-2.6987,-2.7268,-2.7308,-2.8444,-2.8991,-2.9072,-2.9606,-2.986,-2.9913,-2.9913,-2.9913,-2.9913,-2.9824,-2.9541,-2.9157,-2.9126,-2.8799,-2.8258,-2.4564,-2.4994,-2.5183,-2.5627,-2.5961,0.0,0.0,0.0,-2.6056,-2.476,-2.4414,-2.4125,-2.3718,-2.3915,-2.4168,-2.4315,-2.2859,-2.2031,-2.2258,0.0,-2.0174,0.0,0.0,0.0,-1.9466,-1.972,-1.9826,-1.98,-1.9546,-1.9533,-1.9746,-1.9492,-1.9506,-1.9733,-1.9172,-1.9372,-2.008,-1.9305,-1.9466,-2.0167,-2.0167,-2.0561,0.0,-2.1096,-2.1109,-2.1149,-2.1403,-2.1561,-2.1614,0.0,-2.1563,-2.1162,0.0,-2.1614,-2.1614,-2.1574,0.0,0.0,0.0,0.0,0.0,0.0,-2.1911,0.0,0.0,0.0,-1.9338,-1.8899,0.0,-1.6512,0.0,0.0,0.0,0.0,0.0,0.0,-1.5991,-1.6582,-1.7207,-1.7654,-1.7613,0.0,0.0,-1.9372,-2.0472,-2.0533,-2.3711,-2.4313,-2.1249,-2.4489,-2.64,-2.644,-2.6413,-2.6386,-2.6386,-2.6386,-2.6386,-2.64,-2.6987,-2.7268,-2.7295,-2.823,-2.8804,-2.9058,-2.9392,-2.9673,-2.9913,-2.9913,-2.9913,-2.9824,-2.9451,-2.9272,-2.9131,-2.8452,-2.8359,-2.842,-2.2529,-2.2716,-2.288,-2.3261,0.0,0.0,0.0,0.0,-2.4488,-2.4067,-2.3988,-2.4035,-2.4249,-2.4075,-2.4142,-2.4596,-2.3487,-2.2739,0.0,0.0,-2.0869,0.0,0.0,0.0,0.0,-1.9826,0.0,-1.98,-1.9506,-1.9484,-1.9546,-1.9426,-1.9519,-1.9786,-1.9546,-1.9733,-2.0214,-2.0027,-2.0054,-2.0207,0.0,-2.0788,0.0,-2.1042,-2.1109,-2.1149,-2.1507,-2.1614,-2.1641,0.0,-2.1563,0.0,0.0,0.0,0.0,0.0,0.0,0.0,0.0,0.0,0.0,0.0,0.0,0.0,-2.1416,0.0,-2.0451,0.0,0.0,0.0,0.0,0.0,0.0,0.0,-1.6352,0.0,0.0,0.0,-1.7433,0.0,0.0,0.0,0.0,0.0,0.0,0.0,-2.2836,-2.3359,-2.2206,-2.3744,-2.5242,-2.6386,-2.6386,-2.6386,-2.6386,-2.6386,-2.6386,-2.64,-2.6987,-2.7268,-2.7308,-2.8364,-2.8925,-2.9072,-2.9526,-2.9806,-2.9913,-2.9913,-2.9734,-2.9451,-2.9015,-2.8835,-2.8796,-2.8419,-2.8192,-2.8152,-2.1109,-2.1109,-2.1176,-2.139,-2.1561,0.0,0.0,-2.2859,-2.3273,-2.35,-2.3741,-2.4075,-2.4583,-2.4409,-2.4543,-2.5291,-2.4476,-2.3794,0.0,0.0,-2.167,0.0,0.0,0.0,0.0,0.0,0.0,-1.9679,-1.9546,-1.9492,-1.9479,-1.9399,-1.9559,-1.992,-1.992,-2.008,-2.0374,-2.0588,-2.0601,-2.0508,-2.0855,-2.0909,-2.0815,-2.1029,-2.1162,-2.1256,-2.1534,-2.1614,-2.1614,-2.1614,-2.1561,0.0,-2.143,0.0,0.0,0.0,0.0,0.0,-2.2178,0.0,0.0,0.0,0.0,0.0,0.0,0.0,0.0,0.0,0.0,0.0,0.0,0.0,0.0,0.0,0.0,-1.8061,0.0,-1.7949,0.0,0.0,0.0,0.0,0.0,0.0,0.0,-2.1497,-2.2448,-2.2867,-2.2581,-2.3544,-2.4763,-2.6266,-2.6346,-2.6386,-2.6386,-2.6386,-2.6386,-2.64,-2.6987,-2.7268,-2.7308,-2.8417,-2.8965,-2.9072,-2.9579,-2.9847,-2.9913,-2.9734,-2.9541,-2.9182,-2.8565,-2.8294,-2.8254,-2.8192,-2.803,-2.7884,-2.1109,-2.1109,-2.1109,-2.1122,-2.1363,-2.175,0.0,-2.2686,-2.2954,-2.2954,-2.3647,-2.4302,-2.4609,-2.513,-2.5919,0.0,0.0,-2.5317,-2.5024,0.0,-2.2311,0.0,0.0,-2.0401,0.0,0.0,0.0,0.0,-1.9653,-1.9786,-1.9773,-1.9492,-1.9666,0.0,-2.0214,-2.0388,-2.0655,-2.0668,-2.0828,-2.1056,-2.0802,-2.0855,-2.1096,0.0,-2.1283,-2.1601,-2.1614,0.0,0.0,-2.1614,-2.1363,0.0,0.0,0.0,0.0,0.0,0.0,0.0,0.0,0.0,0.0,-2.2058,0.0,0.0,0.0,0.0,-2.1884,0.0,0.0,0.0,0.0,0.0,0.0,0.0,0.0,0.0,0.0,0.0,0.0,0.0,0.0,0.0,0.0,0.0,-2.1018,-2.1282,-2.2852,-2.3209,-2.1934,-2.4134,-2.5588,-2.6037,-2.6239,-2.6386,-2.6386,-2.6386,-2.6386,-2.64,-2.6987,-2.7268,-2.7295,-2.8203,-2.8778,-2.9058,-2.9366,-2.9659,-2.9824,-2.9362,-2.9182,-2.9092,-2.8101,-2.7739,-2.7674,-2.7512,-2.7594,-2.7848,-2.1403,-2.1403,-2.1336,-2.1149,-2.1189,-2.1523,-2.2298,-2.2846,-2.3514,-2.4489,-2.4716,-2.5344,-2.68,-2.6787,-2.7068,0.0,0.0,-2.6466,-2.5972,-2.4569,0.0,0.0,0.0,-2.1256,0.0,0.0,0.0,0.0,-2.0134,-2.008,-2.008,-1.9786,-1.996,-2.0521,-2.0321,-2.0508,-2.0962,-2.0962,0.0,0.0,0.0,-2.1082,-2.1643,0.0,0.0,-2.1614,-2.1614,-2.1804,0.0,-2.1897,-2.1897,-2.1911,-2.1523,-2.1534,-2.1641,-2.1735,-2.183,0.0,0.0,0.0,-2.2392,-2.2298,0.0,0.0,0.0,0.0,0.0,0.0,0.0,0.0,0.0,0.0,0.0,0.0,0.0,0.0,0.0,0.0,0.0,0.0,0.0,0.0,0.0,0.0,0.0,-2.2022,-2.0798,-2.0874,-2.2672,-2.2202,-2.2998,-2.5575,-2.5945,-2.6199,-2.6386,-2.6386,-2.6386,-2.64,-2.6987,-2.7268,-2.7295,-2.8203,-2.8764,-2.9058,-2.9352,-2.9468,-2.9451,-2.9272,-2.8822,-2.8191,-2.783,-2.7468,-2.7257,-2.7522,-2.7739,-2.7485,-2.1641,-2.1534,-2.1363,-2.1283,-2.1269,-2.1523,-2.2298,-2.3207,-2.4168,-2.5224,-2.5558,-2.6279,-2.7816,0.0,-2.7896,0.0,-2.8323,-2.7575,-2.6466,-2.5705,0.0,-2.3808,-2.2953,0.0,0.0,0.0,0.0,0.0,0.0,-2.0494,-2.0388,-2.0094,-2.016,-2.0521,-2.0535,-2.0641,-2.0828,-2.1243,-2.1256,0.0,0.0,-2.1269,0.0,0.0,-2.1363,-2.1762,0.0,-2.179,-2.2098,-2.2017,-2.2111,-2.2205,-2.1817,-2.171,-2.1789,-2.183,-2.1924,-2.2071,-2.2472,-2.2498,0.0,-2.2418,-2.2138,0.0,-2.1724,0.0,0.0,0.0,0.0,0.0,0.0,0.0,0.0,0.0,0.0,0.0,0.0,-1.9958,0.0,0.0,0.0,0.0,0.0,0.0,0.0,-2.2271,-2.0582,-2.0529,0.0,0.0,-2.2608,-2.5255,-2.5745,-2.6092,-2.6386,-2.6386,-2.6386,-2.64,-2.6987,-2.7268,-2.7295,-2.8203,-2.8678,-2.8784,-2.9075,-2.9099,-2.8912,-2.8732,-2.8281,-2.7649,-2.7558,-2.7348,-2.722,-2.7655,-2.7932,-2.757,-2.1617,-2.1336,-2.1243,-2.151,-2.1628,-2.1777,-2.2392,-2.3701,-2.4756,-2.5144,-2.6186,-2.7121,-2.7736,-2.8056,-2.8457,-2.9032,-2.9312,-2.8617,-2.6627,-2.6947,0.0,0.0,-2.4102,-2.3674,-2.2552,0.0,0.0,0.0,0.0,-2.0989,-2.0708,-2.0401,-2.0193,-2.0281,-2.0855,-2.0788,-2.0334,-2.1483,-2.1804,-2.1601,-2.1614,-2.1403,-2.1176,-2.1136,-2.151,-2.1991,-2.1735,-2.1641,-2.1708,-2.1911,-2.2017,-2.2031,-2.2017,-2.2004,-2.2058,-2.2325,-2.2218,-2.2138,-2.2767,-2.2659,-2.2445,-2.2458,0.0,0.0,0.0,0.0,-2.2767,0.0,0.0,0.0,0.0,0.0,0.0,0.0,0.0,0.0,0.0,0.0,0.0,0.0,0.0,0.0,0.0,0.0,-2.2271,-2.1991,-2.1912,0.0,0.0,0.0,-2.4069,-2.4983,-2.5598,-2.6066,-2.636,-2.6386,-2.6386,-2.64,-2.6974,-2.7255,-2.7295,-2.8163,-2.8466,-2.8334,-2.8608,-2.8641,-2.8384,-2.792,-2.7649,-2.7649,-2.7208,-2.7196,-2.7473,-2.7739,-2.8174,-2.8031,-2.1279,-2.128,-2.1332,-2.1188,-2.1593,-2.2218,-2.326,-2.3928,-2.489,0.0,-2.7348,-2.819,-2.9232,-2.9419,-2.9526,-2.9673,-2.9366,0.0,0.0,0.0,0.0,-2.5745,-2.4743,-2.4168,-2.4075,-2.3207,0.0,-2.2365,0.0,-2.1467,-2.1387,-2.0802,-2.0561,-2.0575,-2.0949,-2.0909,-2.0615,-2.1349,-2.1496,-2.1243,-2.1534,-2.1764,0.0,0.0,-2.1937,-2.2606,-2.1882,-2.183,-2.2205,-2.2285,-2.2458,-2.2605,-2.2378,-2.2311,-2.2285,-2.2138,-2.2205,-2.2392,-2.2766,-2.2806,-2.2806,-2.3033,-2.2752,-2.2405,0.0,0.0,0.0,0.0,0.0,0.0,0.0,0.0,0.0,0.0,0.0,0.0,0.0,0.0,0.0,-2.0099,0.0,0.0,0.0,0.0,-2.1846,-2.1293,-2.0661,0.0,0.0,0.0,0.0,-2.4088,-2.489,-2.5545,-2.6066,-2.6279,-2.6386,-2.6386,-2.676,-2.7054,-2.7281,-2.7722,-2.8069,-2.8334,-2.84,-2.8181,-2.792,-2.7739,-2.7468,-2.7208,-2.7027,-2.7304,-2.7739,-2.8005,-2.8318,-2.8031,-2.1058,-2.1592,-2.2,-2.1845,-2.2549,-2.3367,-2.4048,-2.4289,0.0,-2.6841,-2.7696,0.0,-2.9072,-2.9606,-2.9913,-2.9913,-2.9619,0.0,-2.8457,0.0,0.0,-2.66,-2.5665,-2.5117,-2.5024,-2.3861,0.0,-2.2928,0.0,-2.1735,-2.1601,-2.1082,-2.0735,-2.0508,-2.1056,-2.1069,-2.0722,-2.1443,-2.1643,-2.151,-2.167,0.0,0.0,-2.1817,-2.2044,-2.2432,-2.2058,-2.2138,-2.2432,-2.2565,-2.2726,-2.2901,-2.2672,-2.2605,-2.2579,-2.2418,-2.2485,-2.2645,-2.2819,-2.2928,-2.2939,-2.3247,-2.2966,-2.2645,-2.2792,-2.2846,-2.2726,0.0,0.0,0.0,0.0,0.0,0.0,0.0,0.0,0.0,0.0,0.0,0.0,0.0,-2.0438,0.0,0.0,0.0,0.0,0.0,0.0,0.0,0.0,0.0,0.0,-2.3754,-2.4743,-2.5491,-2.6037,-2.6373,-2.6573,-2.6587,-2.6881,-2.7175,-2.7468,-2.7762,-2.797,-2.7985,-2.7985,-2.7776,-2.7377,-2.7377,-2.7208,-2.7051,-2.728,-2.7546,-2.786,-2.8246,-2.8487,-2.8128,-2.0917,-2.1881,-2.2693,-2.2815,-2.3803,0.0,0.0,-2.4983,0.0,-2.6881,0.0,-2.8462,-2.8462,-2.9299,-2.9913,-2.9913,0.0,-2.9379,-2.8462,-2.8657,-2.8283,-2.6987,-2.6627,-2.6146,-2.5531,-2.4436,0.0,0.0,0.0,-2.1817,-2.1561,-2.1189,-2.0735,-2.0214,-2.1096,-2.1293,0.0,-2.1603,-2.1924,-2.1937,-2.1977,-2.1857,-2.1762,-2.1951,-2.2071,-2.2138,-2.2392,-2.2458,-2.2458,-2.2766,-2.2928,-2.2928,-2.2928,-2.2928,-2.2928,-2.2928,-2.2928,-2.2941,-2.2913,-2.2968,-2.2939,-2.33,-2.3153,-2.2993,-2.326,-2.3113,-2.2832,-2.2485,-2.2418,-2.2405,0.0,0.0,0.0,0.0,0.0,0.0,0.0,0.0,0.0,0.0,0.0,0.0,0.0,0.0,0.0,0.0,0.0,0.0,0.0,0.0,0.0,-2.3634,-2.4783,-2.5598,-2.609,0.0,-2.6827,-2.6934,-2.7121,-2.7375,-2.7709,-2.8003,-2.7872,-2.756,-2.7598,-2.737,-2.7027,-2.7027,-2.7027,-2.7087,-2.7606,-2.7811,-2.7872,-2.8427,-2.862,-2.8236,-2.0871,-2.1445,-2.2038,-2.2287,-2.3359,-2.4674,-2.6174,-2.6854,-2.7442,-2.819,-2.9058,-2.9606,-2.9606,-2.9793,-2.9913,-2.9913,-2.9472,0.0,0.0,0.0,0.0,-2.7562,-2.7028,-2.636,-2.5531,-2.4836,-2.4075,0.0,-2.2405,-2.171,-2.1176,-2.0895,-2.0441,-1.992,-2.0788,-2.1269,-2.148,-2.1628,0.0,-2.1722,-2.1884,-2.2098,-2.2271,-2.2325,-2.2498,-2.2712,-2.2766,-2.2619,-2.2458,-2.2766,-2.2928,-2.2928,-2.2928,-2.2928,-2.2928,-2.2928,-2.2928,-2.2926,-2.318,-2.306,-2.2993,-2.3554,-2.3474,-2.326,-2.3313,-2.3287,-2.3086,-2.2525,-2.2418,-2.2352,-2.2111,0.0,0.0,0.0,0.0,0.0,0.0,0.0,0.0,0.0,0.0,-2.0381,0.0,0.0,0.0,0.0,0.0,0.0,0.0,0.0,0.0,0.0,-2.4168,0.0,0.0,0.0,-2.6827,-2.7535,-2.7108,-2.7175,-2.7709,-2.7583,-2.753,-2.7573,-2.7435,-2.7186,-2.7027,-2.7027,-2.7027,-2.7087,-2.7606,-2.7811,-2.7872,-2.8427,-2.862,-2.8031,-2.1509,-2.1874,-2.2525,-2.3536,-2.4701,0.0,0.0,-2.827,-2.8738,-2.8404,-2.8738,-2.8991,-2.8991,-2.9553,-2.986,-2.97,-2.9432,-2.9205,-2.9032,-2.8337,-2.7856,-2.7709,-2.6987,0.0,-2.5758,-2.4863,-2.4128,-2.3554,-2.2498,-2.1764,-2.1336,-2.0882,-2.0441,-2.0054,-2.0628,-2.1216,0.0,0.0,0.0,-2.1804,-2.2098,-2.2298,-2.2432,-2.2592,-2.2832,-2.31,-2.31,-2.3006,-2.2886,-2.2873,-2.2928,-2.2928,-2.2928,-2.2928,-2.2928,-2.2928,-2.2928,-2.2926,-2.3247,-2.31,-2.3115,-2.3808,-2.3661,-2.3407,-2.3714,-2.3661,-2.3434,-2.2979,-2.2886,-2.2724,-2.2296,-2.2108,0.0,0.0,0.0,0.0,0.0,0.0,0.0,0.0,0.0,0.0,0.0,0.0,0.0,0.0,0.0,0.0,0.0,0.0,0.0,0.0,0.0,0.0,0.0,0.0,0.0,-2.7376,-2.7004,-2.7258,-2.7825,-2.7715,-2.7749,-2.7776,-2.7459,-2.7222,-2.7027,-2.7027,-2.7111,-2.7268,-2.7655,-2.7896,-2.8065,-2.8475,-2.862,-2.8128,-2.2367,-2.2777,-2.3603,-2.5063,-2.6201,-2.728,-2.8123,-2.9192,-2.9579,-2.8644,-2.8524,-2.8524,-2.8524,-2.9299,-2.9726,-2.9499,-2.9366,-2.9098,-2.8631,-2.8257,-2.7923,-2.7615,-2.6947,-2.6346,-2.5865,-2.489,-2.4155,0.0,-2.2605,-2.183,0.0,-2.0895,-2.0481,0.0,0.0,0.0,0.0,0.0,-2.1815,-2.2098,-2.2325,-2.2458,-2.2539,-2.2779,-2.306,-2.3327,-2.3327,-2.3367,-2.338,-2.314,-2.302,-2.2966,-2.2966,-2.3006,-2.3129,-2.3129,-2.3129,-2.3113,-2.3354,-2.3247,-2.3233,-2.4008,-2.3861,-2.3621,-2.4022,-2.3981,-2.3768,-2.3407,-2.338,-2.3187,-2.2605,-2.2605,0.0,0.0,0.0,0.0,0.0,0.0,0.0,0.0,0.0,0.0,-2.1722,0.0,0.0,0.0,0.0,0.0,0.0,0.0,0.0,0.0,0.0,-2.5015,-2.5961,0.0,-2.677,-2.7226,-2.7025,-2.7356,-2.8076,-2.7883,-2.7933,-2.7966,-2.7494,-2.7194,-2.7027,-2.7027,-2.7184,-2.7449,-2.7715,-2.7968,-2.8234,-2.8524,-2.862,-2.8332,-2.3154,-2.401,0.0,0.0,0.0,0.0,-2.8425,-2.9339,-2.9873,-2.9766,-2.9753,-2.9753,-2.9753,-2.9619,-2.9513,-2.9486,-2.8991,-2.8671,-2.8604,-2.8056,-2.7602,-2.7321,-2.7228,-2.6667,-2.5585,-2.5184,-2.4462,0.0,0.0,-2.1817,0.0,0.0,0.0,0.0,0.0,0.0,0.0,-2.1443,-2.1871,-2.2378,-2.2405,-2.2579,-2.2887,-2.2914,-2.306,-2.3327,-2.3327,-2.35,-2.3728,-2.3688,-2.35,-2.3287,-2.3287,-2.3474,-2.3688,-2.3688,-2.3688,-2.3688,-2.3728,-2.3714,-2.3768,-2.4115,-2.4168,-2.4062,-2.3861,-2.3995,-2.4008,-2.3447,-2.3541,-2.3563,-2.2894,-2.3276,-2.3219,0.0,0.0,0.0,0.0,0.0,0.0,0.0,0.0,0.0,0.0,-2.1267,0.0,0.0,-2.1764,0.0,0.0,0.0,0.0,-2.2445,0.0,-2.4957,-2.5687,-2.6066,-2.677,-2.7813,-2.7291,-2.7525,-2.8532,-2.793,-2.7775,-2.7979,-2.7333,-2.7003,-2.7027,-2.7027,-2.7184,-2.7449,-2.7715,-2.7968,-2.8234,-2.8524,-2.862,-2.8332,0.0,0.0,0.0,0.0,0.0,0.0,0.0,-2.9686,-2.9913,-2.9913,-2.9913,-2.9847,-2.9673,-2.9553,-2.9339,-2.8991,-2.8738,-2.8524,-2.8337,-2.7776,-2.7388,-2.7268,-2.6921,-2.636,-2.5531,-2.5224,-2.4596,0.0,0.0,0.0,0.0,0.0,0.0,0.0,0.0,-2.1096,-2.139,-2.1683,-2.2044,-2.2432,-2.2619,-2.2873,-2.314,-2.314,-2.3434,-2.3848,-2.3848,-2.3928,-2.4035,-2.4035,-2.3834,-2.3594,-2.3594,-2.3674,-2.3768,-2.3768,-2.3768,-2.3808,-2.3981,-2.3901,-2.3888,-2.4342,-2.4329,-2.4222,-2.4275,-2.4382,-2.4342,-2.3941,-2.3955,-2.3976,-2.3872,-2.3989,-2.3936,0.0,0.0,0.0,0.0,0.0,0.0,0.0,0.0,0.0,0.0,-2.1228,-2.1306,0.0,0.0,0.0,0.0,0.0,0.0,-2.2392,0.0,-2.4534,-2.5479,-2.5809,-2.6268,-2.6778,-2.6901,-2.7179,-2.7657,-2.7597,-2.7536,-2.7411,-2.716,-2.7027,-2.7027,-2.7027,-2.728,-2.7667,-2.7775,-2.8077,-2.8463,-2.8584,-2.862,-2.8332,-2.6669,0.0,-2.731,0.0,-2.8698,-2.8951,-2.9793,-2.9913,-2.9913,-2.9913,-2.9913,-2.9806,-2.9513,-2.9406,-2.9152,-2.8644,-2.8524,-2.8337,-2.803,-2.7549,-2.7228,-2.7134,-2.6653,0.0,-2.5651,-2.5277,-2.473,-2.4022,-2.334,0.0,0.0,0.0,0.0,0.0,-2.1109,-2.1483,-2.1762,-2.1991,-2.2338,-2.2699,-2.2819,-2.31,-2.3447,-2.3367,-2.3688,-2.4209,-2.4209,-2.4262,-2.4329,-2.4329,-2.4195,-2.4008,-2.3928,-2.3955,-2.4022,-2.4022,-2.4022,-2.4075,-2.4275,-2.4182,-2.4128,-2.4529,-2.4476,-2.4369,-2.4476,-2.4569,-2.4583,-2.4369,-2.4329,-2.4396,-2.4596,-2.4543,-2.4429,-2.4475,0.0,0.0,0.0,0.0,0.0,0.0,-2.1411,-2.1084,-2.1563,-2.1356,-2.1463,0.0,0.0,0.0,0.0,0.0,0.0,0.0,0.0,0.0,0.0,-2.5537,-2.5903,-2.6273,-2.6616,-2.6906,-2.7385,-2.7549,-2.7392,-2.7027,-2.7027,-2.7027,-2.7039,-2.7111,-2.7413,-2.7824,-2.7896,-2.821,-2.862,-2.862,-2.862,-2.8428,-2.663,-2.7724,-2.8684,-2.8978,-2.9513,-2.99,-2.9913,-2.9913,-2.9913,-2.9913,-2.9913,-2.9806,-2.9513,-2.9219,-2.8925,-2.8631,-2.8323,-2.8016,-2.7722,-2.7428,-2.7134,0.0,0.0,-2.6253,-2.6037,-2.5384,-2.493,-2.4623,0.0,0.0,-2.2405,0.0,-2.139,-2.1122,-2.171,-2.1977,-2.2004,-2.2285,-2.2766,-2.3287,-2.2979,-2.322,-2.3728,-2.3434,-2.3688,-2.4209,-2.4209,-2.4382,-2.4636,-2.4636,-2.4549,-2.4569,-2.4289,-2.4396,-2.4623,-2.4623,-2.4623,-2.4623,-2.4549,-2.4549,-2.4549,-2.4636,-2.4636,-2.4556,-2.4275,-2.4436,-2.4636,-2.4636,-2.4636,-2.4636,-2.4636,-2.4877,-2.4895,-2.4245,0.0,0.0,0.0,0.0,0.0,0.0,-2.2002,-2.1712,-2.1603,-2.1614,0.0,0.0,0.0,0.0,0.0,0.0,0.0,-2.2405,-2.3418,0.0,-2.4619,-2.5051,-2.582,-2.6796,-2.656,-2.7095,-2.826,-2.7837,-2.7468,-2.7027,-2.7027,-2.7027,-2.7051,-2.7304,-2.757,-2.7836,-2.8101,-2.8367,-2.862,-2.862,-2.862,-2.862,-2.6611,-2.7047,-2.7763,-2.9313,-2.9793,-2.9913,-2.9913,-2.9913,-2.9913,-2.9913,-2.9913,-2.9726,-2.9232,-2.9098,-2.8751,0.0,-2.7896,-2.7802,0.0,-2.7241,-2.7014,-2.7121,-2.6653,-2.6253,-2.6037,-2.5571,-2.513,-2.4636,0.0,0.0,0.0,-2.2231,-2.1884,-2.1443,-2.2017,-2.2285,-2.2298,-2.2592,-2.2832,-2.302,-2.314,-2.342,-2.3781,-2.3888,-2.4168,-2.4502,-2.4502,-2.4556,-2.4636,-2.4636,-2.4636,-2.4623,-2.4529,-2.4556,-2.4636,-2.4636,-2.4636,-2.4636,-2.4636,-2.4636,-2.4636,-2.4636,-2.4636,-2.4609,-2.4516,-2.4569,-2.4636,-2.4636,-2.4796,-2.4943,-2.4943,-2.5184,-2.5411,-2.5365,-2.5202,0.0,0.0,0.0,0.0,0.0,-2.1621,-2.128,0.0,-2.1422,0.0,0.0,0.0,0.0,0.0,0.0,0.0,0.0,-2.3679,0.0,-2.4423,-2.5161,-2.5759,-2.613,-2.6734,-2.737,-2.8104,-2.7488,-2.7118,-2.7027,-2.7027,-2.7027,-2.7051,-2.7317,-2.757,-2.7836,-2.8101,-2.8379,-2.862,-2.862,-2.862,-2.862,-2.741,-2.714,-2.7389,-2.9383,-2.9847,-2.9913,-2.9913,-2.9913,-2.9873,-2.9766,-2.9753,-2.9526,-2.8938,-2.8871,0.0,-2.7923,-2.7869,-2.7869,-2.7869,-2.7308,-2.7068,-2.7255,-2.6707,-2.6306,-2.6119,0.0,0.0,-2.513,-2.4623,-2.3875,-2.2926,-2.2926,-2.2672,-2.2231,-2.2592,-2.2766,-2.2766,-2.2953,-2.3166,-2.3367,-2.346,-2.3728,-2.4102,-2.4168,-2.4382,-2.4636,-2.4636,-2.4636,-2.4636,-2.4636,-2.4636,-2.4636,-2.4636,-2.4716,-2.4783,-2.4676,-2.4636,-2.4636,-2.4636,-2.4716,-2.4796,-2.4796,-2.4796,-2.477,-2.4663,-2.4636,-2.4676,-2.4783,-2.4957,-2.5117,-2.5224,-2.5478,-2.5745,-2.601,-2.5464,-2.497,-2.4676,0.0,0.0,0.0,0.0,0.0,0.0,-2.1833,-2.2071,0.0,0.0,0.0,0.0,0.0,0.0,-2.2826,-2.3809,0.0,-2.4548,-2.5446,-2.5993,-2.6092,-2.6897,-2.7498,-2.785,-2.7316,-2.7027,-2.7027,-2.7027,-2.7027,-2.7063,-2.7413,-2.7667,-2.7848,-2.8222,-2.8463,-2.862,-2.862,-2.862,-2.862,-2.8312,-2.7788,-2.7513,0.0,-2.974,0.0,-2.9913,-2.9913,-2.9806,-2.9526,-2.9486,-2.9259,-2.8671,-2.8604,-2.8484,-2.8261,0.0,0.0,0.0,-2.7575,-2.7268,-2.7268,-2.672,-2.6413,-2.6413,-2.6119,-2.6023,-2.601,-2.5064,-2.4356,-2.3834,-2.3794,-2.3621,-2.3354,-2.3354,-2.3354,-2.3354,-2.3354,-2.3674,-2.4155,-2.3901,-2.4128,-2.4583,-2.4329,-2.4396,-2.4636,-2.4636,-2.4636,-2.4636,-2.4636,-2.4636,-2.4562,-2.4663,-2.4863,-2.5024,-2.4743,-2.4676,-2.4629,-2.4629,-2.4903,-2.5104,-2.5104,-2.5104,-2.5037,-2.4756,-2.4629,-2.477,-2.505,-2.513,-2.5224,-2.5518,-2.5798,-2.6063,-2.6063,-2.5478,-2.497,-2.4649,0.0,0.0,0.0,0.0,0.0,0.0,-2.2726,-2.2806,0.0,0.0,0.0,0.0,0.0,-2.3147,-2.3216,-2.3883,-2.4472,-2.4963,-2.5744,-2.6289,-2.6599,-2.712,-2.7491,-2.7739,-2.7299,-2.7027,-2.7027,-2.7027,-2.7027,-2.7075,-2.7594,-2.7811,-2.7872,-2.8415,-2.862,-2.862,-2.862,-2.862,-2.862,0.0,0.0,-2.7454,-2.9422,-2.9873,-2.9913,-2.9913,-2.9913,-2.9806,-2.9526,-2.9486,-2.9259,-2.8671,-2.8604,-2.8484,-2.8261,-2.7936,-2.7709,-2.7495,-2.7348,-2.7268,-2.7268,-2.6921,-2.672,-2.672,-2.6226,-2.5838,-2.5611,-2.4957,-2.4569,-2.4422,-2.3981,-2.3728,-2.3661,-2.3661,-2.3661,-2.3661,-2.3661,-2.3741,-2.3888,-2.4035,-2.4182,-2.4329,-2.4476,-2.4569,-2.4636,-2.4636,-2.4636,-2.4636,-2.4636,-2.4636,-2.4676,-2.4903,-2.5024,-2.5064,-2.4997,-2.513,-2.5304,-2.5304,-2.5358,-2.5411,-2.5411,-2.5411,-2.5398,-2.5317,-2.5304,-2.5331,-2.5398,-2.5585,-2.5838,-2.6132,-2.6239,-2.6293,-2.6293,-2.5611,-2.4903,-2.4382,-2.3407,0.0,0.0,-2.2806,-2.2859,-2.2458,-2.3113,-2.3527,0.0,0.0,0.0,0.0,-2.4329,-2.4568,-2.4475,-2.4604,-2.5244,-2.631,-2.6044,-2.6499,-2.77,-2.8029,-2.8231,-2.8294,-2.7739,-2.7377,-2.7027,-2.7027,-2.7027,-2.7075,-2.7594,-2.7811,-2.7872,-2.8415,-2.862,-2.862,-2.862,-2.862,-2.8656,-2.6163,-2.6761,-2.7451,-2.9528,-2.9913,-2.9913,-2.9913,-2.9913,-2.9806,-2.9526,-2.9366,-2.9112,-2.8657,-2.8484,-2.8323,-2.8248,-2.7989,-2.7829,-2.7765,-2.7415,-2.7268,-2.7268,-2.6854,-2.6627,-2.6627,-2.6319,-2.6012,-2.5718,-2.5264,-2.497,-2.4823,-2.4382,-2.4102,-2.3968,-2.3968,-2.3968,-2.3968,-2.3968,-2.4048,-2.4182,-2.4342,-2.4396,-2.4422,-2.4569,-2.4636,-2.4649,-2.4796,-2.4836,-2.4863,-2.4997,-2.5037,-2.5064,-2.5224,-2.5371,-2.5478,-2.5478,-2.5491,-2.5518,-2.5518,-2.5611,-2.5718,-2.5718,-2.5718,-2.5678,-2.5545,-2.5518,-2.5545,-2.5692,-2.5838,-2.6092,-2.6507,-2.648,-2.6346,-2.6213,-2.5451,-2.4676,-2.4088,-2.3233,0.0,-2.3006,-2.3327,-2.35,-2.3434,-2.4115,-2.4396,-2.3995,-2.4195,0.0,-2.4214,-2.499,-2.5152,-2.4481,-2.5055,-2.574,-2.6528,-2.6537,-2.7196,-2.8603,-2.8038,-2.8023,-2.8474,-2.7739,-2.7208,-2.7027,-2.7027,-2.7099,-2.7244,-2.7642,-2.7884,-2.8029,-2.8463,-2.862,-2.862,-2.862,-2.8693,-2.8801,-2.8758,-2.8346,-2.7985,-2.9644,-2.9913,-2.9913,-2.9913,-2.9913,-2.9806,-2.9526,-2.9219,-2.8925,-2.8644,-2.8323,-2.8221,-2.8221,-2.8221,-2.8194,-2.81,-2.7589,-2.7295,-2.7201,-2.672,-2.6453,-2.6453,-2.6413,-2.6266,-2.6026,-2.5732,-2.5451,-2.5211,-2.4863,-2.4569,-2.4329,-2.4289,-2.4262,-2.4262,-2.4262,-2.4409,-2.4636,-2.4636,-2.4636,-2.4636,-2.4636,-2.4663,-2.473,-2.4983,-2.5104,-2.5184,-2.5424,-2.5518,-2.5531,-2.5625,-2.5812,-2.6117,-2.6211,-2.5972,-2.5758,-2.5665,-2.5865,-2.6092,-2.6146,-2.6238,-2.6092,-2.5838,-2.5745,-2.5798,-2.6092,-2.6197,-2.6253,-2.6787,-2.6613,-2.6293,-2.5999,-2.517,-2.4382,-2.3848,0.0,-2.2926,-2.3741,-2.3995,-2.4289,-2.4783,-2.5331,-2.5358,-2.4576,-2.5135,-2.5302,-2.4635,-2.5479,-2.5487,-2.4472,-2.547,-2.6209,-2.646,-2.7209,-2.8143,-2.9182,-2.7842,-2.7661,-2.8474,-2.7571,-2.7051,-2.7087,-2.7087,-2.7244,-2.7498,-2.7763,-2.8005,-2.8234,-2.8512,-2.862,-2.862,-2.8669,-2.8825,-2.8994,-2.7279,-2.8539,-2.9554,-2.9824,-2.9913,-2.9913,-2.9913,-2.9913,-2.9806,-2.9526,-2.9219,-2.8925,-2.8644,-2.8323,-2.8221,-2.8221,-2.8221,-2.802,-2.7428,-2.7549,-2.7415,-2.6907,-2.68,-2.6747,-2.6747,-2.652,-2.6373,-2.6319,-2.6026,-2.5865,-2.5889,-2.5264,-2.4983,-2.493,-2.4676,-2.4569,-2.4569,-2.4569,-2.4596,-2.4636,-2.4636,-2.4636,-2.4636,-2.4636,-2.4796,-2.5024,-2.5064,-2.5237,-2.5451,-2.5504,-2.5518,-2.5598,-2.6092,-2.6279,-2.6413,-2.6921,-2.7028,-2.6881,-2.6386,-2.6466,-2.6747,-2.7001,-2.7068,-2.7054,-2.7001,-2.68,-2.6707,-2.7001,-2.6867,-2.6787,-2.7134,-2.676,-2.6293,-2.5999,-2.501,-2.4155,-2.3821,0.0,-2.3701,-2.4088,-2.501,-2.5651,-2.5745,-2.6052,-2.6148,-2.5871,-2.5936,-2.5872,-2.5762,-2.6567,-2.6843,-2.6369,-2.6592,-2.705,-2.7776,-2.8577,-2.8963,-2.9182,-2.8565,-2.8384,-2.8474,-2.783,-2.75,-2.7365,-2.7365,-2.751,-2.7775,-2.8029,-2.8162,-2.8234,-2.8512,-2.862,-2.8644,-2.8874,-2.8982,-2.9067,-2.827,-2.9272,-2.9913,-2.9913,-2.9913,-2.9913,-2.9913,-2.978,-2.9633,-2.9499,-2.9085,-2.8751,-2.8617,-2.8323,-2.8221,-2.8221,-2.8221,-2.8047,-2.7522,-2.7482,-2.7268,-2.6841,-2.6667,-2.6587,-2.6587,-2.6453,-2.6386,-2.6386,-2.6092,-2.6037,-2.6023,-2.5518,-2.5237,-2.5077,-2.493,-2.4783,-2.4636,-2.4636,-2.4636,-2.4636,-2.4636,-2.4636,-2.4649,-2.481,-2.4957,-2.5117,-2.5438,-2.5638,-2.5798,-2.6119,-2.6213,-2.6293,-2.672,-2.6854,-2.6921,-2.7188,-2.7268,-2.7201,-2.6934,-2.6961,-2.7094,-2.7228,-2.7268,-2.7268,-2.7268,-2.7161,-2.7094,-2.7241,-2.7161,-2.7148,-2.7442,-2.7014,-2.6573,-2.644,-2.5304,0.0,0.0,-2.4102,-2.4235,-2.4836,-2.5812,-2.648,-2.6653,-2.6921,-2.6947,-2.6532,-2.6653,-2.6599,-2.6354,-2.7244,-2.7764,-2.7659,-2.7827,-2.7923,-2.8067,-2.8604,-2.8835,-2.8835,-2.8023,-2.7842,-2.801,-2.7558,-2.7354,-2.7413,-2.7268,-2.7522,-2.8017,-2.8005,-2.8162,-2.8439,-2.8572,-2.862,-2.8656,-2.8922,-2.9103,-2.926,-2.9446,-2.9873,-2.9913,-2.9913,-2.9913,-2.9913,-2.9913,-2.9673,-2.9486,-2.9486,-2.8978,-2.8604,-2.8604,-2.8323,-2.8221,-2.8221,-2.8221,-2.81,-2.7722,-2.7428,-2.7134,-2.6841,-2.6547,-2.6386,-2.6386,-2.6386,-2.6386,-2.6386,-2.6159,-2.6052,-2.613,-2.5758,-2.5491,-2.5277,-2.5211,-2.501,-2.4743,-2.4743,-2.4743,-2.4743,-2.4743,-2.4783,-2.4863,-2.509,-2.5224,-2.5344,-2.5798,-2.6039,-2.6226,-2.6667,-2.6827,-2.6881,-2.7255,-2.7321,-2.7295,-2.7428,-2.7468,-2.7455,-2.7388,-2.7362,-2.7375,-2.7455,-2.7522,-2.7575,-2.7575,-2.7522,-2.7495,-2.7562,-2.7468,-2.7442,-2.7655,-2.7281,-2.6881,-2.6747,0.0,0.0,0.0,-2.4703,-2.4917,-2.5718,-2.6533,-2.7134,-2.7442,-2.7669,-2.7559,-2.7091,-2.7359,-2.745,-2.7017,-2.7857,-2.8505,-2.8688,-2.8889,-2.8869,-2.8335,-2.8463,-2.8474,-2.8474,-2.748,-2.7233,-2.7735,-2.7233,-2.7244,-2.7582,-2.7256,-2.757,-2.8282,-2.8017,-2.8186,-2.862,-2.862,-2.8656,-2.8753,-2.9006,-2.9272,-2.9501,-2.9459,-2.9726,-2.9913,-2.9913,-2.9913,-2.9913,-2.9913,-2.9673,-2.9486,-2.9486,-2.8978,-2.8604,-2.8604,-2.8323,-2.8221,-2.8221,-2.8221,-2.81,-2.7722,-2.7428,-2.7134,-2.6841,-2.6547,-2.6386,-2.6386,-2.6386,-2.6386,-2.6386,-2.6373,-2.636,-2.6346,-2.6066,-2.5919,-2.5956,-2.5598,-2.5317,-2.505,-2.505,-2.505,-2.505,-2.505,-2.5211,-2.5451,-2.5478,-2.5651,-2.597,-2.5945,-2.6306,-2.676,-2.6814,-2.6827,-2.6921,-2.7482,-2.7482,-2.7375,-2.8006,-2.8167,-2.81,-2.7736,-2.7669,-2.7736,-2.81,-2.8297,-2.8511,-2.8511,-2.8283,-2.8163,-2.8444,-2.8056,-2.7669,-2.7696,-2.7442,-2.7054,-2.6507,0.0,0.0,-2.5451,-2.5665,-2.6052,-2.6653,-2.7268,-2.7749,-2.814,-2.8181,-2.8034,-2.7846,-2.8228,-2.8446,-2.8291,-2.8691,-2.9125,-2.9446,-2.9637,-2.9604,-2.9156,-2.8732,-2.8474,-2.8474,-2.748,-2.7342,-2.8032,-2.733,-2.7437,-2.8113,-2.7606,-2.7848,-2.8572,-2.8294,-2.8355,-2.862,-2.862,-2.8777,-2.9019,-2.9272,-2.9538,-2.9803,-2.9419,-2.9713,-2.9913,-2.9913,-2.9766,-2.9646,-2.9646,-2.9392,-2.9138,-2.8965,-2.8751,-2.8537,-2.8337,-2.8301,-2.8221,-2.8221,-2.8221,-2.8181,-2.7976,-2.7696,-2.7241,-2.6587,-2.6453,-2.6386,-2.6386,-2.6386,-2.6386,-2.6386,-2.6386,-2.6386,-2.6386,-2.6279,-2.6132,-2.5959,-2.5838,-2.5625,-2.5344,-2.5344,-2.5344,-2.5344,-2.5344,-2.5411,-2.5531,-2.5718,-2.5852,-2.5999,-2.636,-2.664,-2.6881,-2.7241,-2.7362,-2.7442,-2.7843,-2.7776,-2.7615,-2.81,-2.8404,-2.8671,-2.8564,-2.8404,-2.8337,-2.8631,-2.8791,-2.8871,-2.8871,-2.8791,-2.8738,-2.8858,-2.8698,-2.8524,-2.8524,-2.8297,-2.803,-2.7802,0.0,-2.6386,-2.6573,-2.6533,-2.664,-2.7054,-2.7789,-2.831,-2.8417,-2.8591,-2.8665,-2.8598,-2.8785,-2.8838,-2.877,-2.9291,-2.9455,-2.9294,-2.957,-2.9545,-2.9182,-2.8372,-2.801,-2.801,-2.7299,-2.7178,-2.7457,-2.7166,-2.728,-2.7703,-2.7341,-2.763,-2.8343,-2.8077,-2.8222,-2.862,-2.862,-2.8681,-2.8825,-2.9248,-2.9465,-2.961,-2.9165,-2.9513,-2.9753,-2.9659,-2.9633,-2.9553,-2.9366,-2.9245,-2.9072,-2.8778,-2.8751,-2.8631,-2.8323,-2.8283,-2.8283,-2.8283,-2.8288,-2.8274,-2.8283,-2.7923,-2.7348,-2.656,-2.644,-2.6386,-2.6386,-2.6386,-2.6386,-2.6386,-2.6386,-2.6386,-2.6386,-2.6386,-2.6279,-2.6092,-2.6092,-2.5932,-2.5651,-2.5651,-2.5651,-2.5651,-2.5651,-2.5705,-2.5812,-2.6012,-2.6146,-2.6279,-2.668,-2.6934,-2.7175,-2.7669,-2.7843,-2.7909,-2.8297,-2.8283,-2.8163,-2.8364,-2.8711,-2.9058,-2.9152,-2.9032,-2.8911,-2.9018,-2.9112,-2.9179,-2.9179,-2.9179,-2.9179,-2.9179,-2.9112,-2.9045,-2.9045,-2.8871,-2.8711,-2.8617,-2.7923,-2.7455,-2.7655,-2.7509,-2.7495,-2.7789,-2.8364,-2.8751,-2.8751,-2.8925,-2.9072,-2.9179,-2.9179,-2.9219,-2.9312,-2.9521,-2.9541,-2.9182,-2.9093,-2.8925,-2.8732,-2.801,-2.7649,-2.7468,-2.7118,-2.7075,-2.716,-2.716,-2.7292,-2.7534,-2.7353,-2.7582,-2.8077,-2.798,-2.8149,-2.85,-2.8584,-2.8669,-2.8801,-2.9236,-2.9405,-2.9477,-2.8604,-2.9085,-2.9392,-2.9085,-2.9526,-2.9713,-2.9125,-2.9285,-2.9379,-2.9072,-2.9045,-2.8938,-2.8644,-2.8604,-2.8604,-2.8604,-2.8323,-2.8355,-2.8577,-2.803,-2.7442,-2.6854,-2.6547,-2.6386,-2.6386,-2.6386,-2.6386,-2.6386,-2.6386,-2.6386,-2.6386,-2.6386,-2.6386,-2.6386,-2.6386,-2.6226,-2.6037,-2.6037,-2.6037,-2.6037,-2.6037,-2.6132,-2.6386,-2.6386,-2.6573,-2.6827,-2.6827,-2.7201,-2.7749,-2.8127,-2.8234,-2.8341,-2.8845,-2.9045,-2.9045,-2.9045,-2.9045,-2.9112,-2.9406,-2.9486,-2.9419,-2.9125,-2.9272,-2.9486,-2.9486,-2.9486,-2.9486,-2.9486,-2.9245,-2.9045,-2.9045,-2.9045,-2.8951,-2.8657,-2.8617,-2.8617,-2.8604,-2.8604,-2.8724,-2.9005,-2.9045,-2.9045,-2.9045,-2.9045,-2.9165,-2.9459,-2.9486,-2.9619,-2.99,-2.9451,-2.9182,-2.9182,-2.8191,-2.7739,-2.7727,-2.7727,-2.7468,-2.7027,-2.7027,-2.7172,-2.7413,-2.7425,-2.7558,-2.7799,-2.7811,-2.7811,-2.7824,-2.8101,-2.8198,-2.8234,-2.8512,-2.8777,-2.9043,-2.9308,-2.9405,-2.9489,-2.8564,-2.9085,-2.9392,-2.9085,-2.9192,-2.9165,-2.8791,-2.8978,-2.9072,-2.8778,-2.9098,-2.9245,-2.8938,-2.8911,-2.8911,-2.8911,-2.8644,-2.8417,-2.8283,-2.7909,-2.7615,-2.7442,-2.6961,-2.66,-2.6386,-2.6386,-2.6386,-2.6386,-2.6386,-2.6386,-2.6386,-2.6386,-2.6386,-2.6386,-2.6386,-2.6346,-2.6266,-2.6266,-2.6266,-2.6266,-2.6266,-2.6319,-2.6413,-2.6613,-2.6747,-2.6881,-2.7295,-2.7682,-2.8056,-2.8364,-2.8604,-2.8764,-2.8751,-2.9018,-2.9312,-2.9098,-2.9325,-2.9673,-2.9766,-2.978,-2.9766,-2.9673,-2.9726,-2.978,-2.978,-2.978,-2.978,-2.978,-2.9713,-2.9659,-2.9659,-2.9659,-2.9553,-2.9272,-2.9219,-2.9152,-2.8938,-2.8911,-2.8938,-2.9032,-2.9219,-2.9352,-2.9352,-2.9539,-2.9686,-2.978,-2.978,-2.9641,-2.9451,-2.9272,-2.8912,-2.8191,-2.783,-2.7558,-2.7208,-2.7208,-2.7118,-2.7027,-2.7027,-2.7075,-2.716,-2.7341,-2.7365,-2.728,-2.7655,-2.7703,-2.757,-2.8017,-2.8198,-2.8234,-2.8512,-2.8777,-2.9043,-2.9308,-2.9526,-2.9731,-2.8364,-2.8898,-2.9179,-2.8751,-2.9072,-2.9205,-2.8684,-2.8951,-2.9112,-2.8818,-2.9085,-2.9192,-2.8898,-2.8965,-2.8991,-2.8871,-2.8711,-2.8524,-2.8337,-2.8043,-2.7816,-2.7709,-2.7362,-2.7028,-2.6747,-2.6627,-2.656,-2.656,-2.6453,-2.6386,-2.6386,-2.6386,-2.6386,-2.6386,-2.6386,-2.6386,-2.6386,-2.6386,-2.6386,-2.64,-2.652,-2.656,-2.6587,-2.6881,-2.7068,-2.7228,-2.7709,-2.807,-2.839,-2.8818,-2.9138,-2.9352,-2.9179,-2.9366,-2.9619,-2.9432,-2.9633,-2.9913,-2.9913,-2.9913,-2.9913,-2.9913,-2.9913,-2.9913,-2.9913,-2.9913,-2.9913,-2.9913,-2.9913,-2.9913,-2.9913,-2.9913,-2.986,-2.9686,-2.9659,-2.9593,-2.9406,-2.9392,-2.9392,-2.9392,-2.9539,-2.9659,-2.9659,-2.9806,-2.9913,-2.9913,-2.9913,-2.9734,-2.9272,-2.9002,-2.8552,-2.7739,-2.7558,-2.7299,-2.7027,-2.7027,-2.7027,-2.7027,-2.7027,-2.7087,-2.7184,-2.7353,-2.7329,-2.7208,-2.763,-2.7606,-2.7304,-2.7836,-2.8053,-2.8077,-2.8355,-2.862,-2.8898,-2.9272,-2.9369,-2.9405,-2.8167,-2.8604,-2.8831,-2.8283,-2.9098,-2.9566,-2.8764,-2.9125,-2.9379,-2.9085,-2.9058,-2.8965,-2.8684,-2.8885,-2.8938,-2.8711,-2.8684,-2.8657,-2.8604,-2.8337,-2.8043,-2.7749,-2.7736,-2.7615,-2.7348,-2.7001,-2.6841,-2.6867,-2.6547,-2.6413,-2.6466,-2.644,-2.644,-2.6466,-2.6466,-2.6453,-2.6426,-2.6426,-2.6426,-2.6453,-2.672,-2.6841,-2.6894,-2.7188,-2.7482,-2.7776,-2.8083,-2.8404,-2.8778,-2.9339,-2.97,-2.9913,-2.9913,-2.9913,-2.9913,-2.9913,-2.9913,-2.9913,-2.9913,-2.9913,-2.9913,-2.9913,-2.9913,-2.9913,-2.9913,-2.9913,-2.9913,-2.9913,-2.9913,-2.9913,-2.9913,-2.9913,-2.9913,-2.9913,-2.9913,-2.9913,-2.9913,-2.9913,-2.9913,-2.9913,-2.9913,-2.9913,-2.9913,-2.9913,-2.9913,-2.9913,-2.9824,-2.9644,-2.9182,-2.8655,-2.8204,-2.7649,-2.7208,-2.7027,-2.7027,-2.7027,-2.7027,-2.7027,-2.7027,-2.7172,-2.7425,-2.7425,-2.7425,-2.7437,-2.7703,-2.751,-2.7075,-2.7594,-2.7811,-2.7836,-2.8101,-2.8391,-2.8717,-2.9224,-2.9115,-2.8741,-2.8167,-2.8444,-2.8657,-2.8524,-2.8911,-2.9165,-2.8978,-2.9245,-2.9379,-2.9085,-2.9245,-2.9272,-2.8978,-2.9005,-2.9112,-2.9285,-2.9299,-2.9098,-2.8631,-2.8537,-2.8377,-2.8056,-2.8127,-2.81,-2.8033,-2.7215,-2.6934,-2.7175,-2.664,-2.6627,-2.7068,-2.6841,-2.6854,-2.7081,-2.7081,-2.6947,-2.6734,-2.6734,-2.6734,-2.6734,-2.68,-2.6961,-2.7201,-2.7495,-2.7789,-2.8167,-2.839,-2.8845,-2.9352,-2.97,-2.986,-2.9913,-2.9913,-2.9913,-2.9913,-2.9913,-2.9913,-2.9913,-2.9913,-2.9913,-2.9913,-2.9913,-2.9913,-2.9913,-2.9913,-2.9913,-2.9913,-2.9913,-2.9913,-2.9913,-2.9913,-2.9913,-2.9913,-2.9913,-2.9913,-2.9913,-2.9913,-2.9913,-2.9913,-2.9913,-2.9913,-2.9913,-2.9913,-2.9913,-2.9913,-2.9913,-2.9554,-2.9195,-2.8655,-2.8191,-2.7649,-2.7208,-2.7027,-2.7027,-2.7027,-2.7027,-2.7027,-2.7027,-2.7027,-2.7172,-2.7425,-2.7425,-2.7425,-2.7437,-2.7703,-2.751,-2.7075,-2.7594,-2.7811,-2.7836,-2.8101,-2.85,-2.897,-2.9284,-2.9465,-2.9089,-2.814,-2.839,-2.8604,-2.8604,-2.8845,-2.9085,-2.9232,-2.9152,-2.9058,-2.9045,-2.8925,-2.8778,-2.8631,-2.8871,-2.9219,-2.9646,-2.9432,-2.9138,-2.8831,-2.8684,-2.847,-2.8248,-2.8221,-2.8221,-2.8221,-2.7549,-2.7321,-2.7468,-2.7028,-2.6961,-2.7268,-2.7108,-2.7121,-2.7268,-2.7268,-2.7175,-2.7028,-2.7028,-2.7028,-2.7054,-2.7335,-2.7549,-2.7736,-2.8177,-2.843,-2.8604,-2.8911,-2.9312,-2.9713,-2.986,-2.9913,-2.994,-3.0087,-3.0127,-3.0127,-3.0127,-3.0127,-3.01,-2.9953,-2.9913,-2.9913,-2.9913,-3.002,-3.0087,-2.9953,-3.002,-3.0127,-3.0127,-3.0127,-3.0127,-3.0127,-3.0007,-2.9913,-2.9913,-2.9913,-2.9913,-2.9913,-2.9913,-2.9913,-2.9913,-2.9913,-2.9913,-2.9913,-2.9913,-2.9913,-2.9913,-2.9451,-2.9002,-2.8565,-2.801,-2.7468,-2.7027,-2.7027,-2.7027,-2.7027,-2.7027,-2.7087,-2.722,-2.7087,-2.7172,-2.7413,-2.7292,-2.7304,-2.7425,-2.7437,-2.728,-2.7063,-2.7461,-2.7703,-2.7836,-2.8101,-2.8463,-2.8862,-2.9127,-2.9308,-2.8812,-2.806,-2.831,-2.8537,-2.8591,-2.8804,-2.9072,-2.9366,-2.8991,-2.8751,-2.8938,-2.8524,-2.8301,-2.8301,-2.8751,-2.9312,-2.9806,-2.9446,-2.9165,-2.9112,-2.8885,-2.8617,-2.831,-2.8382,-2.8355,-2.8315,-2.803,-2.7883,-2.7776,-2.7428,-2.7321,-2.7415,-2.7362,-2.7362,-2.7415,-2.7415,-2.7388,-2.7348,-2.7348,-2.7348,-2.7388,-2.8006,-2.8261,-2.8283,-2.8831,-2.9072,-2.9152,-2.9446,-2.978,-3.006,-3.006,-3.006,-3.01,-3.0301,-3.0354,-3.0354,-3.0301,-3.0287,-3.0234,-2.998,-2.9913,-2.9913,-2.9913,-3.014,-3.0301,-3.0047,-3.0221,-3.0434,-3.0434,-3.0434,-3.0421,-3.0368,-3.0154,-2.998,-2.9927,-2.9913,-2.9913,-2.9913,-2.9913,-2.9913,-2.9913,-2.9913,-2.9913,-2.9913,-2.9913,-2.9824,-2.9824,-2.9375,-2.8822,-2.8384,-2.783,-2.7377,-2.7027,-2.7027,-2.7027,-2.7027,-2.7027,-2.7135,-2.7353,-2.7135,-2.7184,-2.7473,-2.7172,-2.7196,-2.7473,-2.7208,-2.7123,-2.7184,-2.7401,-2.7642,-2.7896,-2.8113,-2.8379,-2.8656,-2.8922,-2.9019,-2.8386,-2.7749,-2.8003,-2.8283,-2.8564,-2.8644,-2.8764,-2.9058,-2.9032,-2.8911,-2.8698,-2.8591,-2.8537,-2.8537,-2.9072,-2.9459,-2.9539,-2.97,-2.9686,-2.9446,-2.9392,-2.9232,-2.8938,-2.8911,-2.8804,-2.8551,-2.8751,-2.8604,-2.8167,-2.7535,-2.7604,-2.81,-2.7762,-2.7776,-2.8114,-2.8114,-2.7883,-2.7642,-2.7642,-2.7642,-2.7669,-2.8087,-2.831,-2.8577,-2.8911,-2.9205,-2.9459,-2.9753,-3.0207,-3.0675,-3.0675,-3.0675,-3.0635,-3.0434,-3.0354,-3.0314,-3.0047,-2.998,-2.9967,-2.9927,-2.9913,-2.9913,-2.9913,-3.014,-3.0354,-3.0314,-3.0528,-3.0742,-3.0742,-3.0742,-3.0662,-3.0408,-3.0327,-3.0221,-2.9953,-2.9913,-2.9913,-2.9913,-2.9913,-2.9913,-2.9913,-2.9913,-2.9913,-2.9913,-2.9913,-2.9734,-2.9362,-2.8835,-2.8384,-2.783,-2.739,-2.7027,-2.7027,-2.7027,-2.7027,-2.7027,-2.7027,-2.7051,-2.7087,-2.7051,-2.7292,-2.7739,-2.7256,-2.7292,-2.7739,-2.7486,-2.7498,-2.7703,-2.7739,-2.7908,-2.8149,-2.8186,-2.8379,-2.8656,-2.8922,-2.9019,-2.8445,-2.7883,-2.814,-2.8243,-2.8551,-2.847,-2.8564,-2.9192,-2.8858,-2.8617,-2.8818,-2.8711,-2.8604,-2.8604,-2.9138,-2.9553,-2.9713,-2.9847,-2.9793,-2.9499,-2.9486,-2.9352,-2.8971,-2.9045,-2.8978,-2.8858,-2.8978,-2.8831,-2.8404,-2.8136,-2.8056,-2.8221,-2.8003,-2.81,-2.8221,-2.8221,-2.8154,-2.7963,-2.8136,-2.811,-2.7989,-2.8457,-2.8631,-2.8644,-2.8925,-2.9219,-2.9539,-3.0007,-3.0434,-3.0795,-3.0795,-3.0795,-3.0795,-3.0835,-3.0728,-3.0581,-3.0448,-3.0408,-3.0368,-3.0207,-3.0287,-3.0408,-3.0408,-3.0635,-3.0849,-3.0849,-3.1076,-3.1236,-3.1062,-3.1036,-3.0996,-3.0862,-3.0715,-3.0501,-3.0207,-3.0167,-3.01,-2.994,-2.9913,-2.9913,-2.9913,-2.9913,-2.9913,-2.9913,-2.9913,-2.9734,-2.9272,-2.8745,-2.8294,-2.7739,-2.7299,-2.7027,-2.7027,-2.7027,-2.7027,-2.7027,-2.7027,-2.7099,-2.7244,-2.7099,-2.7148,-2.7365,-2.7135,-2.716,-2.7365,-2.7256,-2.7353,-2.7594,-2.7594,-2.7836,-2.8186,-2.8041,-2.8149,-2.8427,-2.8693,-2.8003,-2.6644]},{"header":{"parameterUnit":"m.s-1","parameterCategory":1,"la1":30.6,"la2":28.766,"lo1":-90.7593,"lo2":-88.6598,"dy":0.0162,"dx":0.0183,"nx":116,"ny":114,"refTime":"2023-10-22T06:00:00:Z","depth":0,"parameterNumber":3,"parameterNumberName":"V-component_of_WINDS"},"data":[0.0,0.0,0.0,0.0,0.0,0.0,0.0,0.0,0.0,0.0,0.0,0.0,0.0,0.0,0.0,0.0,0.0,0.0,0.0,0.0,0.0,0.0,0.0,0.0,0.0,0.0,0.0,0.0,0.0,0.0,0.0,0.0,0.0,0.0,0.0,0.0,0.0,0.0,0.0,0.0,0.0,0.0,0.0,0.0,0.0,0.0,0.0,0.0,0.0,0.0,0.0,0.0,0.0,0.0,0.0,0.0,0.0,0.0,0.0,0.0,0.0,0.0,0.0,0.0,0.0,0.0,0.0,0.0,0.0,0.0,0.0,0.0,0.0,0.0,0.0,0.0,0.0,0.0,0.0,0.0,0.0,0.0,0.0,0.0,0.0,0.0,0.0,0.0,0.0,0.0,0.0,0.0,0.0,0.0,0.0,0.0,0.0,0.0,0.0,0.0,0.0,0.0,0.0,0.0,0.0,0.0,0.0,0.0,0.0,0.0,0.0,0.0,0.0,0.0,0.0,0.0,0.0,0.0,0.0,0.0,0.0,0.0,0.0,0.0,0.0,0.0,0.0,0.0,0.0,0.0,0.0,0.0,0.0,0.0,0.0,0.0,0.0,0.0,0.0,0.0,0.0,0.0,0.0,0.0,0.0,0.0,0.0,0.0,0.0,0.0,0.0,0.0,0.0,0.0,0.0,0.0,0.0,0.0,0.0,0.0,0.0,0.0,0.0,0.0,0.0,0.0,0.0,0.0,0.0,0.0,0.0,0.0,0.0,0.0,0.0,0.0,0.0,0.0,0.0,0.0,0.0,0.0,0.0,0.0,0.0,0.0,0.0,0.0,0.0,0.0,0.0,0.0,0.0,0.0,0.0,0.0,0.0,0.0,0.0,0.0,0.0,0.0,0.0,0.0,0.0,0.0,0.0,0.0,0.0,0.0,0.0,0.0,0.0,0.0,0.0,0.0,0.0,0.0,0.0,0.0,0.0,0.0,0.0,0.0,0.0,0.0,0.0,0.0,0.0,0.0,0.0,0.0,0.0,0.0,0.0,0.0,0.0,0.0,0.0,0.0,0.0,0.0,0.0,0.0,0.0,0.0,0.0,0.0,0.0,0.0,0.0,0.0,0.0,0.0,0.0,0.0,0.0,0.0,0.0,0.0,0.0,0.0,0.0,0.0,0.0,0.0,0.0,0.0,0.0,0.0,0.0,0.0,0.0,0.0,0.0,0.0,0.0,0.0,0.0,0.0,0.0,0.0,0.0,0.0,0.0,0.0,0.0,0.0,0.0,0.0,0.0,0.0,0.0,0.0,0.0,0.0,0.0,0.0,0.0,0.0,0.0,0.0,0.0,0.0,0.0,0.0,0.0,0.0,0.0,0.0,0.0,0.0,0.0,0.0,0.0,0.0,0.0,0.0,0.0,0.0,0.0,0.0,0.0,0.0,0.0,0.0,0.0,0.0,0.0,0.0,0.0,0.0,0.0,0.0,0.0,0.0,0.0,0.0,0.0,0.0,0.0,0.0,0.0,0.0,0.0,0.0,0.0,0.0,0.0,0.0,0.0,0.0,0.0,0.0,0.0,0.0,0.0,0.0,0.0,0.0,0.0,0.0,0.0,0.0,0.0,0.0,0.0,0.0,0.0,0.0,0.0,0.0,0.0,0.0,0.0,0.0,0.0,0.0,0.0,0.0,0.0,0.0,0.0,0.0,0.0,0.0,0.0,0.0,0.0,0.0,0.0,0.0,0.0,0.0,0.0,0.0,0.0,0.0,0.0,0.0,0.0,0.0,0.0,0.0,0.0,0.0,0.0,0.0,0.0,0.0,0.0,0.0,0.0,0.0,0.0,0.0,0.0,0.0,0.0,0.0,0.0,0.0,0.0,0.0,0.0,0.0,0.0,0.0,0.0,0.0,0.0,0.0,0.0,0.0,0.0,0.0,0.0,0.0,0.0,0.0,0.0,0.0,0.0,0.0,0.0,0.0,0.0,0.0,0.0,0.0,0.0,0.0,0.0,0.0,0.0,0.0,0.0,0.0,0.0,0.0,0.0,0.0,0.0,0.0,0.0,0.0,0.0,0.0,0.0,0.0,0.0,0.0,0.0,0.0,0.0,0.0,0.0,0.0,0.0,0.0,0.0,0.0,0.0,0.0,0.0,0.0,0.0,0.0,0.0,0.0,0.0,0.0,0.0,0.0,0.0,0.0,0.0,0.0,0.0,0.0,0.0,0.0,0.0,0.0,0.0,0.0,0.0,0.0,0.0,0.0,0.0,0.0,0.0,0.0,0.0,0.0,0.0,0.0,0.0,0.0,0.0,0.0,0.0,0.0,0.0,0.0,0.0,0.0,0.0,0.0,0.0,0.0,0.0,0.0,0.0,0.0,0.0,0.0,0.0,0.0,0.0,0.0,0.0,0.0,0.0,0.0,0.0,0.0,0.0,0.0,0.0,0.0,0.0,0.0,0.0,0.0,0.0,0.0,0.0,0.0,0.0,0.0,0.0,0.0,0.0,0.0,0.0,0.0,0.0,0.0,0.0,0.0,0.0,0.0,0.0,0.0,0.0,0.0,0.0,0.0,0.0,0.0,0.0,0.0,0.0,0.0,0.0,0.0,0.0,0.0,0.0,0.0,0.0,0.0,0.0,0.0,0.0,0.0,0.0,0.0,0.0,0.0,0.0,0.0,0.0,0.0,0.0,0.0,0.0,0.0,0.0,0.0,0.0,0.0,0.0,0.0,0.0,0.0,0.0,0.0,0.0,0.0,0.0,0.0,0.0,0.0,0.0,0.0,0.0,0.0,0.0,0.0,0.0,0.0,0.0,0.0,0.0,0.0,0.0,0.0,0.0,0.0,0.0,0.0,0.0,0.0,0.0,0.0,0.0,0.0,0.0,0.0,0.0,0.0,0.0,0.0,0.0,0.0,0.0,0.0,0.0,0.0,0.0,0.0,0.0,0.0,0.0,0.0,0.0,0.0,0.0,0.0,0.0,0.0,0.0,0.0,0.0,0.0,0.0,0.0,0.0,0.0,0.0,0.0,0.0,0.0,0.0,0.0,0.0,0.0,0.0,0.0,0.0,0.0,0.0,0.0,0.0,0.0,0.0,0.0,0.0,0.0,0.0,0.0,0.0,0.0,0.0,0.0,0.0,0.0,0.0,0.0,0.0,0.0,0.0,0.0,0.0,0.0,0.0,0.0,0.0,0.0,0.0,0.0,0.0,0.0,0.0,0.0,0.0,0.0,0.0,0.0,0.0,0.0,0.0,0.0,0.0,0.0,0.0,0.0,0.0,0.0,0.0,0.0,0.0,0.0,0.0,0.0,0.0,0.0,0.0,0.0,0.0,0.0,0.0,0.0,0.0,0.0,0.0,0.0,0.0,0.0,0.0,0.0,0.0,0.0,0.0,0.0,0.0,0.0,0.0,0.0,0.0,0.0,0.0,0.0,0.0,0.0,0.0,0.0,0.0,0.0,0.0,0.0,0.0,0.0,0.0,0.0,0.0,0.0,0.0,0.0,0.0,0.0,0.0,0.0,0.0,0.0,0.0,0.0,0.0,0.0,0.0,0.0,0.0,0.0,0.0,0.0,0.0,0.0,0.0,0.0,0.0,0.0,0.0,0.0,0.0,0.0,0.0,0.0,0.0,0.0,0.0,0.0,0.0,0.0,0.0,0.0,0.0,0.0,0.0,0.0,0.0,0.0,0.0,0.0,0.0,0.0,0.0,0.0,0.0,0.0,0.0,0.0,0.0,0.0,0.0,0.0,0.0,0.0,0.0,0.0,0.0,0.0,0.0,0.0,0.0,0.0,0.0,0.0,0.0,0.0,0.0,0.0,0.0,0.0,0.0,0.0,0.0,0.0,0.0,0.0,0.0,0.0,0.0,0.0,0.0,0.0,0.0,0.0,0.0,0.0,0.0,0.0,0.0,0.0,0.0,0.0,0.0,0.0,0.0,0.0,0.0,0.0,0.0,0.0,0.0,0.0,0.0,0.0,0.0,0.0,0.0,0.0,0.0,0.0,0.0,0.0,0.0,0.0,0.0,0.0,0.0,0.0,0.0,0.0,0.0,0.0,0.0,0.0,0.0,0.0,0.0,0.0,0.0,0.0,0.0,0.0,0.0,0.0,0.0,0.0,0.0,0.0,0.0,0.0,0.0,0.0,0.0,0.0,0.0,0.0,0.0,0.0,0.0,0.0,0.0,0.0,0.0,0.0,0.0,0.0,0.0,0.0,0.0,0.0,0.0,0.0,0.0,0.0,0.0,0.0,0.0,0.0,0.0,0.0,0.0,0.0,0.0,0.0,0.0,0.0,0.0,0.0,0.0,0.0,0.0,0.0,0.0,0.0,0.0,0.0,0.0,0.0,0.0,0.0,0.0,0.0,0.0,0.0,0.0,0.0,0.0,0.0,0.0,0.0,0.0,0.0,0.0,0.0,0.0,0.0,0.0,0.0,0.0,0.0,0.0,0.0,0.0,0.0,0.0,0.0,0.0,0.0,0.0,0.0,0.0,0.0,0.0,0.0,0.0,0.0,0.0,0.0,0.0,0.0,0.0,0.0,0.0,0.0,0.0,0.0,0.0,0.0,0.0,0.0,0.0,0.0,0.0,0.0,0.0,0.0,0.0,0.0,0.0,0.0,0.0,0.0,0.0,0.0,0.0,0.0,0.0,0.0,0.0,0.0,0.0,0.0,0.0,0.0,0.0,0.0,0.0,0.0,0.0,0.0,0.0,0.0,0.0,0.0,0.0,0.0,0.0,0.0,0.0,0.0,0.0,0.0,0.0,0.0,0.0,0.0,0.0,0.0,0.0,0.0,0.0,0.0,0.0,0.0,0.0,0.0,0.0,0.0,0.0,0.0,0.0,0.0,0.0,0.0,0.0,0.0,0.0,0.0,0.0,0.0,0.0,0.0,0.0,0.0,0.0,0.0,0.0,0.0,0.0,0.0,0.0,0.0,0.0,0.0,0.0,0.0,0.0,0.0,0.0,0.0,0.0,0.0,0.0,0.0,0.0,0.0,0.0,0.0,0.0,0.0,0.0,0.0,0.0,0.0,0.0,0.0,0.0,0.0,0.0,0.0,0.0,0.0,0.0,0.0,0.0,0.0,0.0,0.0,0.0,0.0,0.0,0.0,0.0,0.0,0.0,0.0,0.0,0.0,0.0,0.0,0.0,0.0,0.0,0.0,0.0,0.0,0.0,0.0,0.0,0.0,0.0,0.0,0.0,0.0,0.0,0.0,0.0,0.0,0.0,0.0,0.0,0.0,0.0,0.0,0.0,0.0,0.0,0.0,0.0,0.0,0.0,0.0,0.0,0.0,0.0,0.0,0.0,0.0,0.0,0.0,0.0,0.0,0.0,0.0,0.0,0.0,0.0,0.0,0.0,0.0,0.0,0.0,0.0,0.0,0.0,0.0,0.0,0.0,0.0,0.0,0.0,0.0,0.0,0.0,0.0,0.0,0.0,0.0,0.0,0.0,0.0,0.0,0.0,0.0,0.0,0.0,0.0,0.0,0.0,0.0,0.0,0.0,0.0,0.0,0.0,0.0,0.0,0.0,0.0,0.0,0.0,0.0,0.0,0.0,0.0,0.0,0.0,0.0,0.0,0.0,0.0,0.0,0.0,0.0,0.0,0.0,0.0,0.0,0.0,0.0,0.0,0.0,0.0,0.0,0.0,0.0,0.0,0.0,0.0,0.0,0.0,0.0,0.0,0.0,0.0,0.0,0.0,0.0,0.0,0.0,0.0,0.0,0.0,0.0,0.0,0.0,0.0,0.0,0.0,0.0,0.0,0.0,0.0,0.0,0.0,0.0,0.0,0.0,0.0,0.0,0.0,0.0,0.0,0.0,0.0,0.0,0.0,0.0,0.0,0.0,0.0,0.0,0.0,0.0,0.0,0.0,0.0,0.0,0.0,0.0,0.0,0.0,0.0,0.0,0.0,0.0,0.0,0.0,0.0,0.0,0.0,0.0,0.0,0.0,0.0,0.0,0.0,0.0,0.0,0.0,0.0,0.0,0.0,0.0,0.0,0.0,0.0,0.0,0.0,0.0,0.0,0.0,0.0,0.0,0.0,0.0,0.0,0.0,0.0,0.0,0.0,0.0,0.0,0.0,6.4621,0.0,0.0,0.0,0.0,0.0,0.0,0.0,0.0,0.0,0.0,0.0,0.0,0.0,0.0,0.0,0.0,0.0,0.0,0.0,0.0,0.0,0.0,0.0,0.0,0.0,0.0,0.0,0.0,0.0,0.0,0.0,0.0,0.0,0.0,0.0,0.0,0.0,0.0,5.7253,5.7322,5.7116,5.6702,5.6702,5.6081,5.5046,0.0,0.0,0.0,0.0,0.0,0.0,0.0,0.0,0.0,0.0,0.0,0.0,0.0,0.0,0.0,0.0,0.0,0.0,0.0,0.0,0.0,0.0,0.0,0.0,0.0,0.0,0.0,0.0,0.0,0.0,0.0,0.0,0.0,0.0,0.0,0.0,0.0,0.0,0.0,0.0,0.0,0.0,0.0,0.0,0.0,0.0,0.0,0.0,0.0,0.0,0.0,0.0,0.0,0.0,0.0,0.0,0.0,0.0,0.0,0.0,0.0,0.0,0.0,0.0,0.0,0.0,0.0,0.0,0.0,0.0,0.0,6.6885,0.0,0.0,0.0,0.0,0.0,0.0,0.0,0.0,0.0,0.0,0.0,0.0,0.0,0.0,0.0,0.0,0.0,0.0,0.0,0.0,0.0,0.0,0.0,5.8382,5.8656,5.9281,5.935,5.935,0.0,0.0,0.0,0.0,0.0,0.0,5.9183,5.9283,5.9214,5.8975,5.9039,5.9208,5.9521,6.0115,5.9424,5.7554,5.6491,0.0,0.0,0.0,0.0,0.0,0.0,0.0,0.0,0.0,0.0,0.0,0.0,0.0,0.0,0.0,0.0,0.0,0.0,0.0,0.0,0.0,0.0,0.0,0.0,0.0,0.0,0.0,0.0,0.0,0.0,0.0,0.0,0.0,0.0,0.0,0.0,0.0,0.0,0.0,0.0,0.0,0.0,0.0,0.0,0.0,0.0,0.0,0.0,0.0,0.0,0.0,0.0,0.0,0.0,0.0,0.0,0.0,0.0,0.0,0.0,0.0,0.0,0.0,7.7456,7.8594,7.9261,7.9253,7.894,7.8182,7.4589,7.1944,7.008,6.8646,0.0,0.0,0.0,0.0,0.0,0.0,0.0,0.0,0.0,0.0,0.0,0.0,0.0,0.0,0.0,0.0,0.0,0.0,0.0,0.0,0.0,6.0468,6.0534,6.064,6.0676,6.0676,6.0676,0.0,0.0,0.0,0.0,0.0,5.9873,6.0371,6.0083,5.8927,6.2155,6.4456,6.5914,6.5998,6.5864,6.5373,6.0009,5.8357,5.9426,0.0,0.0,0.0,0.0,0.0,0.0,0.0,0.0,0.0,0.0,0.0,0.0,0.0,0.0,0.0,0.0,0.0,0.0,0.0,0.0,0.0,0.0,0.0,0.0,0.0,0.0,0.0,0.0,0.0,0.0,0.0,0.0,0.0,0.0,0.0,0.0,0.0,0.0,0.0,0.0,0.0,6.5823,6.8614,0.0,0.0,0.0,0.0,0.0,0.0,0.0,0.0,0.0,0.0,0.0,0.0,0.0,7.4478,7.7066,7.9364,8.1007,8.186,8.3611,8.4457,8.4569,8.4599,8.4562,8.4376,8.3151,0.0,7.3717,7.3468,0.0,0.0,0.0,0.0,0.0,0.0,0.0,0.0,0.0,0.0,0.0,0.0,0.0,0.0,0.0,0.0,0.0,0.0,0.0,0.0,0.0,6.2123,6.2974,6.2974,6.4644,6.493,6.3117,6.3403,0.0,0.0,0.0,6.0796,6.0494,6.1259,6.2215,6.3452,6.7371,6.943,6.9749,7.0162,7.0344,7.0202,6.7054,6.4113,6.1392,6.0047,0.0,0.0,0.0,0.0,0.0,0.0,0.0,0.0,0.0,0.0,0.0,0.0,0.0,0.0,0.0,0.0,0.0,0.0,0.0,0.0,0.0,0.0,0.0,0.0,0.0,0.0,0.0,0.0,0.0,0.0,0.0,0.0,0.0,0.0,0.0,0.0,0.0,0.0,0.0,6.574,6.7623,6.7579,6.8294,6.7904,0.0,0.0,0.0,0.0,0.0,0.0,0.0,0.0,0.0,7.7181,7.7663,7.9257,8.2186,8.3766,8.5157,8.6357,8.7993,8.9206,8.9994,9.0114,8.9967,8.9518,8.9144,8.6536,8.2155,7.7645,7.4421,7.2061,0.0,0.0,0.0,0.0,6.7857,6.8307,0.0,0.0,0.0,0.0,0.0,0.0,0.0,0.0,0.0,0.0,0.0,0.0,6.1587,6.3919,6.5569,6.5965,6.8404,6.8872,6.6469,6.6103,6.4884,6.2414,6.1731,6.1394,6.1465,6.2928,6.5309,6.8723,7.226,7.3987,7.3877,7.4395,7.4758,7.4902,7.3723,7.0168,6.5054,6.3868,6.1707,5.8955,0.0,0.0,0.0,0.0,0.0,0.0,0.0,0.0,0.0,0.0,0.0,0.0,0.0,0.0,0.0,0.0,0.0,0.0,0.0,0.0,0.0,0.0,0.0,0.0,0.0,0.0,0.0,0.0,0.0,0.0,0.0,0.0,0.0,0.0,0.0,0.0,0.0,6.7999,6.9542,6.7993,7.0555,7.0983,0.0,0.0,0.0,0.0,0.0,0.0,7.5681,7.6042,7.8372,8.3199,8.3348,8.4919,8.818,8.8816,8.976,9.1024,9.2202,9.3213,9.4035,9.4253,9.3907,9.3116,9.289,9.1723,8.941,8.242,7.8544,7.6714,7.3916,7.244,7.1921,7.2285,7.2541,7.2861,0.0,0.0,0.0,0.0,0.0,0.0,0.0,0.0,0.0,0.0,0.0,6.13,6.3683,6.6103,6.8156,6.9696,7.0686,7.1162,7.0979,6.8156,6.6396,6.6213,6.3976,6.2803,6.2983,6.6055,6.9507,7.3362,7.5855,7.7872,7.9375,7.9446,7.9861,8.0476,7.8132,7.5333,7.1976,6.7579,6.5546,6.488,6.0386,0.0,0.0,0.0,0.0,0.0,0.0,0.0,0.0,0.0,0.0,0.0,0.0,0.0,0.0,0.0,0.0,0.0,0.0,0.0,0.0,0.0,0.0,0.0,0.0,0.0,0.0,0.0,0.0,0.0,0.0,0.0,0.0,0.0,0.0,0.0,0.0,0.0,0.0,7.3875,7.6087,0.0,0.0,0.0,0.0,7.5291,7.7711,8.0277,8.2756,8.3733,8.6145,9.037,9.0483,9.2051,9.5362,9.5437,9.5854,9.6688,9.6764,9.6449,9.5767,9.5779,9.5336,9.4438,9.3706,9.329,9.2835,8.8501,8.4355,8.0472,7.7952,7.5544,7.3477,7.3515,7.3989,7.4879,0.0,0.0,0.0,0.0,0.0,0.0,0.0,0.0,5.7128,5.8941,6.0799,6.2879,6.5375,6.9192,7.2202,7.3817,7.6166,7.6644,7.4551,7.1394,6.9376,6.8825,6.5485,6.515,6.8328,7.1034,7.4122,7.7635,8.0571,8.2296,8.2884,8.2907,8.3027,8.3283,8.2421,8.1152,7.9262,7.4106,7.0143,6.7195,6.4384,6.151,0.0,0.0,0.0,0.0,0.0,0.0,0.0,0.0,0.0,0.0,0.0,0.0,0.0,0.0,0.0,0.0,0.0,0.0,0.0,0.0,0.0,0.0,0.0,0.0,0.0,0.0,0.0,0.0,0.0,0.0,0.0,0.0,0.0,0.0,0.0,0.0,0.0,7.8534,8.1745,0.0,7.9652,8.0068,8.0832,8.1599,8.3481,8.6138,8.9721,9.0238,9.1808,9.4895,9.5009,9.578,9.7499,9.7499,9.7832,9.8459,9.8459,9.8204,9.7746,9.7417,9.6781,9.5957,9.5653,9.489,9.3846,9.2686,8.9668,8.5546,8.2807,8.1212,8.0373,8.0116,8.0242,8.0531,0.0,0.0,0.0,0.0,0.0,0.0,0.0,0.0,5.7079,5.8927,6.1557,6.4273,6.7026,7.1615,7.5285,7.7194,7.958,7.9947,7.7524,7.3817,7.1211,7.0146,6.7283,6.7724,7.2018,7.5028,7.7892,8.0608,8.3287,8.4609,8.4609,8.4609,8.4756,8.4976,8.4719,8.4496,8.4055,8.0139,7.5593,7.0806,6.8578,6.5915,6.2931,0.0,0.0,0.0,0.0,0.0,0.0,0.0,0.0,0.0,0.0,0.0,0.0,0.0,0.0,0.0,0.0,0.0,0.0,0.0,0.0,0.0,0.0,0.0,0.0,0.0,0.0,0.0,0.0,0.0,0.0,0.0,0.0,0.0,0.0,7.7965,8.1812,8.22,8.6723,8.8562,8.5457,8.6904,8.8357,8.9079,9.0682,9.2951,9.5959,9.6112,9.7004,9.8964,9.9002,9.9422,10.0223,10.0299,10.0404,10.0798,10.0492,10.0104,9.9635,9.8971,9.8232,9.7367,9.7099,9.6333,9.532,9.5099,9.3121,8.9986,8.7217,8.5933,8.5626,8.4741,8.4286,8.3978,0.0,0.0,0.0,0.0,0.0,0.0,0.0,5.5537,5.6418,5.8854,6.2071,6.5375,6.8678,7.3303,7.7194,7.9653,8.0571,8.0681,7.9837,7.5212,7.1798,7.0183,6.9449,7.0587,7.3854,7.7781,8.0645,8.2296,8.3911,8.4682,8.4682,8.4682,8.5086,8.5783,8.5013,8.5224,8.6089,8.5279,8.1644,7.6123,7.2998,7.0926,6.9216,0.0,0.0,0.0,0.0,0.0,0.0,0.0,0.0,0.0,0.0,0.0,0.0,0.0,0.0,0.0,0.0,0.0,0.0,0.0,0.0,0.0,0.0,0.0,0.0,0.0,0.0,0.0,0.0,0.0,0.0,0.0,0.0,0.0,7.6414,8.1295,8.5082,8.5263,9.0955,9.3835,9.1135,9.456,9.7159,9.7654,9.925,10.0596,10.152,10.152,10.1789,10.2712,10.2712,10.3097,10.3905,10.3905,10.3905,10.3905,10.3097,10.2212,10.1289,10.0481,9.9673,9.875,9.7904,9.7519,9.7326,9.5711,9.4518,9.3518,9.0941,8.944,8.8517,8.6824,8.5709,8.4901,0.0,0.0,0.0,0.0,0.0,0.0,0.0,5.473,5.5794,5.8817,6.2585,6.6659,7.1027,7.5322,7.8883,8.1305,8.1746,8.1269,7.9874,7.5212,7.1798,7.0183,7.1541,7.4441,7.8883,8.0094,8.2039,8.4792,8.5857,8.6334,8.6334,8.6334,8.6481,8.6664,8.6444,8.6515,8.6733,8.6648,8.5058,8.2155,7.8507,7.5343,7.2613,0.0,0.0,0.0,0.0,0.0,0.0,0.0,0.0,0.0,0.0,0.0,0.0,0.0,0.0,0.0,0.0,0.0,0.0,0.0,0.0,0.0,0.0,0.0,0.0,0.0,0.0,0.0,0.0,0.0,0.0,0.0,7.961,8.1996,8.2759,8.6902,9.0923,9.3696,9.6726,9.88,9.9229,9.9766,10.0593,10.202,10.2597,10.3789,10.579,10.529,10.5097,10.529,10.4713,10.4482,10.4789,10.4789,10.4789,10.4789,10.4482,10.3712,10.2212,10.202,10.0789,9.8788,9.8557,9.775,9.6596,9.6134,9.5788,9.5288,9.2095,9.0325,8.944,8.8363,8.7863,8.7517,0.0,0.0,0.0,0.0,0.0,0.0,0.0,5.4693,5.6051,5.9281,6.3576,6.8017,7.2496,7.635,7.9433,8.1525,8.1085,7.9837,7.7892,7.4147,7.2202,7.2606,7.4625,7.7708,8.1929,8.2994,8.4609,8.6811,8.7619,8.8023,8.8023,8.7655,8.7692,8.7986,8.7725,8.7796,8.8125,8.8032,8.7468,8.6259,8.3448,8.0511,7.7567,7.5153,7.334,7.1971,7.1083,7.1209,7.1595,7.0349,0.0,0.0,0.0,0.0,0.0,0.0,0.0,0.0,0.0,0.0,0.0,0.0,0.0,0.0,0.0,0.0,0.0,0.0,0.0,0.0,0.0,0.0,0.0,0.0,8.4631,8.7943,9.0685,9.2852,9.554,9.9192,10.1481,10.3097,10.4097,10.4097,10.4405,10.5405,10.5482,10.6097,10.7598,10.7521,10.729,10.7021,10.6482,10.5982,10.5597,10.5597,10.5597,10.5597,10.529,10.4405,10.3097,10.2789,10.1597,0.0,9.9481,9.8557,9.7326,9.6942,9.6403,0.0,0.0,0.0,0.0,0.0,8.921,8.9017,0.0,0.0,0.0,0.0,0.0,0.0,0.0,5.4876,5.6528,5.9942,6.4494,6.8972,7.312,7.6497,7.9066,8.0608,7.9433,7.7635,7.5322,7.301,7.3156,7.6387,7.8112,8.0498,8.3765,8.6004,8.7509,8.8206,8.9014,8.9344,8.9124,8.861,8.8683,8.9306,8.8819,8.9035,8.9661,8.9407,8.9103,8.8745,8.7661,8.5615,8.2941,8.074,7.9813,7.9331,7.6329,7.4957,7.4465,7.3383,0.0,0.0,0.0,0.0,0.0,0.0,0.0,0.0,0.0,0.0,0.0,0.0,0.0,0.0,0.0,0.0,0.0,0.0,0.0,0.0,0.0,0.0,0.0,0.0,9.0395,9.4326,9.875,9.8788,9.9481,10.252,10.4905,10.6405,10.6713,10.729,10.779,10.7982,10.7982,10.8098,10.829,0.0,0.0,0.0,0.0,10.7405,10.6597,10.6521,10.6521,10.6405,10.5597,10.4789,10.3982,10.3212,10.2289,10.1289,10.0404,9.9558,9.8596,9.7711,9.6442,9.4903,9.4018,9.3633,9.3287,9.1018,9.0133,8.9825,0.0,0.0,0.0,0.0,0.0,0.0,0.0,5.3555,5.528,5.9832,6.3539,6.754,7.2239,7.5616,7.7965,7.8993,7.8772,7.8112,7.6907,7.5182,7.5652,7.8919,8.0645,8.2994,8.6224,8.7399,8.8059,8.8206,8.9014,8.8827,8.7715,8.8717,8.8974,8.8706,8.9219,8.9551,8.9769,9.0661,9.0206,8.9021,8.9548,8.7841,8.4793,8.3796,8.3002,8.2296,8.0997,8.1665,8.2668,7.9242,7.8388,7.8202,7.4747,7.2629,0.0,0.0,0.0,0.0,0.0,0.0,0.0,0.0,0.0,0.0,0.0,0.0,0.0,0.0,0.0,0.0,0.0,0.0,0.0,8.9433,9.2674,9.648,10.2097,10.3289,10.3905,10.4482,10.5097,10.6213,10.8213,10.7982,10.829,10.9598,10.9713,11.0291,11.1714,11.0598,11.0214,11.0714,10.9406,10.829,10.7482,10.7405,10.7098,10.6405,0.0,0.0,10.4905,10.4713,10.3405,10.1289,10.0404,9.9211,9.7673,9.6865,9.5942,9.4903,9.4018,9.3287,9.2672,9.2172,9.1556,9.0787,0.0,0.0,0.0,0.0,0.0,0.0,0.0,5.3368,5.5097,5.8731,6.2034,6.5448,6.9119,7.1651,7.312,7.312,7.3156,7.3634,7.4845,7.5285,7.7341,8.1415,8.3141,8.5306,8.8169,8.9014,8.9601,9.0005,9.0516,9.0366,8.9698,9.0103,9.0322,9.0426,9.0566,9.0787,9.1087,9.1461,9.0823,8.9609,8.984,8.8647,8.6697,8.6382,8.5706,8.5,8.5038,8.5298,8.5298,8.3217,8.2549,8.1954,7.8685,7.7087,7.5639,0.0,0.0,0.0,0.0,0.0,0.0,0.0,0.0,0.0,0.0,0.0,0.0,0.0,0.0,7.9239,8.1559,0.0,8.8687,9.3577,9.6865,10.0289,10.4597,10.5905,10.6405,10.6405,10.7098,10.8175,10.9406,10.9213,10.929,11.0098,11.0214,11.0791,11.2022,11.1714,11.1483,11.1522,11.1021,11.0021,10.829,10.8713,10.829,10.7098,10.7098,10.6405,10.5097,10.4713,10.3597,10.1904,10.0596,9.9365,9.8057,9.6826,9.6057,9.5595,9.5172,9.421,9.3095,9.3095,9.2556,9.1748,0.0,0.0,0.0,0.0,0.0,0.0,0.0,5.333,5.495,5.7666,6.0529,6.3282,6.5742,6.732,6.8017,6.7504,6.7907,6.9596,7.2973,7.5469,7.8846,8.3434,8.5306,8.7252,8.9345,9.0335,9.1069,9.1583,9.1875,9.1909,9.1613,9.1387,9.1602,9.2151,9.1842,9.199,9.2442,9.2113,9.14,9.0453,8.9766,8.905,8.8307,8.7973,8.7601,8.7341,8.7712,8.6858,8.5558,8.5409,8.4815,8.3812,8.1806,8.1174,8.0134,7.4736,7.3844,0.0,0.0,0.0,0.0,0.0,0.0,0.0,0.0,7.5135,7.6865,7.8854,8.1131,8.3747,8.6786,9.0017,9.3518,9.7596,10.0789,10.3712,10.629,10.7405,10.7982,10.8213,10.9213,11.0098,11.0406,11.0483,11.0483,11.0483,11.0791,11.1214,11.1906,11.2406,11.2599,11.2214,11.2522,11.1598,10.9406,11.0098,10.9483,10.7713,10.7713,10.6905,10.529,10.4482,10.3712,10.2712,10.0712,9.9327,9.8442,9.6903,9.6288,9.6288,9.6288,9.5441,9.4172,9.4018,9.3441,9.2633,0.0,0.0,0.0,0.0,0.0,0.0,0.0,0.0,5.3931,5.7547,5.9575,6.1594,6.409,6.5191,6.5962,6.6586,6.8568,7.1505,7.5432,7.8002,8.0901,8.4315,8.6701,8.839,8.9345,9.0886,9.1363,9.0739,9.1473,9.1177,8.9993,9.1176,9.1577,9.1375,9.2001,9.2439,9.2684,9.281,9.2356,9.1469,9.0685,8.9867,8.9013,8.7527,8.7824,8.8827,8.7452,8.6375,8.5483,8.4778,8.3997,8.3292,8.2994,8.292,8.2066,7.7821,7.5601,7.3818,7.0363,7.0028,7.1195,7.3319,7.4983,7.7152,0.0,8.3006,8.4214,8.594,8.7671,8.9517,9.1441,9.3941,9.6865,10.0289,10.252,10.4597,10.7213,10.829,10.9098,10.979,10.9406,10.9713,11.1214,11.1406,11.1406,11.1406,11.2714,11.3599,11.3714,11.3099,11.3407,11.4791,11.3483,11.2214,11.1214,11.1291,11.0098,10.7713,10.7713,10.7213,10.6213,10.5405,10.4482,10.3597,10.0289,9.8442,9.7596,9.6673,9.6288,9.6288,9.6288,9.6172,9.5903,9.5134,9.4287,9.3557,0.0,0.0,0.0,0.0,0.0,0.0,0.0,0.0,0.0,5.4712,5.6261,5.7522,5.8567,5.8822,5.9465,6.075,6.4383,6.8311,7.2349,7.7121,8.1452,8.5123,8.7142,8.8793,9.0078,9.1216,9.1657,9.1289,9.1728,9.1689,9.1097,9.1832,9.1827,9.1191,9.156,9.1811,9.2017,9.2117,9.1961,9.165,9.0833,9.0016,8.905,8.6932,8.6524,8.6932,8.5298,8.4183,0.0,8.2511,8.2363,8.24,8.1917,8.1731,8.1025,7.7385,7.6196,7.5984,7.56,7.4988,7.5276,7.879,8.057,8.2216,8.5154,8.6478,8.7709,8.9902,9.171,9.3403,9.5095,9.748,9.9827,10.1712,10.4289,10.6597,10.8213,10.9598,11.0214,10.9483,11.0021,11.0906,11.2099,11.2214,11.2406,11.2906,11.3099,11.3714,11.4714,11.4407,11.4484,11.5291,11.4984,11.4291,11.2983,11.2983,11.1906,10.9906,10.8906,10.7982,10.7098,10.5213,10.3097,10.0904,9.9404,9.8057,9.6788,9.6442,9.6288,9.6288,9.6288,9.6288,9.6249,9.5903,9.5211,9.4441,0.0,0.0,0.0,0.0,0.0,0.0,0.0,0.0,0.0,0.0,5.3623,5.4279,5.446,5.4647,5.5207,5.6381,6.0529,6.4897,6.9155,7.5285,8.0681,8.4939,8.7105,8.894,9.0555,9.14,9.1803,9.1803,9.1948,9.202,9.202,9.2162,9.1938,9.1454,9.1489,9.1626,9.1832,9.1898,9.1849,9.165,9.0833,8.9756,8.8344,8.5892,8.4369,8.344,8.2251,8.1174,8.0134,7.9056,7.9094,7.9576,7.9391,7.9502,7.9168,7.6567,7.5936,7.6461,7.8217,7.85,7.9223,8.3022,8.5324,8.6978,8.8171,8.9671,9.1325,9.3172,9.4864,9.648,9.7942,10.0096,10.1904,10.2789,10.5405,10.7598,10.8482,10.9406,10.9713,10.8713,10.9521,11.0521,11.1598,11.2522,11.3291,11.3984,11.3791,11.4214,11.5215,11.5291,11.5407,11.5599,11.5984,11.5484,11.3984,11.3984,11.2906,11.0791,10.9483,10.8406,10.729,10.4982,10.2289,9.9442,9.8981,9.8096,9.6942,9.648,9.6288,9.6288,9.6288,9.6288,9.6288,9.6288,9.5903,9.5365,0.0,0.0,0.0,0.0,0.0,0.0,0.0,0.0,0.0,0.0,0.0,0.0,0.0,5.4793,5.5574,5.5633,5.8621,6.2585,6.743,7.3083,7.8369,8.3287,8.6518,8.894,9.0555,9.14,9.1803,9.1803,9.1803,9.1803,9.1803,9.184,9.1912,9.209,9.2303,9.2476,9.268,9.2885,9.2468,9.165,9.0833,8.905,8.6598,8.4183,8.1285,7.8499,7.8462,7.7385,7.575,7.4179,7.3658,7.3956,7.5453,7.653,7.7013,7.6084,7.471,7.3889,7.5653,7.8466,8.1545,8.4195,8.7979,9.1018,9.1056,9.3672,9.6095,9.6172,9.7519,9.8942,9.9865,10.1404,10.2789,10.3712,10.529,10.6713,10.7598,10.7098,10.679,10.7598,10.7021,10.7213,0.0,11.1983,11.3984,11.3984,11.5484,11.6099,11.5291,11.5291,11.5676,11.6407,11.5676,11.4907,11.3984,11.3984,11.2291,10.8983,10.8906,10.8021,10.6405,10.4713,10.2904,10.1096,9.9519,9.875,9.8596,9.698,9.6288,9.6288,9.6288,9.6288,9.6288,9.6288,9.6288,9.6249,0.0,0.0,0.0,0.0,0.0,0.0,0.0,0.0,0.0,0.0,0.0,0.0,0.0,0.0,0.0,0.0,5.6721,6.0028,6.4174,7.0257,7.5395,7.9181,8.4022,8.7105,8.8206,8.9528,9.0225,9.0225,9.0225,9.0482,9.0996,9.0482,9.0626,9.1281,9.0799,9.108,9.1869,9.1416,9.1404,9.1502,8.9013,8.7564,8.6375,8.2288,7.9391,7.705,0.0,7.2221,7.1515,6.9917,6.9694,7.0326,7.1403,7.1961,7.2146,7.1849,7.2758,7.4437,7.6992,8.0385,8.4155,8.8106,9.0979,9.3287,9.498,9.6288,9.725,9.7827,9.7519,9.725,9.7519,9.8481,9.9673,10.1096,10.3712,10.5982,10.7482,10.8906,10.8598,10.5482,10.7405,0.0,0.0,0.0,0.0,11.3791,11.3984,11.4599,11.5984,11.6099,11.6176,11.6484,11.6176,11.5984,11.5676,11.4599,11.3407,11.2291,10.9983,10.7405,10.4713,10.4212,10.2712,10.0404,9.9288,9.8481,9.7865,9.6749,9.6288,9.6288,9.6288,9.6288,9.6288,9.6288,9.6288,9.6288,0.0,0.0,0.0,0.0,0.0,0.0,0.0,0.0,0.0,0.0,0.0,0.0,0.0,0.0,0.0,0.0,0.0,5.725,6.0966,6.5979,7.0564,7.4522,7.8772,8.1562,8.2663,8.3691,8.4502,8.5052,8.5416,8.6261,8.7582,8.7362,8.7762,8.8637,8.8483,8.8874,8.9617,8.9169,8.9002,8.8827,8.5818,8.3737,8.2028,7.8313,7.5341,0.0,6.9583,6.8036,6.7367,6.6351,6.6722,6.7725,6.8221,6.9001,6.9793,7.0273,7.2773,7.6203,7.9654,8.3713,8.7964,9.2023,9.4287,9.5942,9.7596,9.7942,9.8057,9.8288,9.698,9.5749,9.5441,9.5557,9.6288,9.798,10.0289,10.3097,10.629,10.7405,10.729,10.5905,10.6982,10.7098,0.0,0.0,0.0,11.2291,11.3291,11.4214,11.5484,11.5907,11.6176,11.6484,11.6176,11.5907,11.5599,11.4484,11.3407,11.2099,10.8983,10.629,10.3905,10.3289,10.1904,9.9981,9.8865,9.8019,9.7442,9.6634,9.6288,9.6288,9.6288,9.6288,9.6288,9.6288,9.6288,9.6288,0.0,0.0,0.0,0.0,0.0,0.0,0.0,0.0,0.0,0.0,0.0,0.0,0.0,0.0,0.0,0.0,0.0,0.0,5.7876,6.0392,6.4112,6.9394,7.1329,7.3017,7.4625,7.4735,7.5542,7.7053,7.7892,7.947,8.1782,8.2517,8.3287,8.4165,8.5066,8.5595,8.5757,8.5879,8.5176,8.3663,8.1211,7.7868,7.4227,7.2581,6.9509,6.6091,6.6054,6.4976,6.3602,6.3653,6.4828,6.6239,6.6277,6.7911,7.0139,7.1441,7.4824,7.9078,8.335,8.8154,9.2656,9.5636,9.7596,9.8788,9.8788,9.875,9.8442,9.7442,9.5865,9.4364,9.3364,9.271,9.2864,9.4634,9.5865,9.8596,10.4405,10.3289,10.3577,10.829,10.6213,10.4905,10.629,10.5097,0.0,10.9906,0.0,11.4791,11.4099,11.4907,11.5676,11.6484,11.5676,11.4907,11.4099,11.3907,11.2214,10.879,10.629,10.4713,10.3789,10.2097,10.0904,9.9981,9.8288,9.7557,9.7442,9.6634,9.6288,9.6288,9.6288,9.6288,9.6288,9.6288,9.6288,9.6288,0.0,0.0,0.0,0.0,0.0,0.0,0.0,0.0,0.0,0.0,0.0,0.0,0.0,0.0,0.0,0.0,0.0,0.0,5.4082,5.7056,6.0052,6.3056,6.7053,6.985,7.1284,7.2496,7.3303,7.3744,7.3964,7.4661,7.5836,7.5469,7.6116,7.759,7.7245,7.757,7.8385,7.7783,7.7348,7.6865,7.4413,7.2752,7.1626,6.9397,6.754,6.6017,6.5385,6.447,6.3713,6.4285,6.5993,6.7986,6.8593,7.0321,7.2505,7.4694,7.8355,8.2489,8.6144,9.057,9.4657,9.6692,9.8019,9.8788,9.8788,9.8288,9.7057,9.4326,9.1941,8.944,8.6671,8.8094,9.0633,9.3557,9.7403,10.1712,10.6405,10.8014,10.8607,10.8077,10.9397,10.9491,10.7598,10.8713,0.0,0.0,11.0983,11.2483,11.4791,11.5715,11.6292,11.6484,11.5676,11.5176,11.4984,11.3099,11.0714,10.7982,10.6713,10.529,10.3905,10.2789,10.1481,9.9981,9.8942,9.8096,9.7442,9.6634,9.6288,9.6288,9.6288,9.6288,9.6288,9.6288,9.6288,9.6288,0.0,0.0,0.0,0.0,0.0,0.0,0.0,0.0,0.0,0.0,0.0,0.0,0.0,0.0,0.0,0.0,0.0,0.0,0.0,5.4153,5.5946,5.7726,6.0476,6.2386,6.3341,6.4646,6.553,6.6145,6.6843,6.7797,6.8898,6.8862,6.9541,7.0836,7.0754,7.1296,7.2213,7.14,7.1357,0.0,0.0,6.7417,6.6959,6.5274,6.4345,6.3936,6.3825,6.4605,6.5942,6.707,6.8914,7.0846,7.1998,7.3715,7.5819,7.8789,8.2396,8.6174,8.9631,9.3812,9.7442,9.8404,9.9019,9.8981,9.748,9.6172,9.4134,9.0017,8.7401,8.5093,8.2369,8.4385,8.744,9.0388,9.4829,9.9903,10.5707,10.7291,10.8383,10.9705,11.0814,11.0715,10.8898,11.0115,11.0885,0.0,11.1808,11.3099,11.4599,11.5484,11.6099,11.6484,11.5676,11.5099,11.4714,11.1791,10.9483,10.7713,10.6097,10.4597,10.3289,10.2097,10.0789,9.9481,0.0,9.775,9.6942,9.648,9.6288,9.6288,9.6288,9.6288,9.6288,9.6288,9.6288,9.6288,0.0,0.0,0.0,0.0,0.0,0.0,0.0,0.0,0.0,0.0,0.0,0.0,0.0,0.0,0.0,0.0,0.0,0.0,0.0,0.0,5.2322,5.369,5.3716,5.4046,5.4677,5.545,5.6406,5.7574,5.9038,6.0493,6.1887,6.2622,6.3319,6.4053,6.4751,6.5515,6.6257,6.5557,6.5866,6.6605,6.3739,6.2324,6.1834,0.0,6.1001,6.1336,6.2227,6.4976,6.8506,7.0412,7.2406,7.4301,7.5936,7.77,7.9871,8.3346,8.6624,8.9847,9.3313,9.7135,10.0096,10.0212,10.0096,9.9019,9.5595,9.3364,9.0517,8.5308,8.2808,8.11,7.9329,8.1222,8.4044,8.7145,9.1009,9.6366,10.4181,10.4709,10.6413,11.1822,11.14,11.0593,11.0517,11.0682,11.1089,11.1707,11.3988,11.5,11.4214,11.4907,11.5484,11.5984,11.5407,11.4484,11.3291,11.0406,10.8406,10.729,10.5097,10.3482,10.2597,10.1096,9.9827,9.875,9.8019,0.0,9.6288,9.6288,9.6288,9.6288,9.6288,9.6288,9.6288,9.6288,9.6288,9.6288,0.0,0.0,0.0,0.0,0.0,0.0,0.0,0.0,0.0,0.0,5.1183,0.0,0.0,0.0,0.0,0.0,0.0,0.0,0.0,0.0,0.0,5.2294,5.2357,5.291,5.4092,5.4699,5.5112,5.5389,5.609,5.6565,5.6859,5.7005,5.7152,5.7299,5.7409,5.7647,5.7906,5.7759,5.8231,5.9065,5.8582,5.8699,5.9165,5.9139,0.0,0.0,6.2859,6.4753,6.7094,7.0735,7.4413,7.7719,7.9316,8.1736,8.4577,8.7947,9.0448,9.2859,9.6238,9.8587,10.0289,10.0904,10.0096,9.8134,9.4711,9.1556,8.7692,8.182,7.923,7.7485,7.574,7.8042,8.2237,8.8357,9.2239,9.7419,10.5909,10.8008,10.9612,11.199,11.3318,11.3817,11.3011,11.3587,0.0,0.0,11.5313,11.5701,11.5099,11.5215,11.4714,11.3407,11.3907,11.2791,10.979,10.9213,10.779,10.5482,10.5097,10.4097,10.2597,10.2289,10.0904,9.8788,9.8634,0.0,9.6288,9.6288,9.6288,9.6288,9.6288,9.6288,9.6288,9.6288,9.6288,9.6288,0.0,0.0,0.0,0.0,0.0,0.0,0.0,0.0,0.0,0.0,5.3425,5.3149,0.0,0.0,0.0,0.0,0.0,0.0,0.0,0.0,0.0,5.092,5.0983,5.1402,5.2316,5.2996,5.3253,5.3109,0.0,5.4047,5.3936,5.3936,5.4085,5.4363,5.4363,5.4626,5.5037,5.4632,5.5211,5.6482,5.6509,5.7032,5.7888,0.0,0.0,0.0,6.3527,6.5571,6.7725,7.0103,7.419,7.8722,8.1211,8.4166,8.7217,8.992,9.2,9.4136,9.7638,9.9447,10.0506,10.1114,9.9365,9.6249,9.1479,8.7769,8.349,7.7063,7.538,7.4666,7.3345,7.6596,8.0711,8.4471,8.8941,9.4518,10.1707,10.4798,10.7509,11.0491,11.2407,11.3211,11.2292,11.3375,11.4205,11.4093,11.4985,11.539,11.511,11.4687,11.3996,11.3189,11.269,11.1883,11.0693,10.9008,10.7322,10.5707,10.5308,10.3982,10.1904,10.2404,10.1212,9.8788,9.8788,0.0,9.6288,9.6232,9.6232,9.6288,9.6232,9.6232,9.6288,9.6288,9.6288,9.6288,0.0,0.0,0.0,0.0,0.0,0.0,0.0,5.0666,5.1666,5.5046,5.5839,5.5736,5.4701,5.377,0.0,0.0,0.0,0.0,0.0,0.0,0.0,0.0,0.0,0.0,5.062,0.0,0.0,5.1647,5.2228,0.0,0.0,0.0,0.0,0.0,5.3308,5.3702,5.4106,5.3482,5.4185,0.0,0.0,5.6439,0.0,0.0,0.0,0.0,0.0,6.5645,6.7688,6.9187,7.2852,7.7236,8.0357,8.4332,8.8245,9.0288,9.2388,9.4773,9.7972,9.9637,10.0604,10.0798,9.8289,9.4249,8.8423,8.4143,7.9675,7.356,7.2617,7.2716,7.2019,7.5293,7.8654,8.0272,8.4672,9.0202,9.7074,10.091,10.4497,10.8815,11.0982,11.1811,11.0881,11.2281,0.0,11.31,11.3775,11.4295,11.4306,11.3692,11.3218,11.2796,11.1492,11.0993,11.12,10.8706,10.689,10.57,10.5326,10.3789,10.1289,10.2192,10.1211,9.875,9.8731,0.0,0.0,9.6098,9.6117,9.6213,9.6098,9.6117,9.6232,9.6251,9.6251,9.6251,0.0,0.0,0.0,0.0,0.0,0.0,0.0,5.1183,5.3566,5.8012,5.8081,5.7909,5.8426,5.7219,0.0,0.0,0.0,0.0,0.0,0.0,0.0,0.0,0.0,0.0,0.0,0.0,0.0,5.1876,5.1773,0.0,0.0,0.0,0.0,0.0,0.0,5.3922,5.3314,5.3203,0.0,0.0,0.0,0.0,0.0,0.0,0.0,0.0,0.0,6.3267,6.4619,6.8407,7.0524,7.2009,7.4598,8.0691,8.723,8.8995,9.2105,9.5359,9.714,9.9043,10.0321,9.958,9.6649,9.2577,8.7316,8.2287,7.7668,7.3789,7.2454,7.2019,7.2187,7.2978,7.5007,7.9379,8.1422,8.5953,9.5734,10.012,10.3711,10.7812,11.0588,11.1799,11.0793,11.1596,11.2092,11.2092,11.2207,11.2296,11.2503,11.2503,11.1775,11.0203,10.9973,10.9206,10.781,10.7615,10.6314,10.3894,10.471,10.3789,10.1308,10.2112,10.0996,9.8594,9.8552,0.0,0.0,9.592,9.592,9.5941,9.592,9.592,9.5941,9.6078,9.6117,9.6117,0.0,0.0,0.0,0.0,0.0,0.0,0.0,5.0361,5.2119,5.7633,5.7702,5.7529,5.8254,5.7805,5.6564,0.0,0.0,0.0,0.0,0.0,0.0,0.0,0.0,0.0,0.0,0.0,5.1118,5.1431,5.1765,0.0,0.0,0.0,0.0,0.0,0.0,5.3638,5.3203,5.3203,0.0,0.0,0.0,0.0,0.0,0.0,0.0,0.0,0.0,0.0,6.4508,6.5622,6.7492,6.9335,6.9447,7.3639,7.9443,8.4228,8.8114,9.1738,9.5728,9.8053,9.9379,9.9217,9.5359,9.0393,8.5877,8.0608,7.5633,7.1943,7.1248,7.1216,7.0839,7.15,7.2826,7.5015,7.6596,8.0161,8.7539,9.1518,9.6353,10.3584,10.6193,10.8626,11.1188,0.0,11.1799,11.1302,11.1188,11.0818,10.9886,11.0307,11.0077,10.8916,10.7921,10.7208,10.7117,10.5702,10.4505,10.3509,10.3886,10.3105,10.1088,10.2006,10.091,9.8531,9.849,0.0,0.0,9.5877,9.5839,9.59,9.59,9.5941,9.6058,9.6155,9.6232,9.6232,0.0,0.0,0.0,0.0,0.0,0.0,4.9907,4.9878,5.1528,5.715,5.746,5.7426,5.8185,5.784,5.684,5.5012,0.0,0.0,0.0,0.0,0.0,0.0,0.0,0.0,0.0,0.0,5.1218,5.1459,5.1946,5.2532,0.0,0.0,5.3308,5.3279,0.0,0.0,0.0,0.0,0.0,0.0,0.0,0.0,0.0,0.0,0.0,0.0,0.0,0.0,0.0,0.0,0.0,6.7407,6.6415,6.826,7.2166,7.9,8.3819,8.7997,9.2822,9.5862,9.7613,9.7461,9.3283,8.8219,8.4246,7.9093,7.4351,7.156,7.1253,7.134,7.0793,7.111,7.1673,7.2133,7.3464,7.6324,8.1769,8.5418,9.0383,9.8125,10.049,10.3615,10.8895,11.05,11.0882,11.0003,11.0003,10.9201,10.7596,10.8207,10.8398,10.7787,10.622,10.5609,10.6182,10.4276,10.3198,10.2892,10.3103,10.2189,10.0617,10.1187,10.019,9.8044,9.804,0.0,0.0,9.5751,9.5772,9.5818,9.5839,9.5938,9.6019,9.6194,9.6251,9.6251,0.0,0.0,0.0,0.0,0.0,0.0,0.0,5.0085,5.2735,5.7322,5.7909,5.8185,5.8978,5.7736,5.6495,5.5667,0.0,0.0,0.0,0.0,0.0,0.0,0.0,0.0,0.0,0.0,5.1429,5.2188,5.2188,5.2632,5.3422,5.3917,5.3674,5.2753,0.0,0.0,0.0,0.0,0.0,0.0,0.0,0.0,0.0,0.0,0.0,0.0,0.0,0.0,0.0,0.0,0.0,0.0,0.0,6.5962,6.7111,7.3914,7.9863,8.4935,8.8196,9.2026,9.4857,9.3587,9.0107,8.6074,8.2446,7.7739,7.3964,7.3563,7.3043,7.271,7.2756,7.2079,7.1597,7.195,7.2845,7.5376,8.0755,8.4098,8.7587,9.1884,9.3858,9.7096,10.272,10.6985,10.9124,10.8284,10.8207,0.0,10.58,10.6488,10.6908,10.6908,10.5303,10.4386,10.4386,10.3703,10.2892,10.2088,10.22,10.1307,9.9735,9.9666,9.8665,0.0,0.0,0.0,0.0,9.5598,9.5598,9.5621,9.5768,9.581,9.5832,9.6019,9.6098,9.6117,0.0,0.0,0.0,0.0,0.0,0.0,0.0,4.8465,5.0016,5.3563,5.4494,5.5322,5.6564,5.6288,5.5908,5.5632,0.0,0.0,0.0,0.0,0.0,0.0,0.0,0.0,0.0,0.0,5.2528,5.2188,5.3287,5.3908,5.4149,5.4333,5.4402,5.4358,5.4792,5.4906,0.0,0.0,0.0,0.0,0.0,0.0,6.0129,0.0,0.0,0.0,0.0,0.0,0.0,0.0,0.0,0.0,0.0,0.0,0.0,6.8553,7.3747,7.8898,8.2153,8.6035,8.876,8.7067,8.4703,8.2024,7.9215,7.5778,7.286,7.1841,7.1973,7.2075,7.154,7.0944,7.1246,7.3346,7.3504,7.4765,7.8791,8.2687,8.7262,9.3046,10.0299,10.5307,0.0,0.0,10.8207,10.7405,10.729,10.6603,10.4921,10.5112,10.4883,10.4386,10.389,10.3317,10.2705,10.13,10.052,10.0214,9.9664,9.9112,9.8615,9.857,9.7974,0.0,0.0,0.0,0.0,9.5598,9.5598,9.5621,9.5768,9.581,9.5832,9.6019,9.6098,9.6117,0.0,0.0,0.0,0.0,0.0,0.0,0.0,4.7527,4.8568,5.105,5.2287,5.3529,5.5046,5.5184,5.5322,5.5598,0.0,0.0,0.0,0.0,0.0,0.0,0.0,0.0,5.0424,5.208,5.3011,5.308,5.4322,5.4943,5.4943,5.5219,5.5127,5.478,5.5284,5.5425,0.0,0.0,0.0,0.0,0.0,0.0,6.0424,0.0,0.0,0.0,0.0,0.0,0.0,0.0,0.0,0.0,0.0,0.0,0.0,0.0,6.9036,7.2945,7.7171,8.1145,8.3886,8.2853,8.1071,7.9166,7.7599,7.4837,7.2459,7.1849,7.2002,7.2108,7.1798,7.1082,7.114,7.3,7.3201,7.4112,7.702,8.1074,8.61,9.2391,10.0815,10.58,0.0,10.6603,10.7405,10.6488,10.6106,10.538,10.4004,10.389,10.3393,10.2285,10.2514,10.2285,10.1406,10.0107,9.9228,9.8884,9.8349,9.7967,9.7662,9.7662,9.7203,0.0,0.0,0.0,0.0,9.5598,9.5598,9.5621,9.5768,9.581,9.5832,9.5979,9.6,9.6058,0.0,0.0,0.0,0.0,0.0,0.0,0.0,0.0,0.0,0.0,5.1183,5.2701,5.4184,5.4425,0.0,0.0,0.0,0.0,0.0,0.0,0.0,0.0,0.0,0.0,5.1183,5.1977,5.308,5.4494,5.5322,5.5701,5.5701,5.6495,5.5987,5.4425,5.5695,5.5757,0.0,0.0,0.0,0.0,5.84,5.8722,0.0,0.0,0.0,0.0,0.0,0.0,0.0,0.0,0.0,0.0,0.0,0.0,0.0,0.0,0.0,0.0,0.0,7.7113,7.9829,8.0079,7.8707,7.7179,7.6857,7.4478,0.0,7.2955,7.2706,7.2556,7.3066,7.2088,7.1321,7.1513,7.2235,7.3535,7.5701,7.9962,8.5007,9.0835,9.7024,10.0389,9.9526,10.3789,10.6297,10.5609,10.4807,10.4004,10.3202,10.3087,10.2285,10.0604,10.1292,10.1292,10.0489,9.9649,9.8808,9.8006,9.7967,9.7547,9.6821,9.6821,9.6363,0.0,0.0,0.0,0.0,9.5675,9.5675,9.5697,9.5746,9.5789,9.5772,9.5821,9.5785,9.5805,0.0,0.0,0.0,0.0,0.0,0.0,0.0,0.0,0.0,0.0,0.0,5.1735,5.2636,5.3804,0.0,0.0,0.0,0.0,0.0,0.0,0.0,0.0,0.0,0.0,5.1912,5.3287,5.4149,5.4494,5.5874,5.6529,5.6529,5.7288,5.7059,5.5999,5.6787,5.7143,0.0,0.0,0.0,0.0,5.9221,5.9499,0.0,0.0,0.0,0.0,6.154,6.2288,0.0,0.0,0.0,0.0,0.0,0.0,0.0,0.0,6.5474,6.6145,6.8733,0.0,7.3934,7.2194,7.2708,7.3361,0.0,7.1211,7.0716,7.0818,7.1222,7.1606,7.1747,7.1001,7.1211,7.367,7.3202,7.3855,7.7629,8.4749,9.1301,9.6173,10.0226,10.1797,9.9859,10.2396,10.4004,10.3813,10.3584,10.3087,10.2285,10.2209,10.1406,9.9725,9.9878,9.9878,9.9687,9.8235,9.7394,9.7165,9.6515,9.6095,9.5904,9.5904,9.5789,0.0,0.0,0.0,9.5637,9.6324,9.6592,9.6515,9.591,9.5643,9.5588,9.5045,9.4819,9.4763,0.0,0.0,0.0,0.0,0.0,0.0,0.0,0.0,0.0,0.0,0.0,0.0,0.0,0.0,0.0,0.0,0.0,0.0,0.0,0.0,0.0,0.0,0.0,5.236,5.2735,5.3563,5.4529,5.5563,5.6012,5.6598,5.7322,5.7702,5.7244,5.6098,5.6637,5.7319,0.0,0.0,0.0,0.0,5.9134,0.0,0.0,0.0,0.0,0.0,6.0746,6.1445,0.0,6.2708,6.2928,6.2978,0.0,0.0,0.0,0.0,6.5301,6.5668,6.7247,6.9486,7.1174,7.0257,7.0991,7.1835,7.1321,7.0624,7.0183,7.0587,7.0991,7.1403,7.1798,7.1987,7.2503,7.3626,7.4623,7.6843,8.1503,8.7268,9.2733,9.74,10.0101,10.1484,0.0,10.2484,10.3202,10.3202,10.2782,10.24,10.1903,10.1521,10.0909,9.9992,9.919,9.8617,9.8273,9.7738,9.728,9.6898,9.6401,9.621,9.6172,9.5789,9.5598,0.0,0.0,0.0,9.621,9.6286,9.6554,9.6821,9.5942,9.5598,9.5544,9.5129,9.4768,9.4407,0.0,0.0,0.0,0.0,0.0,0.0,0.0,0.0,0.0,0.0,0.0,0.0,0.0,0.0,0.0,0.0,0.0,0.0,0.0,0.0,0.0,0.0,5.2839,5.277,5.3563,5.3563,5.4563,5.6633,5.6288,5.6805,5.8081,5.8323,5.756,5.6053,5.6447,5.7123,0.0,0.0,0.0,0.0,5.8584,0.0,0.0,0.0,0.0,0.0,0.0,0.0,0.0,6.1374,6.1961,6.2622,6.2622,0.0,0.0,0.0,0.0,0.0,6.7247,6.8972,7.0367,7.0697,7.0954,7.1248,7.1688,7.0697,6.9926,7.0624,7.0954,7.1386,7.2279,7.3517,7.4098,7.3312,7.6556,8.099,8.6251,8.9098,9.2247,9.6609,9.8648,0.0,10.2004,10.2484,10.2724,10.2724,10.2012,10.1592,10.1592,10.0786,10.0413,10.0222,9.8732,9.7547,9.6706,9.7509,9.7585,9.6898,9.6898,9.6821,9.6668,9.5828,9.5407,9.5407,0.0,0.0,9.663,9.5904,9.6095,9.6821,9.5942,9.5598,9.556,9.5293,9.4796,9.4206,0.0,0.0,0.0,0.0,0.0,0.0,0.0,0.0,0.0,0.0,0.0,0.0,0.0,0.0,0.0,0.0,0.0,0.0,0.0,0.0,0.0,5.4356,5.3632,5.3563,5.4322,5.4356,5.4805,5.5805,5.7633,5.8668,5.8944,6.0185,5.9793,5.8065,5.8035,5.7994,5.7997,0.0,0.0,5.9294,5.8364,0.0,0.0,0.0,0.0,0.0,0.0,0.0,0.0,6.0346,6.1117,6.1777,6.1777,0.0,0.0,0.0,0.0,0.0,6.7247,6.9376,7.066,6.8715,6.9265,6.9963,6.8715,6.8238,6.8091,6.8201,6.9339,7.068,7.1954,7.3056,7.4327,7.5967,7.9512,8.423,9.0546,9.2266,9.3747,9.6062,0.0,9.9053,9.7412,9.9053,10.0196,10.0196,10.0082,10.0006,10.0006,9.9755,9.9266,9.8502,9.7585,9.6668,9.5789,9.6668,9.7012,9.6898,9.6898,9.6515,9.5751,9.4949,9.4567,9.4567,0.0,9.5064,9.5789,9.5637,9.6095,9.6821,9.5942,9.5598,9.5446,9.3994,9.3421,9.3327,0.0,0.0,0.0,0.0,0.0,0.0,0.0,0.0,0.0,0.0,0.0,0.0,0.0,0.0,0.0,0.0,0.0,0.0,0.0,0.0,5.4701,5.5081,5.4391,5.4149,5.4494,5.4908,5.5874,5.746,5.853,5.9702,6.0909,6.0252,5.9408,5.8503,5.7916,5.7777,5.7997,5.7997,5.8474,5.9111,0.0,0.0,0.0,0.0,0.0,0.0,0.0,0.0,0.0,0.0,6.0309,6.0933,6.0933,0.0,0.0,0.0,0.0,0.0,6.6733,6.8495,6.9853,6.9155,7.0752,7.226,7.1548,7.1253,7.1144,7.1119,7.1461,7.2362,7.4151,7.5618,7.7987,8.2241,8.4343,8.6868,9.1066,9.2012,9.3124,0.0,0.0,9.8275,9.8112,9.9053,9.952,9.9027,9.9,0.0,9.8383,9.8587,9.8502,9.812,9.7318,9.6532,9.5776,9.6532,9.6668,9.621,9.621,9.5751,9.4911,9.407,9.3688,9.3688,0.0,9.4185,9.4911,9.4452,9.5025,9.6095,9.5293,9.5216,9.5446,9.4261,9.3803,9.3748,0.0,0.0,0.0,0.0,0.0,0.0,0.0,0.0,0.0,0.0,0.0,0.0,0.0,0.0,0.0,0.0,0.0,0.0,0.0,0.0,5.477,5.5322,5.4805,5.4667,5.5046,5.5598,5.6909,5.9012,5.9564,6.0911,6.2922,6.0644,5.9365,5.8979,5.8017,5.7729,5.7997,5.7997,5.8364,5.8877,0.0,0.0,0.0,0.0,0.0,0.0,0.0,0.0,0.0,0.0,0.0,0.0,0.0,0.0,0.0,6.2365,6.3723,6.5191,6.5999,6.7393,6.8825,6.9633,7.1387,7.3241,7.4513,7.4039,7.3625,7.4717,7.4597,7.4823,7.6239,7.8213,8.1414,8.7094,8.8253,8.9388,9.1985,9.2402,9.3163,9.5059,9.6581,9.7912,9.9064,9.9187,9.8885,9.8269,9.8014,0.0,9.6993,9.7524,9.7746,9.7591,9.679,9.5942,9.5102,9.559,9.5705,9.5402,9.5554,9.5064,9.407,9.3191,9.2809,9.2809,9.2618,9.3115,9.4032,9.3153,9.3803,9.5255,9.4643,9.4796,9.5255,9.4643,9.4146,9.3764,0.0,0.0,0.0,0.0,0.0,0.0,0.0,0.0,0.0,0.0,0.0,0.0,0.0,0.0,0.0,0.0,0.0,0.0,0.0,0.0,5.4529,5.4598,5.4529,5.5184,5.6598,5.6702,5.7495,5.9081,6.1185,6.3029,6.4391,6.2624,6.1306,6.0503,5.9481,5.8647,5.7997,5.7997,5.8033,5.807,5.8033,0.0,0.0,0.0,0.0,0.0,0.0,0.0,0.0,0.0,0.0,0.0,0.0,0.0,6.1594,6.1667,6.2879,6.4347,6.5191,6.6549,6.7981,6.8788,6.8558,6.951,7.4561,7.3341,7.2384,7.6747,7.7546,7.7273,7.6695,7.9152,8.2648,8.7028,8.9427,9.2085,9.5944,0.0,9.5701,9.6073,9.7432,9.8138,9.7704,9.7644,9.7606,9.7569,0.0,0.0,9.6261,9.673,9.6691,9.6084,9.5262,9.4194,9.2786,9.2777,9.3471,9.4794,9.5356,9.4758,9.3153,9.2274,9.1892,9.1854,9.109,9.1701,9.3115,9.2236,9.2924,9.449,9.4414,9.4452,9.449,9.4414,9.3382,9.2198,0.0,0.0,0.0,0.0,0.0,0.0,0.0,0.0,0.0,0.0,0.0,0.0,0.0,0.0,0.0,0.0,0.0,0.0,0.0,5.3667,5.4253,5.515,5.4736,5.5219,5.6771,5.7253,5.8702,6.1185,6.253,6.3132,6.3059,6.1344,6.0074,5.919,5.8677,5.829,5.7997,5.7997,5.7997,5.7997,5.7997,5.7997,0.0,0.0,0.0,0.0,0.0,0.0,0.0,0.0,5.8217,5.8437,5.8437,5.9208,6.0236,6.0713,6.1998,6.3503,6.431,6.6713,6.8999,6.9281,6.9744,7.1203,7.5346,7.6808,7.7817,7.9895,8.0867,8.099,7.9865,8.2883,8.6116,8.7901,9.0058,9.2382,9.5003,9.5555,9.5464,9.4741,9.6776,9.7435,9.5507,9.6137,9.6312,9.538,0.0,0.0,9.4632,9.5219,9.5211,9.444,9.4136,9.3046,9.1205,9.1588,9.1762,9.1768,9.2379,9.2253,9.1548,9.1204,9.1052,9.1052,9.0746,9.0975,9.151,9.1204,9.1739,9.2847,9.3382,9.3612,9.365,9.4223,9.3994,9.3573,0.0,0.0,0.0,0.0,0.0,0.0,0.0,0.0,0.0,0.0,0.0,0.0,0.0,0.0,0.0,0.0,0.0,0.0,5.2977,5.3253,5.3873,5.4874,5.4667,5.5219,5.6771,5.7288,5.9185,6.2496,6.3703,6.383,6.2831,6.094,5.9909,5.9692,5.8493,5.829,5.8731,5.8217,5.7997,5.7997,5.7997,5.7997,0.0,0.0,0.0,0.0,0.0,0.0,0.0,0.0,5.7997,5.7997,5.7997,5.8547,5.9294,5.9869,6.1274,6.2793,6.3382,6.5676,6.8045,6.8521,6.9941,7.2228,7.5999,7.863,8.1022,8.3637,8.3603,8.3097,8.2934,8.4521,8.635,8.7861,8.999,9.2007,9.3764,9.4281,9.4033,9.274,9.5008,9.5742,9.3389,9.4271,9.4594,9.3599,0.0,0.0,0.0,9.345,9.3463,9.2549,9.2511,9.1617,8.9724,9.0279,9.0284,8.963,8.9956,9.028,9.0593,9.0593,9.0593,9.0593,9.0593,9.0593,9.0593,9.0593,9.109,9.1892,9.2771,9.3115,9.3191,9.3764,9.3841,9.3688,0.0,0.0,0.0,0.0,0.0,0.0,0.0,0.0,0.0,0.0,0.0,0.0,0.0,0.0,0.0,0.0,0.0,0.0,5.2153,5.2942,5.3391,5.3391,5.4115,5.5219,5.6736,5.6805,5.8668,6.2461,6.4738,6.5299,6.4282,6.1869,6.1464,6.2597,5.9428,5.8877,6.0272,5.8657,5.7997,5.7997,5.7997,5.7997,5.7997,0.0,0.0,0.0,0.0,0.0,0.0,0.0,5.7997,5.7997,5.7997,5.8547,5.9184,5.9184,6.066,6.2301,6.2324,6.3206,6.451,6.6203,6.8554,7.1675,7.6356,7.8052,8.0663,8.7836,8.5583,8.3073,8.5576,8.3278,8.2444,8.6639,8.913,9.1166,9.2847,9.2556,9.1659,9.023,9.2058,9.287,9.1405,9.1987,9.2475,0.0,0.0,0.0,0.0,9.1497,9.1606,9.0414,9.0382,8.9654,8.8169,8.877,8.8987,8.8766,8.8533,8.9178,9.0593,9.0593,9.0593,9.0593,9.0572,9.0572,9.0593,9.0593,9.109,9.1854,9.2733,9.3077,9.3077,9.3077,9.2542,9.1952,0.0,0.0,0.0,0.0,0.0,0.0,0.0,0.0,0.0,0.0,0.0,0.0,0.0,0.0,0.0,0.0,0.0,0.0,5.2153,5.1942,5.2287,5.3356,5.3598,5.4184,5.515,5.6771,5.8392,6.0082,6.1289,6.1154,5.9686,5.9367,5.9095,5.8783,5.8822,5.8474,5.785,5.7373,5.7152,5.7152,5.7152,5.7483,5.7923,0.0,0.0,0.0,0.0,0.0,0.0,0.0,0.0,0.0,5.7997,5.8951,5.9942,5.9368,6.0441,6.1869,6.2213,6.407,6.6418,6.8374,7.1883,7.5685,7.8847,8.0877,8.3476,8.8294,8.776,8.6295,8.604,8.6013,8.6273,8.7178,8.8178,8.9447,9.1128,9.0312,8.9276,8.8463,8.9792,9.0106,8.8182,8.9149,8.9722,0.0,0.0,0.0,0.0,8.9939,8.9628,8.929,8.892,8.8021,8.6518,8.766,8.813,8.7875,8.7867,8.8504,8.9676,8.9103,8.9141,8.9655,8.9254,8.9641,9.0593,9.0593,9.0746,9.0975,9.1243,9.1357,9.1434,9.1969,9.2007,9.193,0.0,0.0,0.0,0.0,0.0,0.0,0.0,0.0,0.0,0.0,5.3873,5.408,0.0,0.0,0.0,0.0,0.0,0.0,0.0,5.1528,5.1666,5.2873,5.3218,5.377,5.4494,5.646,5.7391,5.7253,5.9219,5.9317,5.7754,5.8946,5.9155,5.8616,5.9664,5.9465,5.818,5.7556,5.7079,5.6822,5.7152,5.7556,5.7997,0.0,0.0,0.0,0.0,0.0,0.0,0.0,0.0,0.0,5.7997,5.8657,5.9402,5.9071,6.0233,6.1797,6.2599,6.4953,6.7864,7.0836,7.4404,7.8137,8.169,8.4243,8.6714,8.9672,8.9103,8.8048,8.7867,8.7142,8.692,8.7921,8.779,8.8186,8.9867,8.8866,8.7649,8.6734,8.7865,8.7914,8.5864,8.6976,8.7576,0.0,0.0,0.0,0.0,8.7951,8.7717,8.7453,8.6901,8.6361,8.5783,8.655,8.7004,8.7162,8.6807,8.6983,8.7627,8.7693,8.7899,8.8174,8.836,8.8956,8.98,9.0355,9.0593,9.0593,9.0593,9.0593,9.0669,9.1128,9.134,9.1459,0.0,0.0,0.0,0.0,0.0,0.0,0.0,0.0,0.0,0.0,5.2942,5.3391,0.0,0.0,0.0,0.0,0.0,0.0,0.0,0.0,5.1459,5.2153,5.3046,5.3804,5.4494,5.5874,5.5908,5.4494,5.8116,5.9039,5.7452,5.9763,6.0698,6.052,6.1163,6.0933,5.9869,5.8253,5.7152,5.6565,5.7262,5.7629,5.785,5.8437,0.0,0.0,0.0,0.0,0.0,0.0,0.0,0.0,5.7886,5.8056,5.834,5.8556,6.0088,6.1977,6.3341,6.5694,6.882,7.3306,7.6532,7.9818,8.4556,8.7422,8.9523,9.1128,8.9791,8.8797,9.0326,8.7384,8.5741,8.8797,8.788,8.7384,8.8988,8.7893,8.649,8.5241,8.6216,8.6254,8.4448,8.5386,0.0,0.0,0.0,0.0,0.0,8.5807,8.5863,8.5335,8.4788,8.4829,8.5563,8.5546,8.5848,8.648,8.5471,8.4996,8.4947,8.6303,8.6631,8.6288,8.7751,8.835,8.8388,8.9904,9.0478,9.0478,9.0593,9.0593,9.0593,9.0593,9.0656,9.0719,0.0,0.0,0.0,0.0,0.0,0.0,0.0,0.0,0.0,0.0,0.0,0.0,0.0,0.0,0.0,0.0,0.0,0.0,0.0,0.0,5.1459,5.2153,5.3529,5.4356,5.4494,5.4839,5.4839,5.4494,5.6529,5.6733,5.5265,5.8586,5.9452,5.8267,5.9953,5.9171,5.6528,5.4913,5.4142,5.3995,5.4179,5.4987,5.5978,5.4913,5.4699,0.0,0.0,0.0,0.0,0.0,0.0,0.0,5.7079,5.8577,6.0107,5.8937,6.0048,6.2052,6.4022,6.5486,6.8057,7.4531,7.9589,8.3563,8.597,8.6963,8.7651,8.8683,8.9523,9.0173,9.0555,8.9294,8.8453,8.9179,8.788,8.7154,8.8224,8.6545,8.5204,8.5091,8.5158,8.4929,8.4042,8.4245,0.0,0.0,0.0,0.0,8.454,8.4451,8.4468,8.454,8.394,8.3765,8.3911,8.499,8.5223,0.0,8.4584,8.4121,8.3487,8.4283,8.4642,8.4783,8.6669,8.7222,8.6929,8.8797,8.96,8.9638,9.0326,9.0593,9.0593,9.0593,9.0656,9.0719,0.0,0.0,0.0,0.0,0.0,0.0,0.0,0.0,0.0,0.0,0.0,0.0,0.0,0.0,0.0,0.0,0.0,0.0,0.0,0.0,5.1597,5.2735,5.3873,5.4494,5.4494,5.4494,5.4494,5.4494,5.4943,5.4943,5.4595,5.7818,5.8895,5.8136,5.9721,5.8841,5.6088,5.4876,5.3922,5.3298,5.4032,5.484,5.5559,5.5162,5.4779,5.4338,5.3492,0.0,0.0,0.0,0.0,0.0,0.0,0.0,5.9464,5.9031,6.0206,6.2165,6.4457,6.689,7.0463,7.7413,8.1729,8.4632,8.5893,8.6505,8.6925,8.7384,8.8797,8.9867,8.9485,8.9027,8.8721,8.8721,8.7307,8.6467,8.7345,8.6108,8.5022,8.4907,8.4985,8.478,8.3989,0.0,0.0,0.0,0.0,8.3832,8.3685,8.3815,8.3832,8.3655,8.3092,8.303,8.3398,8.3719,8.3872,8.3804,8.3466,8.3059,8.2616,8.2913,8.3284,8.3722,8.5429,8.6014,8.5906,8.7899,8.895,8.937,8.9791,9.0249,9.0593,9.0593,9.0697,9.0779,0.0,0.0,0.0,0.0,0.0,0.0,0.0,0.0,0.0,0.0,0.0,0.0,0.0,0.0,0.0,0.0,0.0,0.0,0.0,0.0,0.0,5.3356,5.4115,5.446,5.4322,5.4322,5.4253,5.4115,5.3587,5.3856,5.4922,5.7352,5.8502,5.8558,5.9539,5.8657,5.6345,5.539,5.4032,5.2711,5.4326,5.4987,5.5045,5.583,5.5331,5.4222,5.4102,5.4117,5.4311,5.5155,0.0,0.0,0.0,0.0,5.8253,5.8988,6.0229,6.1917,6.4496,6.8699,7.3819,7.9856,8.2837,8.4441,8.4938,8.5741,8.6352,8.6199,8.7727,8.8874,8.8224,8.7957,8.788,8.788,8.6543,8.5702,8.6314,8.5741,8.5044,8.434,8.475,8.4746,8.3916,0.0,0.0,0.0,0.0,8.359,8.2913,8.3535,8.359,8.2883,8.2439,8.2517,8.3214,8.2517,8.2517,8.3177,8.2517,8.2186,8.2186,8.2186,8.2497,8.3061,8.4319,8.494,8.5171,8.7084,8.8262,8.8874,8.9027,8.9638,9.0402,9.0402,9.0602,9.0915,0.0,0.0,0.0,0.0,0.0,0.0,0.0,0.0,0.0,0.0,5.0735,5.1218,0.0,0.0,0.0,0.0,0.0,0.0,0.0,0.0,0.0,5.3356,5.4115,5.4218,5.3563,5.3563,5.3218,5.2498,5.2863,5.4198,5.642,5.7292,5.7644,5.768,5.8129,5.6969,5.462,5.3115,5.1557,5.0235,5.185,5.2454,5.2511,5.2621,5.3015,5.335,5.259,5.2831,5.3571,5.4311,5.5097,0.0,0.0,0.0,5.8607,5.9084,5.9601,6.0676,6.3566,6.9556,7.5747,7.8881,8.1996,8.4136,8.3486,8.4021,8.4403,8.3639,8.6046,8.8224,8.811,8.7498,8.6963,8.6963,8.6161,8.532,8.4709,8.4518,8.3977,8.2709,8.2998,8.3384,8.3453,0.0,0.0,0.0,8.3859,8.3424,8.2343,8.3349,8.3396,8.2343,8.2251,8.226,8.237,8.226,8.226,8.237,8.226,8.2186,8.2186,8.2186,8.2497,8.3061,8.3757,8.4318,8.4854,8.6375,8.704,8.7231,8.7957,8.8759,8.9485,8.9485,9.0087,9.0915,0.0,0.0,0.0,0.0,0.0,0.0,0.0,0.0,0.0,0.0,0.0,5.0321,0.0,0.0,0.0,4.9327,0.0,0.0,0.0,0.0,0.0,5.3112,5.346,5.3672,5.3605,5.3605,5.3458,5.3106,5.2933,5.43,5.7142,5.729,5.8276,5.9962,5.8604,5.7152,5.5611,5.3555,5.2013,5.1042,5.2197,5.2674,5.2674,5.27,5.2941,5.3214,5.2831,5.2941,5.3435,5.4678,5.5317,5.5816,5.7079,0.0,0.0,0.0,5.914,6.1173,6.5747,6.9769,7.359,7.7564,8.0047,8.1614,8.2187,8.2951,8.3448,8.3066,8.4556,8.597,8.597,8.6428,8.6658,8.6161,8.5358,8.4709,8.4327,8.3868,8.3351,8.2731,8.2834,8.3046,0.0,0.0,0.0,0.0,8.3622,8.3396,8.2251,8.3292,8.3368,8.2251,8.2186,8.2186,8.2186,8.2186,8.2186,8.2186,8.2186,8.2186,8.2186,8.2186,8.2497,8.3024,8.3645,8.4218,8.4757,8.5672,8.6352,8.6828,8.7231,8.788,8.8683,8.9141,8.9666,9.0225,0.0,0.0,0.0,0.0,0.0,0.0,0.0,0.0,0.0,0.0,0.0,0.0,0.0,0.0,0.0,0.0,4.9493,0.0,0.0,0.0,0.0,5.2397,5.2747,5.3093,5.3495,5.3521,5.3414,5.3236,5.2819,5.4379,5.7729,5.7695,5.9438,6.2411,5.9774,5.7813,5.6381,5.4583,5.3225,5.2344,5.2747,5.2784,5.2637,5.3088,5.2994,5.2674,5.3345,5.3141,5.2858,5.4436,5.4987,5.5244,5.6638,5.7226,0.0,0.0,0.0,6.1067,6.6091,6.8253,7.0266,7.4927,7.7373,7.9016,8.0506,8.1614,8.234,8.234,8.3066,8.3639,8.3639,8.5015,8.5893,8.5015,8.4365,8.3907,8.3677,8.3104,8.2607,8.2378,8.234,8.2455,0.0,0.0,0.0,0.0,8.2986,8.2817,8.1844,8.2743,8.2771,8.1627,8.1599,8.1672,8.1893,8.1893,8.1893,8.1893,8.1893,8.2003,8.2186,8.2186,8.2497,8.3024,8.3645,8.4142,8.4533,8.5211,8.5795,8.6265,8.6406,8.7001,8.788,8.8683,8.9225,8.9688,0.0,0.0,0.0,0.0,0.0,0.0,0.0,0.0,0.0,0.0,0.0,0.0,5.0838,4.9706,4.9154,4.9873,4.9258,4.8879,4.8913,5.0042,0.0,5.0881,5.1997,0.0,5.2763,5.2763,5.2406,5.1683,5.2198,5.4448,5.8337,5.8872,6.0848,6.3881,6.141,5.8547,5.5669,5.5537,5.4583,5.3057,5.2344,5.161,5.1096,5.2637,5.227,5.1206,5.3518,5.2858,5.1169,5.2784,5.3314,5.3482,5.4326,5.5097,5.5941,0.0,0.0,0.0,6.1944,6.4127,6.6483,6.996,7.3858,7.7067,7.7984,7.9474,8.0621,8.0621,8.1308,8.192,8.192,8.3295,8.4136,8.3257,8.3066,8.2798,8.2034,8.1881,8.1576,8.0735,8.0621,8.0964,0.0,0.0,0.0,0.0,8.1794,8.1259,8.0737,8.1244,8.1055,7.9974,7.991,8.0277,8.1048,8.1048,8.1048,8.1048,8.1048,8.1452,8.2186,8.2186,8.2497,8.3024,8.3645,8.3911,8.4015,8.5083,8.5228,8.4878,8.5388,8.6123,8.6963,8.7842,8.8726,8.9629,0.0,0.0,0.0,0.0,0.0,0.0,0.0,0.0,0.0,0.0,0.0,0.0,0.0,5.0878,5.0218,5.0011,4.9258,4.9223,5.0188,5.1067,0.0,5.1331,5.2577,5.3171,5.3004,5.3026,5.2627,5.1849,5.2061,5.3683,5.6606,5.7854,5.9318,6.0933,6.0052,5.8988,5.7776,5.5721,5.4509,5.3922,5.3078,5.2307,5.1573,5.1646,5.161,5.161,5.1977,5.2197,5.2454,5.2983,0.0,0.0,0.0,5.4987,5.5095,5.6294,5.7005,5.7897,6.0096,6.2208,6.4496,6.7324,6.996,7.2406,7.4354,7.6074,7.7449,7.7946,7.9627,8.0812,8.0277,8.1996,8.3333,8.3028,8.2569,8.2111,8.1843,8.1308,8.085,8.0544,8.0506,8.0621,0.0,0.0,0.0,0.0,0.0,8.1174,8.0617,8.1094,8.0905,7.9827,7.98,7.991,8.0241,8.0241,8.0498,8.1012,8.0461,8.0901,8.2186,8.1672,8.1801,8.2528,8.309,8.3563,8.3937,8.4317,8.4365,8.4242,8.478,8.5187,8.5611,8.6823,8.7924,8.8922,0.0,0.0,0.0,0.0,0.0,0.0,0.0,0.0,0.0,5.0769,0.0,0.0,0.0,0.0,5.1287,5.0804,5.0212,5.0291,5.1333,5.2118,5.2478,5.2303,5.3059,5.363,5.3974,5.3482,5.3188,5.3188,5.2674,5.3628,5.6014,5.6528,5.7519,5.8744,5.7643,5.7937,5.9038,5.6932,5.5868,5.5464,5.3849,5.3041,5.2784,5.2491,5.2564,5.2821,5.3115,5.3371,5.3592,5.3592,0.0,0.0,0.0,5.462,5.4574,5.5369,5.6067,5.689,5.8367,6.0285,6.2491,6.5192,6.6904,6.8738,7.1833,7.3437,7.4622,7.5997,7.787,7.913,7.8901,8.02,8.1499,8.2073,8.169,8.1347,8.1347,8.085,8.0506,8.0506,8.0506,0.0,0.0,0.0,0.0,0.0,0.0,0.0,8.0067,8.0376,8.0084,7.8987,7.8956,7.8956,7.8956,7.8956,7.9396,8.0204,7.9653,8.0094,8.1379,8.1122,8.1305,8.1852,8.248,8.2943,8.334,8.3752,8.3779,8.3672,8.4218,8.4533,8.4871,8.6399,8.7536,8.85,0.0,0.0,0.0,0.0,0.0,0.0,0.0,0.0,5.1395,5.2119,0.0,0.0,0.0,0.0,0.0,5.2283,5.2136,5.2044,5.2079,5.3068,5.3686,5.3733,0.0,0.0,5.5537,5.4032,5.3995,5.5486,5.3959,5.4378,5.6638,5.5097,5.5647,5.774,5.4693,5.5442,5.9038,5.9001,5.8584,5.7703,5.4509,5.3702,5.4509,5.5244,5.506,5.473,5.7042,5.6418,5.4509,5.4436,0.0,0.0,0.0,5.3739,5.4363,5.4363,5.5159,5.6139,0.0,0.0,0.0,6.3337,6.4634,6.6315,7.0533,7.1489,7.2215,7.4792,7.5959,7.6838,7.7717,7.7946,7.8519,8.02,8.043,8.043,8.0468,8.043,8.043,8.043,8.043,0.0,0.0,0.0,0.0,0.0,7.9002,7.8853,7.8866,7.8866,7.8352,7.7298,7.7237,7.7237,7.7237,7.7237,7.7708,7.8552,7.8552,7.8993,7.98,8.0608,8.0975,8.1048,8.1856,8.2186,8.2284,8.3368,8.3508,8.3061,8.3645,8.4193,8.4854,8.6507,8.7579,8.8403,0.0,0.0,0.0,0.0,0.0,0.0,5.3494,5.3046,5.2839,0.0,0.0,0.0,5.4115,5.3918,5.3892,5.4252,5.3824,5.3718,5.4198,5.4947,5.51,5.4544,5.4802,5.4876,5.473,5.4289,5.3702,5.3004,5.3151,5.3261,5.3335,5.4069,5.4766,5.539,5.5684,5.5794,5.5647,5.4473,5.5207,5.6895,5.4252,5.4032,5.517,5.4216,5.4436,5.5207,5.473,5.5611,5.6748,0.0,5.462,5.473,0.0,5.3371,5.3555,0.0,0.0,5.5319,5.5378,0.0,0.0,0.0,0.0,0.0,6.5876,6.6478,6.7171,7.0304,7.2062,7.3514,7.4966,7.6227,7.7602,7.936,7.9092,7.8901,7.9551,7.9092,7.871,7.871,7.9245,0.0,0.0,0.0,0.0,0.0,7.8293,7.8141,7.8325,7.7404,7.6744,7.6423,7.5873,7.5549,7.5549,7.6166,7.6864,7.7671,7.7671,7.8405,7.98,8.0021,8.0461,8.1048,8.1856,8.2186,8.2219,8.2528,8.256,8.2465,8.3032,8.334,8.3648,8.5128,8.6266,8.7289,0.0,0.0,0.0,0.0,0.0,5.4805,5.4391,5.4322,5.4218,0.0,0.0,0.0,5.5644,5.63,5.6496,5.6124,5.5962,5.5877,5.5933,5.6502,5.6647,5.6173,5.577,5.5537,5.539,5.473,5.4106,5.3482,5.3628,5.3482,5.3004,5.3261,5.3592,5.3922,5.3812,5.3849,5.3775,5.183,5.3041,5.6198,5.4766,5.517,5.6492,5.5574,5.5978,5.6969,0.0,0.0,5.8694,5.6602,5.5978,0.0,0.0,0.0,0.0,0.0,0.0,5.5616,5.5035,5.6534,5.8502,5.9497,0.0,0.0,6.3562,6.3823,6.4305,6.7483,6.9196,7.061,7.2329,7.3705,7.5157,7.6876,7.6761,7.7105,7.9034,7.8557,7.8022,7.8022,7.8443,0.0,0.0,7.7284,7.7264,7.743,7.7296,7.7417,7.792,7.6454,7.5763,7.6093,7.4992,7.4551,7.4918,7.5028,7.5506,7.6283,7.6644,7.7304,7.8295,7.9323,8.0057,8.0571,8.1709,8.2186,8.2186,8.2186,8.2186,8.2219,8.256,8.2793,8.3172,8.4825,8.5939,8.6908,0.0,0.0,0.0,5.5495,5.5598,5.56,5.5736,5.5667,5.5391,0.0,5.5484,5.6416,5.7715,5.9194,5.9509,5.7961,5.8264,5.8123,5.7119,5.7556,5.7813,5.774,5.6345,5.5904,5.6528,5.5207,5.484,5.5464,5.473,5.4399,5.4363,5.2821,5.2454,5.2968,5.0729,5.0912,5.2763,5.0618,5.1924,5.5317,5.5449,5.6528,5.8107,5.8033,5.851,5.9184,5.9074,5.9648,6.0199,5.8731,5.7629,0.0,0.0,0.0,0.0,0.0,5.5537,5.6434,5.5377,0.0,0.0,0.0,5.9721,0.0,6.2609,6.258,6.2808,6.5649,6.6812,6.7897,6.9655,7.0686,7.1871,7.3628,7.401,7.5271,7.8672,7.8328,7.7755,7.787,7.787,0.0,7.6647,7.6452,7.6224,7.5927,7.6164,7.6704,7.7515,7.5801,7.5102,7.5799,7.4368,7.3927,7.4625,7.4001,7.4074,7.4808,7.5689,7.6093,7.6166,7.8662,7.98,7.9874,8.1489,8.2186,8.2186,8.2186,8.2186,8.2186,8.2186,8.2497,8.3128,8.5009,8.606,8.6856,0.0,0.0,5.4736,5.5495,5.5598,5.5839,5.646,5.6046,5.5963,5.6947,5.8208,5.9309,6.007,6.1019,6.1108,5.993,5.9932,5.9102,5.6992,5.6974,5.6748,5.6088,5.578,5.5354,5.4876,5.5207,5.5133,5.462,5.4473,5.4399,5.4363,5.3408,5.2711,5.2197,5.1059,5.0839,5.1242,5.0765,5.1756,5.3739,5.4363,5.6381,5.8914,5.8253,5.851,5.9111,5.8474,5.9171,6.0346,6.0052,5.8547,5.6895,0.0,0.0,0.0,5.539,0.0,0.0,0.0,0.0,0.0,0.0,0.0,0.0,6.0492,6.0397,6.0757,6.277,6.3527,6.4611,6.698,6.8088,6.9425,7.1794,7.2788,7.4393,7.7793,7.6953,7.6227,7.6876,7.6953,0.0,7.5806,7.5603,7.5483,7.5365,7.5283,7.5652,7.6665,7.4977,7.4001,7.4147,7.323,7.2826,7.2973,7.345,7.378,7.3927,7.5395,7.6093,7.6166,7.8662,7.98,7.9874,8.1489,8.2186,8.2186,8.2186,8.2186,8.2186,8.2186,8.2284,8.2596,8.441,8.5218,8.5683,5.5402,5.5402,5.5753,5.6912,5.7087,5.7368,5.8172,5.8277,5.8259,5.8202,6.016,6.147,6.1204,6.2303,6.2307,6.0542,6.0052,5.9134,5.7519,5.7042,5.6638,5.6235,5.5794,5.539,5.4987,5.539,5.5207,5.4399,5.4399,5.4179,5.3812,5.3408,5.3004,5.2564,5.1756,5.161,5.2013,5.2013,5.2931,5.4436,5.484,5.6198,5.7973,5.7997,5.8253,5.8547,5.8143,5.851,5.9281,5.9685,5.8731,0.0,0.0,5.8033,5.7336,0.0,5.7079,5.7299,0.0,0.0,0.0,5.851,0.0,0.0,0.0,5.947,5.9665,6.1617,6.1949,6.2611,6.4704,6.5611,6.6766,6.8852,7.0266,7.1985,7.4507,7.5233,7.5653,7.6036,7.5873,0.0,7.5501,7.4369,7.375,7.3986,7.3828,7.433,7.5778,7.4098,7.3303,7.367,7.2936,7.2496,7.2496,7.2899,7.3083,7.312,7.4735,7.5506,7.5616,7.8479,7.98,7.9874,8.1489,8.2186,8.2186,8.2186,8.2186,8.2186,8.2186,8.2251,8.2532,8.4313,8.5133,8.554,5.6357,5.6303,5.6767,5.8131,5.8524,5.8881,0.0,0.0,6.0389,5.9279,6.1859,6.3464,6.2425,6.3649,6.3796,6.1961,6.0346,5.9245,5.8731,5.7373,5.6492,0.0,0.0,5.528,5.5133,5.528,5.506,5.4399,5.4252,5.3922,5.3424,5.3298,5.3277,5.3408,5.2417,5.2601,5.3628,5.3188,5.3995,5.5596,5.5596,5.6161,5.7116,5.774,5.7997,5.8033,5.818,5.8217,5.8364,5.9148,5.8804,5.8143,5.8951,5.9184,0.0,0.0,0.0,0.0,0.0,0.0,0.0,0.0,0.0,5.8846,0.0,0.0,0.0,6.0805,6.0846,6.1128,6.2749,0.0,0.0,0.0,0.0,0.0,0.0,7.2702,0.0,7.4839,7.4353,0.0,7.4842,7.295,7.1936,7.2485,7.2235,7.2815,7.4629,7.332,7.2789,7.345,7.2826,7.2496,7.2496,7.2496,7.2496,7.2532,7.4147,7.4918,7.5028,7.8148,7.9653,7.9874,8.1342,8.2039,8.2186,8.2186,8.2186,8.2186,8.2219,8.2279,8.2623,8.4289,8.5144,8.5695,5.6492,5.6303,5.6561,5.739,5.8139,0.0,0.0,0.0,6.0103,6.0522,6.3809,6.5836,6.4945,6.5705,6.6402,6.6806,6.2805,6.0529,6.1153,0.0,5.5427,0.0,0.0,0.0,5.3482,5.4179,5.4473,5.4399,5.3702,5.3665,5.4252,5.3555,5.3592,5.4216,5.2674,5.3225,5.517,5.3041,5.3482,5.5596,5.5596,5.6492,0.0,5.796,5.7997,5.8107,5.8804,5.9038,5.9184,0.0,5.9245,5.8143,0.0,5.9184,5.9184,5.9074,0.0,0.0,0.0,0.0,0.0,0.0,6.0199,0.0,0.0,0.0,5.9515,5.9041,0.0,5.9793,0.0,0.0,0.0,0.0,0.0,0.0,6.5659,6.841,7.0991,7.249,7.1978,0.0,0.0,7.1363,7.0811,7.1606,7.0865,7.1115,7.2904,7.2664,7.2532,7.2642,7.2569,7.2496,7.2496,7.2496,7.2496,7.2532,7.4147,7.4918,7.4992,7.7561,7.914,7.9837,8.0755,8.1525,8.2186,8.2186,8.2186,8.2219,8.2311,8.2375,8.255,8.3818,8.4756,8.5559,5.7376,5.7302,5.7531,5.8304,0.0,0.0,0.0,0.0,6.2566,6.3314,6.4804,6.6035,6.6623,6.6145,6.6329,6.7577,6.453,6.2475,0.0,0.0,5.7336,0.0,0.0,0.0,0.0,5.4473,0.0,5.4399,5.3592,5.335,5.3702,5.3371,5.3628,5.4363,5.3702,5.4216,5.5537,5.5023,5.5097,5.5706,0.0,5.7116,0.0,5.7813,5.7997,5.8107,5.8891,5.9184,5.9258,0.0,5.9245,0.0,0.0,0.0,0.0,0.0,0.0,0.0,0.0,0.0,0.0,0.0,0.0,0.0,5.8841,0.0,5.877,0.0,0.0,0.0,0.0,0.0,0.0,0.0,6.2385,0.0,0.0,0.0,6.7714,0.0,0.0,0.0,0.0,0.0,0.0,0.0,6.9509,7.0323,7.1514,7.2006,7.2282,7.2496,7.2496,7.2496,7.2496,7.2496,7.2496,7.2532,7.4147,7.4918,7.5028,7.7928,7.947,7.9874,8.1122,8.1893,8.2186,8.2186,8.2251,8.2311,8.2508,8.2571,8.275,8.4324,8.5182,8.5689,5.7997,5.7997,5.818,5.8767,5.9038,0.0,0.0,6.2805,6.3943,6.4567,6.5228,6.6145,6.754,6.7063,6.743,6.9486,6.7247,6.5375,0.0,0.0,5.9538,0.0,0.0,0.0,0.0,0.0,0.0,5.4069,5.3702,5.3555,5.3518,5.3298,5.3739,5.473,5.473,5.517,5.5978,5.6565,5.6602,5.6345,5.7299,5.7446,5.7189,5.7776,5.8143,5.84,5.8964,5.9184,5.9184,5.9184,5.9038,0.0,5.8877,0.0,0.0,0.0,0.0,0.0,6.0933,0.0,0.0,0.0,0.0,0.0,0.0,0.0,0.0,0.0,0.0,0.0,0.0,0.0,0.0,0.0,0.0,6.1464,0.0,6.2595,0.0,0.0,0.0,0.0,0.0,0.0,0.0,6.6905,6.7827,6.884,6.9756,7.0879,7.1662,7.2165,7.2386,7.2496,7.2496,7.2496,7.2496,7.2532,7.4147,7.4918,7.5028,7.8075,7.958,7.9874,8.1269,8.2003,8.2186,8.2251,8.2279,8.2407,8.2665,8.2758,8.2936,8.4565,8.5318,8.5818,5.7997,5.7997,5.7997,5.8033,5.8694,5.9758,0.0,6.2328,6.2853,6.2853,6.4971,6.6769,6.7614,6.9045,7.1211,0.0,0.0,6.9559,6.8752,0.0,6.13,0.0,0.0,5.6051,0.0,0.0,0.0,0.0,5.3995,5.4363,5.4326,5.3555,5.4032,0.0,5.5537,5.6014,5.6748,5.6785,5.7226,5.785,5.7152,5.7299,5.796,0.0,5.8474,5.9148,5.9184,0.0,0.0,5.9184,5.8694,0.0,0.0,0.0,0.0,0.0,0.0,0.0,0.0,0.0,0.0,6.0603,0.0,0.0,0.0,0.0,6.0126,0.0,0.0,0.0,0.0,0.0,0.0,0.0,0.0,0.0,0.0,0.0,0.0,0.0,0.0,0.0,0.0,0.0,6.5171,6.5989,6.5669,6.5999,6.7256,6.911,7.0541,7.1293,7.2092,7.2496,7.2496,7.2496,7.2496,7.2532,7.4147,7.4918,7.4992,7.7488,7.9066,7.9837,8.0681,8.1489,8.2219,8.2343,8.2407,8.2439,8.2782,8.2904,8.3008,8.4049,8.4926,8.5706,5.8804,5.8804,5.8621,5.8107,5.8217,5.9134,6.1263,6.2768,6.4604,6.7283,6.7907,6.9633,7.3634,7.3597,7.4368,0.0,0.0,7.2716,7.1358,6.7504,0.0,0.0,0.0,5.84,0.0,0.0,0.0,0.0,5.5317,5.517,5.517,5.4363,5.484,5.6381,5.5831,5.6345,5.7593,5.7593,0.0,0.0,0.0,5.7923,5.9465,0.0,0.0,5.9184,5.9184,5.9905,0.0,6.0162,6.0162,6.0199,5.9134,5.8964,5.9258,5.9515,5.9979,0.0,0.0,0.0,6.152,6.1263,0.0,0.0,0.0,0.0,0.0,0.0,0.0,0.0,0.0,0.0,0.0,0.0,0.0,0.0,0.0,0.0,0.0,0.0,0.0,0.0,0.0,0.0,0.0,6.3062,6.401,6.4725,6.5152,6.7826,6.9743,7.0505,7.1284,7.1982,7.2496,7.2496,7.2496,7.2532,7.4147,7.4918,7.4992,7.7488,7.9029,7.9837,8.0645,8.1517,8.2311,8.2375,8.2534,8.2752,8.2874,8.2994,8.3269,8.4703,8.5372,8.5864,5.9258,5.8964,5.8694,5.8474,5.8437,5.9134,6.1263,6.3759,6.6402,6.9302,7.022,7.2202,7.6423,0.0,7.6644,0.0,7.7818,7.5763,7.2716,7.0624,0.0,6.5411,6.3062,0.0,0.0,0.0,0.0,0.0,0.0,5.6308,5.6014,5.5207,5.539,5.6381,5.6418,5.6712,5.7226,5.8364,5.84,0.0,0.0,5.8437,0.0,0.0,5.8694,5.9588,0.0,5.9869,6.0713,6.0493,6.075,6.1006,5.9942,5.9648,5.9661,5.9979,6.0236,6.0639,6.1741,6.1814,0.0,6.1594,6.0823,0.0,5.9685,0.0,0.0,0.0,0.0,0.0,0.0,0.0,0.0,0.0,0.0,0.0,0.0,5.9434,0.0,0.0,0.0,0.0,0.0,0.0,0.0,6.119,6.219,6.2948,0.0,0.0,6.8309,6.9623,7.0734,7.1688,7.2496,7.2496,7.2496,7.2532,7.4147,7.4918,7.4992,7.7488,7.9061,7.9895,8.0703,8.1608,8.2502,8.2565,8.2721,8.2934,8.2964,8.324,8.3775,8.5112,8.5966,8.678,5.9391,5.8621,5.8364,5.9098,5.9221,5.9832,6.152,6.5118,6.8017,6.9082,7.1945,7.4515,7.6203,7.7084,7.8185,7.9764,8.0534,7.8626,7.3156,7.4037,0.0,0.0,6.6219,6.5044,6.1961,0.0,0.0,0.0,0.0,5.7666,5.6895,5.6051,5.5669,5.5721,5.7299,5.7116,5.5868,5.9024,5.9905,5.9148,5.9184,5.8804,5.818,5.807,5.9098,6.0419,5.9515,5.9258,5.9441,6.0199,6.0493,6.0529,6.0493,6.0456,6.0603,6.1337,6.1043,6.0823,6.234,6.2254,6.1667,6.1704,0.0,0.0,0.0,0.0,6.234,0.0,0.0,0.0,0.0,0.0,0.0,0.0,0.0,0.0,0.0,0.0,0.0,0.0,0.0,0.0,0.0,0.0,6.119,6.0419,6.0406,0.0,0.0,0.0,6.6355,6.8641,7.033,7.1615,7.2422,7.2496,7.2496,7.2532,7.4111,7.4882,7.4992,7.7378,7.9013,8.0014,8.0787,8.1728,8.2727,8.2843,8.2934,8.2934,8.3121,8.37,8.4555,8.5372,8.6709,8.8232,5.9472,5.9679,5.9826,5.9421,5.9732,6.1043,6.3906,6.5742,6.8385,0.0,7.5139,7.7451,8.0314,8.0828,8.1122,8.1525,8.0681,0.0,0.0,0.0,0.0,7.0734,6.7981,6.6402,6.6145,6.3759,0.0,6.1239,0.0,5.8781,5.8561,5.7152,5.6492,5.6528,5.7556,5.7446,5.6638,5.8657,5.9061,5.8364,5.8964,5.9795,0.0,0.0,6.0272,6.19,5.9918,5.9979,6.1006,6.1227,6.1704,6.2108,6.1484,6.13,6.1227,6.0823,6.1006,6.152,6.2548,6.2658,6.2658,6.3282,6.2511,6.1557,0.0,0.0,0.0,0.0,0.0,0.0,0.0,0.0,0.0,0.0,0.0,0.0,0.0,0.0,0.0,6.0951,0.0,0.0,0.0,0.0,6.043,5.9716,6.0433,0.0,0.0,0.0,0.0,6.6182,6.8385,7.0183,7.1615,7.2202,7.2496,7.2496,7.3523,7.4331,7.4955,7.6166,7.791,8.0014,8.0198,8.1268,8.2843,8.2904,8.2994,8.3121,8.318,8.4035,8.5372,8.6189,8.7155,8.8232,6.0089,6.1185,6.191,6.1053,6.2377,6.42,6.6072,6.6733,0.0,7.3744,7.6093,0.0,7.9874,8.1342,8.2186,8.2186,8.1379,0.0,7.8185,0.0,0.0,7.3083,7.0513,6.9009,6.8752,6.5558,0.0,6.278,0.0,5.9515,5.9148,5.7923,5.6969,5.6345,5.785,5.7886,5.6932,5.8914,5.9465,5.9098,5.9538,0.0,0.0,5.9942,6.0566,6.163,6.0603,6.0823,6.163,6.1998,6.2438,6.2707,6.2291,6.2108,6.2034,6.1594,6.1777,6.2218,6.2695,6.278,6.3025,6.387,6.3099,6.2218,6.2622,6.2768,6.2438,0.0,0.0,0.0,0.0,0.0,0.0,0.0,0.0,0.0,0.0,0.0,0.0,0.0,6.0426,0.0,0.0,0.0,0.0,0.0,0.0,0.0,0.0,0.0,0.0,6.5264,6.7981,7.0036,7.1293,7.2459,7.301,7.3046,7.3854,7.4661,7.5469,7.6276,7.7904,8.0137,8.0137,8.1242,8.3024,8.3024,8.3121,8.3254,8.396,8.4778,8.5743,8.6932,8.7675,8.8202,6.0964,6.2656,6.3861,6.3112,6.5621,0.0,0.0,6.8641,0.0,7.3854,0.0,7.7934,7.7934,8.0498,8.2186,8.2186,0.0,8.0718,7.7934,7.8736,7.7708,7.4147,7.3156,7.1835,7.0146,6.7136,0.0,0.0,0.0,5.9942,5.9038,5.8217,5.6969,5.5537,5.796,5.8304,0.0,5.9355,6.0236,6.0272,6.0382,6.0052,5.9588,6.0309,6.0639,6.0823,6.152,6.1704,6.1704,6.2548,6.278,6.278,6.278,6.278,6.278,6.278,6.278,6.2817,6.2952,6.289,6.3025,6.4016,6.3613,6.3172,6.3906,6.3503,6.2732,6.1777,6.1594,6.1557,0.0,0.0,0.0,0.0,0.0,0.0,0.0,0.0,0.0,0.0,0.0,0.0,0.0,0.0,0.0,0.0,0.0,0.0,0.0,0.0,0.0,6.4934,6.8091,7.033,7.1439,0.0,7.3707,7.4001,7.4515,7.5212,7.613,7.6937,7.8437,8.0325,8.0436,8.1504,8.318,8.318,8.318,8.3366,8.4963,8.5595,8.5781,8.749,8.8084,8.8208,6.1929,6.2724,6.3553,6.4045,6.6194,6.8961,7.2157,7.378,7.5395,7.7451,7.9837,8.1342,8.1342,8.1856,8.2186,8.2186,8.0975,0.0,0.0,0.0,0.0,7.5726,7.4258,7.2422,7.0146,6.8238,6.6145,0.0,6.1557,5.9648,5.818,5.7409,5.6161,5.473,5.7116,5.8437,5.8817,5.9221,0.0,5.9478,6.0126,6.0713,6.119,6.1337,6.1814,6.2401,6.2548,6.2144,6.1704,6.2548,6.278,6.278,6.278,6.278,6.278,6.278,6.278,6.2989,6.3686,6.3356,6.3172,6.4714,6.4494,6.3906,6.4053,6.398,6.3429,6.1887,6.1594,6.141,6.075,0.0,0.0,0.0,0.0,0.0,0.0,0.0,0.0,0.0,0.0,6.0693,0.0,0.0,0.0,0.0,0.0,0.0,0.0,0.0,0.0,0.0,6.6402,0.0,0.0,0.0,7.3707,7.5652,7.4478,7.4661,7.613,7.7089,7.8558,8.0362,8.1111,8.2141,8.318,8.318,8.318,8.3366,8.4963,8.5595,8.5781,8.749,8.8084,8.8232,6.3363,6.3981,6.4955,6.6463,6.9034,0.0,0.0,7.7671,7.8956,7.8038,7.8956,7.9653,7.9653,8.1195,8.2039,8.1599,8.0865,8.0241,7.9764,7.7855,7.6533,7.613,7.4147,0.0,7.077,6.8311,6.6292,6.4714,6.1814,5.9795,5.8621,5.7373,5.6161,5.5097,5.6675,5.829,0.0,0.0,0.0,5.9905,6.0713,6.1263,6.163,6.2071,6.2732,6.3466,6.3466,6.3209,6.2879,6.2842,6.278,6.278,6.278,6.278,6.278,6.278,6.278,6.2989,6.387,6.3466,6.3294,6.5411,6.5007,6.431,6.5154,6.5007,6.4383,6.3135,6.2879,6.2646,6.1887,6.1789,0.0,0.0,0.0,0.0,0.0,0.0,0.0,0.0,0.0,0.0,0.0,0.0,0.0,0.0,0.0,0.0,0.0,0.0,0.0,0.0,0.0,0.0,0.0,0.0,0.0,7.625,7.547,7.5919,7.75,7.7995,7.9185,8.0953,8.1474,8.2253,8.318,8.318,8.344,8.3923,8.5112,8.5855,8.6375,8.7638,8.8084,8.8202,6.5423,6.6149,6.7351,6.9568,7.248,7.5205,7.7268,8.0204,8.1269,7.8699,7.8369,7.8369,7.8369,8.0498,8.1672,8.1048,8.0681,7.9947,7.8662,7.7635,7.6717,7.5873,7.4037,7.2386,7.1064,6.8385,6.6366,0.0,6.2108,5.9979,0.0,5.7409,5.6271,0.0,0.0,0.0,0.0,0.0,5.9735,6.0713,6.1337,6.1704,6.1924,6.2585,6.3356,6.409,6.409,6.42,6.4237,6.3576,6.3246,6.3099,6.3099,6.3209,6.333,6.333,6.333,6.3503,6.4163,6.387,6.3833,6.5962,6.5558,6.4897,6.5999,6.5888,6.5301,6.431,6.4237,6.4141,6.3395,6.3395,0.0,0.0,0.0,0.0,0.0,0.0,0.0,0.0,0.0,0.0,6.1553,0.0,0.0,0.0,0.0,0.0,0.0,0.0,0.0,0.0,0.0,6.8962,7.157,0.0,7.5595,7.6884,7.6582,7.7252,7.8738,7.9013,7.9989,8.1507,8.1874,8.2468,8.318,8.318,8.3663,8.448,8.5298,8.6078,8.6895,8.7787,8.8084,8.8177,6.8703,6.9484,0.0,0.0,0.0,0.0,7.8363,8.0608,8.2076,8.1782,8.1746,8.1746,8.1746,8.1379,8.1085,8.1012,7.9653,7.8772,7.8589,7.7084,7.5836,7.5065,7.4808,7.3266,7.0293,6.9192,6.721,0.0,0.0,5.9942,0.0,0.0,0.0,0.0,0.0,0.0,0.0,5.8914,6.0089,6.1484,6.1557,6.2034,6.267,6.2743,6.3356,6.409,6.409,6.4567,6.5191,6.5081,6.4567,6.398,6.398,6.4494,6.5081,6.5081,6.5081,6.5081,6.5191,6.5154,6.5301,6.6256,6.6402,6.6109,6.5558,6.5925,6.5962,6.442,6.4677,6.496,6.4204,6.4607,6.4669,0.0,0.0,0.0,0.0,0.0,0.0,0.0,0.0,0.0,0.0,6.0056,0.0,0.0,5.9795,0.0,0.0,0.0,0.0,6.1667,0.0,6.9274,7.2539,7.3607,7.5595,7.8541,7.7068,7.7192,7.8657,7.9701,8.0664,8.1544,8.2586,8.3106,8.318,8.318,8.3663,8.448,8.5298,8.6078,8.6895,8.7787,8.8084,8.8177,0.0,0.0,0.0,0.0,0.0,0.0,0.0,8.1562,8.2186,8.2186,8.2186,8.2003,8.1525,8.1195,8.0608,7.9653,7.8956,7.8369,7.7855,7.6313,7.5249,7.4918,7.3964,7.2422,7.0146,6.9302,6.7577,0.0,0.0,0.0,0.0,0.0,0.0,0.0,0.0,5.796,5.8767,5.9575,6.0566,6.163,6.2144,6.2842,6.3576,6.3576,6.4383,6.5521,6.5521,6.5742,6.6035,6.6035,6.5485,6.4824,6.4824,6.5044,6.5301,6.5301,6.5301,6.5411,6.5888,6.5668,6.5632,6.688,6.6843,6.6549,6.6696,6.699,6.688,6.5778,6.5815,6.6098,6.6261,6.6135,6.5988,0.0,0.0,0.0,0.0,0.0,0.0,0.0,0.0,0.0,0.0,5.9532,5.9752,0.0,0.0,0.0,0.0,0.0,0.0,6.152,0.0,6.8098,7.195,7.3904,7.6019,7.8322,7.7577,7.8101,7.9755,8.0147,8.1118,8.252,8.2972,8.318,8.318,8.318,8.396,8.5149,8.5483,8.6412,8.7601,8.7973,8.8084,8.8177,7.5051,0.0,7.6066,0.0,7.8846,7.9543,8.1856,8.2186,8.2186,8.2186,8.2186,8.1893,8.1085,8.0791,8.0094,7.8699,7.8369,7.7855,7.7011,7.5689,7.4808,7.4551,7.323,0.0,7.0477,6.9449,6.7944,6.5999,6.4127,0.0,0.0,0.0,0.0,0.0,5.7997,5.9024,5.9588,6.0419,6.1374,6.2365,6.2695,6.3466,6.442,6.42,6.5081,6.6512,6.6512,6.6659,6.6843,6.6843,6.6476,6.5962,6.5742,6.5815,6.5999,6.5999,6.5999,6.6145,6.6696,6.6439,6.6292,6.7393,6.7247,6.6953,6.7247,6.7504,6.754,6.6953,6.6843,6.7026,6.7577,6.743,6.7347,6.7704,0.0,0.0,0.0,0.0,0.0,0.0,6.0461,5.9955,5.9245,5.9278,5.9779,0.0,0.0,0.0,0.0,0.0,0.0,0.0,0.0,0.0,0.0,7.4164,7.6309,7.7957,7.813,7.898,8.0385,8.0866,8.1867,8.318,8.318,8.318,8.3217,8.344,8.4369,8.5632,8.5855,8.6821,8.8084,8.8084,8.8084,8.8146,7.494,7.6955,7.8809,7.9617,8.1085,8.215,8.2186,8.2186,8.2186,8.2186,8.2186,8.1893,8.1085,8.0277,7.947,7.8662,7.7818,7.6974,7.6166,7.5359,7.4551,0.0,0.0,7.2129,7.1293,6.9743,6.8495,6.765,0.0,0.0,6.1557,0.0,5.8767,5.8033,5.9648,6.0382,6.0456,6.1227,6.2548,6.398,6.3135,6.3796,6.5191,6.4383,6.5081,6.6512,6.6512,6.699,6.7687,6.7687,6.7677,6.7504,6.6733,6.7026,6.765,6.765,6.765,6.765,6.7677,6.7677,6.7677,6.7687,6.7687,6.7467,6.6696,6.7136,6.7687,6.7687,6.7687,6.7687,6.7687,6.8348,6.8632,6.7994,0.0,0.0,0.0,0.0,0.0,0.0,6.1702,6.1101,5.9355,5.9184,0.0,0.0,0.0,0.0,0.0,0.0,0.0,6.1557,6.5676,0.0,7.1753,7.4329,7.6337,7.782,7.8809,7.9535,8.0082,8.2005,8.2994,8.318,8.318,8.318,8.3254,8.4035,8.4852,8.5669,8.6486,8.7304,8.8084,8.8084,8.8084,8.8084,7.9533,8.0252,8.0916,8.1365,8.1856,8.2186,8.2186,8.2186,8.2186,8.2186,8.2186,8.1672,8.0314,7.9947,7.8993,0.0,7.6644,7.6387,0.0,7.4845,7.4221,7.4515,7.323,7.2129,7.1293,7.0257,6.9045,6.7687,0.0,0.0,0.0,6.108,6.0126,5.8914,6.0493,6.1227,6.1263,6.2071,6.2732,6.3246,6.3576,6.4347,6.5338,6.5632,6.6402,6.732,6.732,6.7467,6.7687,6.7687,6.7687,6.765,6.7393,6.7467,6.7687,6.7687,6.7687,6.7687,6.7687,6.7687,6.7687,6.7687,6.7687,6.7614,6.7357,6.7504,6.7687,6.7687,6.8128,6.8531,6.8531,6.9192,6.9816,7.0165,6.9477,0.0,0.0,0.0,0.0,0.0,6.0428,5.9679,0.0,5.9462,0.0,0.0,0.0,0.0,0.0,0.0,0.0,0.0,6.6868,0.0,7.2727,7.5199,7.7264,7.8952,7.9039,7.9771,8.1046,8.2453,8.3151,8.318,8.318,8.318,8.3254,8.4072,8.4852,8.5669,8.6486,8.7341,8.8084,8.8084,8.8084,8.8084,8.1037,8.1704,8.2156,8.1838,8.2003,8.2186,8.2186,8.2186,8.2076,8.1782,8.1746,8.1122,7.9507,7.9323,0.0,7.6717,7.657,7.657,7.657,7.5028,7.4368,7.4882,7.3377,7.2275,7.1762,0.0,0.0,6.9045,6.765,6.5595,6.2989,6.2989,6.2291,6.108,6.2071,6.2548,6.2548,6.3062,6.3649,6.42,6.4457,6.5191,6.6219,6.6402,6.699,6.7687,6.7687,6.7687,6.7687,6.7687,6.7687,6.7687,6.7687,6.7907,6.8091,6.7797,6.7687,6.7687,6.7687,6.7907,6.8128,6.8128,6.8128,6.8054,6.776,6.7687,6.7797,6.8091,6.8568,6.9009,6.9302,7.0,7.0734,7.1219,6.9963,6.8605,6.7797,0.0,0.0,0.0,0.0,0.0,0.0,6.0601,6.1263,0.0,0.0,0.0,0.0,0.0,0.0,6.4684,6.7941,0.0,7.3633,7.6051,7.7969,7.9417,7.9808,8.0718,8.2042,8.2839,8.318,8.318,8.318,8.318,8.3292,8.4369,8.5149,8.5706,8.6858,8.7601,8.8084,8.8084,8.8084,8.8084,8.0229,8.1568,8.2527,0.0,8.1709,0.0,8.2186,8.2186,8.1893,8.1122,8.1012,8.0388,7.8772,7.8589,7.8259,7.7384,0.0,0.0,0.0,7.5763,7.4918,7.4918,7.3413,7.2569,7.2569,7.1762,7.1256,7.1219,6.8862,6.6916,6.5485,6.5375,6.4897,6.4163,6.4163,6.4163,6.4163,6.4163,6.5044,6.6366,6.5668,6.6292,6.754,6.6843,6.7026,6.7687,6.7687,6.7687,6.7687,6.7687,6.7687,6.7714,6.776,6.8311,6.8752,6.7981,6.7797,6.7898,6.7898,6.8421,6.8972,6.8972,6.8972,6.8788,6.8017,6.7898,6.8054,6.8825,6.9045,6.9302,7.011,7.0881,7.1366,7.1366,7.0,6.8605,6.7724,0.0,0.0,0.0,0.0,0.0,0.0,6.2438,6.2658,0.0,0.0,0.0,0.0,0.0,6.403,6.5789,6.9115,7.2092,7.4606,7.694,7.857,7.9496,8.1052,8.2163,8.2904,8.3091,8.318,8.318,8.318,8.318,8.3329,8.4926,8.5595,8.5781,8.7452,8.8084,8.8084,8.8084,8.8084,8.8084,0.0,0.0,8.2052,8.1948,8.2076,8.2186,8.2186,8.2186,8.1893,8.1122,8.1012,8.0388,7.8772,7.8589,7.8259,7.7384,7.6754,7.613,7.5542,7.5139,7.4918,7.4918,7.3964,7.3413,7.3413,7.2055,7.0991,7.0367,6.8568,6.7504,6.71,6.5888,6.5191,6.5007,6.5007,6.5007,6.5007,6.5007,6.5228,6.5632,6.6035,6.6439,6.6843,6.7247,6.7504,6.7687,6.7687,6.7687,6.7687,6.7687,6.7687,6.7797,6.8421,6.8752,6.8862,6.8678,6.9045,6.9522,6.9522,6.9669,6.9816,6.9816,6.9816,6.9779,6.9559,6.9522,6.9596,6.9779,7.0293,7.0991,7.1798,7.2092,7.2239,7.2239,7.0367,6.8421,6.699,6.431,0.0,0.0,6.2658,6.2805,6.1704,6.3503,6.464,0.0,0.0,0.0,0.0,6.73,6.7961,6.9115,7.1965,7.4635,7.6955,7.8405,7.9776,8.102,8.1981,8.2573,8.2758,8.2904,8.3024,8.318,8.318,8.318,8.3329,8.4926,8.5595,8.5781,8.7452,8.8084,8.8084,8.8084,8.8084,8.8195,8.235,8.2363,8.2341,8.2242,8.2186,8.2186,8.2186,8.2186,8.1893,8.1122,8.0681,7.9984,7.8736,7.8259,7.7818,7.7347,7.69,7.646,7.6026,7.5322,7.4918,7.4918,7.378,7.3156,7.3156,7.2312,7.1468,7.066,6.9412,6.8605,6.8201,6.699,6.6219,6.5852,6.5852,6.5852,6.5852,6.5852,6.6072,6.6439,6.688,6.7026,6.71,6.7504,6.7687,6.7724,6.8128,6.8238,6.8311,6.8678,6.8788,6.8862,6.9302,6.9706,7.0,7.0,7.0036,7.011,7.011,7.0367,7.066,7.066,7.066,7.055,7.0183,7.011,7.0183,7.0587,7.0991,7.1688,7.2826,7.2753,7.2386,7.2018,6.9926,6.7797,6.6182,6.3833,0.0,6.3209,6.409,6.4567,6.4383,6.6256,6.7026,6.5925,6.6476,0.0,6.8378,6.9843,7.0781,7.1098,7.3545,7.5828,7.7871,7.9599,8.0985,8.1907,8.2597,8.285,8.2696,8.2904,8.3121,8.318,8.318,8.3403,8.3849,8.5075,8.5818,8.6264,8.7601,8.8084,8.8084,8.8084,8.8307,8.8641,8.2349,8.2616,8.2739,8.2284,8.2186,8.2186,8.2186,8.2186,8.1893,8.1122,8.0277,7.947,7.8699,7.7818,7.7273,7.7273,7.7273,7.72,7.6943,7.5799,7.4992,7.4735,7.3413,7.2679,7.2679,7.2569,7.2165,7.1505,7.0697,6.9926,6.9265,6.8311,6.7504,6.6843,6.6733,6.6659,6.6659,6.6659,6.7063,6.7687,6.7687,6.7687,6.7687,6.7687,6.776,6.7944,6.8641,6.8972,6.9192,6.9853,7.011,7.0146,7.0403,7.0917,7.1513,7.177,7.1358,7.077,7.0513,7.1064,7.1688,7.1835,7.1843,7.1688,7.0991,7.0734,7.0881,7.1688,7.1733,7.2129,7.3597,7.312,7.2239,7.1431,6.9155,6.699,6.5521,0.0,6.2989,6.5228,6.5925,6.6733,6.8091,6.9596,6.9669,6.7751,6.9293,7.023,7.0052,7.195,7.2982,7.2876,7.4765,7.6659,7.8512,8.0733,8.2025,8.2407,8.2911,8.2971,8.2696,8.3001,8.3254,8.3366,8.3366,8.3849,8.4629,8.5446,8.6189,8.6895,8.775,8.8084,8.8084,8.8233,8.8716,8.9236,8.2728,8.2591,8.2316,8.2219,8.2186,8.2186,8.2186,8.2186,8.1893,8.1122,8.0277,7.947,7.8699,7.7818,7.7273,7.7273,7.7273,7.6723,7.5359,7.5689,7.5322,7.3927,7.3634,7.3487,7.3487,7.2863,7.2459,7.2312,7.1505,7.1064,7.0889,6.9412,6.8641,6.8495,6.7797,6.7504,6.7504,6.7504,6.7577,6.7687,6.7687,6.7687,6.7687,6.7687,6.8128,6.8752,6.8862,6.9339,6.9926,7.0073,7.011,7.033,7.1688,7.2202,7.2569,7.3964,7.4258,7.3854,7.2496,7.2716,7.3487,7.4184,7.4368,7.4331,7.4184,7.3634,7.3377,7.4184,7.3817,7.3597,7.4551,7.3523,7.2239,7.1431,6.8715,6.6366,6.5448,0.0,6.5118,6.6182,6.8715,7.0477,7.0734,7.1578,7.2333,7.2805,7.1745,7.2059,7.4293,7.4506,7.5279,7.6852,7.7229,7.8559,8.0953,8.1833,8.236,8.2407,8.2665,8.2727,8.2696,8.2874,8.3395,8.422,8.422,8.4666,8.5483,8.6264,8.6672,8.6895,8.775,8.8084,8.8158,8.8864,8.9198,8.9459,8.2394,8.2375,8.2186,8.2186,8.2186,8.2186,8.2186,8.1819,8.1415,8.1048,7.991,7.8993,7.8626,7.7818,7.7273,7.7273,7.7273,7.6796,7.5616,7.5506,7.4918,7.3744,7.3266,7.3046,7.3046,7.2679,7.2496,7.2496,7.1688,7.1293,7.1256,7.011,6.9339,6.8898,6.8495,6.8091,6.7687,6.7687,6.7687,6.7687,6.7687,6.7687,6.7724,6.8164,6.8568,6.9009,6.9889,7.044,7.0881,7.1762,7.2018,7.2239,7.3413,7.378,7.3964,7.4698,7.4918,7.4735,7.4001,7.4074,7.4441,7.4808,7.4918,7.4918,7.4918,7.4625,7.4441,7.4845,7.4625,7.4588,7.5395,7.4221,7.301,7.2642,6.9522,0.0,0.0,6.6219,6.6586,6.8238,7.0917,7.2753,7.323,7.3964,7.4287,7.3897,7.3479,7.3831,7.5203,7.5882,7.7065,7.8927,7.9406,8.0241,8.1514,8.2196,8.2571,8.2571,8.285,8.2911,8.2813,8.2964,8.3566,8.4369,8.3923,8.4703,8.6226,8.6189,8.6672,8.7527,8.7935,8.8084,8.8195,8.9013,8.957,9.0053,8.1732,8.2076,8.2186,8.2186,8.2186,8.2186,8.2186,8.1525,8.1012,8.1012,7.9617,7.8589,7.8589,7.7818,7.7273,7.7273,7.7273,7.6943,7.6166,7.5359,7.4551,7.3744,7.2936,7.2496,7.2496,7.2496,7.2496,7.2496,7.1872,7.1578,7.155,7.077,7.0036,6.9449,6.9265,6.8715,6.7981,6.7981,6.7981,6.7981,6.7981,6.8091,6.8311,6.8935,6.9302,6.9633,7.0881,7.1541,7.2055,7.3266,7.3707,7.3854,7.4882,7.5065,7.4992,7.5359,7.5469,7.5432,7.5249,7.5175,7.5212,7.5432,7.5616,7.5763,7.5763,7.5616,7.5542,7.5726,7.5469,7.5395,7.5983,7.4955,7.3854,7.3487,0.0,0.0,0.0,6.7871,6.8458,7.066,7.2899,7.4551,7.5395,7.6019,7.5976,7.4941,7.5425,7.5933,7.6295,7.7322,7.8583,8.0178,8.1019,8.1524,8.1711,8.2369,8.2696,8.2696,8.3031,8.3195,8.3194,8.3195,8.3849,8.4889,8.3886,8.4852,8.7044,8.6226,8.6747,8.8084,8.8084,8.8195,8.8493,8.9273,9.009,9.0796,8.0938,8.1672,8.2186,8.2186,8.2186,8.2186,8.2186,8.1525,8.1012,8.1012,7.9617,7.8589,7.8589,7.7818,7.7273,7.7273,7.7273,7.6943,7.6166,7.5359,7.4551,7.3744,7.2936,7.2496,7.2496,7.2496,7.2496,7.2496,7.2459,7.2422,7.2386,7.1615,7.1211,7.1073,7.033,6.9559,6.8825,6.8825,6.8825,6.8825,6.8825,6.9265,6.9926,7.0,7.0477,7.1109,7.1284,7.2275,7.3523,7.367,7.3707,7.3964,7.5506,7.5506,7.5212,7.6686,7.7127,7.6943,7.6203,7.6019,7.6203,7.6943,7.7745,7.8332,7.8332,7.7708,7.7378,7.8148,7.7084,7.6019,7.6093,7.5395,7.4331,7.2826,0.0,0.0,6.9926,7.0513,7.1578,7.323,7.4918,7.624,7.7053,7.7163,7.7549,7.8363,7.8351,7.8688,7.9615,7.9638,8.0021,8.0901,8.1705,8.2173,8.2334,8.2565,8.2696,8.2696,8.3031,8.3529,8.4083,8.3492,8.4443,8.6524,8.4963,8.5706,8.7935,8.7081,8.7267,8.8084,8.8084,8.8567,8.931,9.009,9.0907,9.1725,8.0828,8.1636,8.2186,8.2186,8.1782,8.1452,8.1452,8.0755,8.0057,7.958,7.8993,7.8405,7.7855,7.7494,7.7273,7.7273,7.7273,7.7163,7.6864,7.6093,7.4845,7.3046,7.2679,7.2496,7.2496,7.2496,7.2496,7.2496,7.2496,7.2496,7.2496,7.2202,7.1798,7.1321,7.0991,7.0403,6.9633,6.9633,6.9633,6.9633,6.9633,6.9816,7.0146,7.066,7.1027,7.1431,7.2422,7.3193,7.3854,7.4845,7.5175,7.5395,7.6497,7.6313,7.5873,7.6943,7.8038,7.8772,7.8479,7.8038,7.7855,7.8662,7.9103,7.9323,7.9323,7.9103,7.8956,7.9286,7.8846,7.8369,7.8369,7.7745,7.7011,7.6387,0.0,7.2496,7.301,7.2899,7.3193,7.4331,7.635,7.7781,7.8075,7.8552,7.9024,7.938,7.9355,7.9501,7.9858,8.075,8.148,8.187,8.2642,8.2859,8.2407,8.269,8.2813,8.2813,8.3091,8.3336,8.3574,8.3299,8.396,8.5261,8.4146,8.5038,8.723,8.6412,8.6858,8.8084,8.8084,8.827,8.8716,9.0016,9.0685,9.113,8.0131,8.1085,8.1746,8.1489,8.1415,8.1195,8.0681,8.0351,7.9874,7.9066,7.8993,7.8662,7.7818,7.7708,7.7708,7.7708,7.7457,7.742,7.7708,7.6717,7.5139,7.2973,7.2642,7.2496,7.2496,7.2496,7.2496,7.2496,7.2496,7.2496,7.2496,7.2496,7.2202,7.1688,7.1688,7.1248,7.0477,7.0477,7.0477,7.0477,7.0477,7.0624,7.0917,7.1468,7.1835,7.2202,7.3303,7.4001,7.4661,7.6019,7.6497,7.668,7.7745,7.7708,7.7378,7.7928,7.8883,7.9837,8.0094,7.9764,7.9433,7.9727,7.9984,8.0167,8.0167,8.0167,8.0167,8.0167,7.9984,7.98,7.98,7.9323,7.8883,7.8626,7.6717,7.5432,7.5983,7.5579,7.5542,7.635,7.7928,7.8993,7.8993,7.947,7.9874,8.0167,8.0167,8.0277,8.0534,8.1663,8.2279,8.2407,8.3018,8.3119,8.2565,8.2813,8.2934,8.2994,8.3151,8.3329,8.3589,8.3589,8.3997,8.474,8.4183,8.4889,8.6412,8.6115,8.6635,8.7712,8.7973,8.8233,8.8641,8.9979,9.0499,9.0722,7.8589,7.991,8.0755,7.991,8.1122,8.1636,8.0021,8.0461,8.0718,7.9874,7.98,7.9507,7.8699,7.8589,7.8589,7.8589,7.7818,7.764,7.8516,7.7011,7.5395,7.378,7.2936,7.2496,7.2496,7.2496,7.2496,7.2496,7.2496,7.2496,7.2496,7.2496,7.2496,7.2496,7.2496,7.2055,7.1293,7.1293,7.1293,7.1293,7.1293,7.1798,7.2496,7.2496,7.301,7.3707,7.3707,7.4735,7.624,7.7017,7.731,7.7604,7.925,7.98,7.98,7.98,7.98,7.9984,8.0791,8.1012,8.0828,8.0021,8.0424,8.1012,8.1012,8.1012,8.1012,8.1012,8.0351,7.98,7.98,7.98,7.9543,7.8736,7.8626,7.8626,7.8589,7.8589,7.8919,7.969,7.98,7.98,7.98,7.98,8.0131,8.0938,8.1012,8.1379,8.215,8.2311,8.2407,8.2407,8.2752,8.2904,8.2867,8.2867,8.2994,8.318,8.318,8.3626,8.4369,8.4406,8.4815,8.5558,8.5595,8.5595,8.5632,8.6486,8.6784,8.6895,8.775,8.8567,8.9384,9.0202,9.0499,9.0759,7.8479,7.991,8.0755,7.991,8.0204,8.0131,7.9103,7.9617,7.9874,7.9066,7.9947,8.0351,7.9507,7.9433,7.9433,7.9433,7.8699,7.8075,7.7708,7.668,7.5873,7.5395,7.4074,7.3083,7.2496,7.2496,7.2496,7.2496,7.2496,7.2496,7.2496,7.2496,7.2496,7.2496,7.2496,7.2386,7.2165,7.2165,7.2165,7.2165,7.2165,7.2312,7.2569,7.312,7.3487,7.3854,7.4992,7.6056,7.7084,7.7928,7.8589,7.9029,7.8993,7.9727,8.0534,7.9947,8.0571,8.1525,8.1782,8.1819,8.1782,8.1525,8.1672,8.1819,8.1819,8.1819,8.1819,8.1819,8.1636,8.1489,8.1489,8.1489,8.1195,8.0424,8.0277,8.0094,7.9507,7.9433,7.9507,7.9764,8.0277,8.0645,8.0645,8.1158,8.1562,8.1819,8.1819,8.1994,8.2311,8.2375,8.2502,8.2752,8.2874,8.2964,8.3121,8.3121,8.3151,8.318,8.318,8.3329,8.3589,8.4146,8.422,8.396,8.5112,8.5261,8.4852,8.6226,8.6784,8.6895,8.775,8.8567,8.9384,9.0202,9.087,9.1502,7.7928,7.9396,8.0167,7.8993,7.9874,8.0241,7.8809,7.9543,7.9984,7.9176,7.991,8.0204,7.9396,7.958,7.9653,7.9323,7.8883,7.8369,7.7855,7.7047,7.6423,7.613,7.5175,7.4258,7.3487,7.3156,7.2973,7.2973,7.2679,7.2496,7.2496,7.2496,7.2496,7.2496,7.2496,7.2496,7.2496,7.2496,7.2496,7.2532,7.2863,7.2973,7.3046,7.3854,7.4368,7.4808,7.613,7.7121,7.8002,7.9176,8.0057,8.0645,8.0167,8.0681,8.1379,8.0865,8.1415,8.2186,8.2186,8.2186,8.2186,8.2186,8.2186,8.2186,8.2186,8.2186,8.2186,8.2186,8.2186,8.2186,8.2186,8.2186,8.2039,8.1562,8.1489,8.1305,8.0791,8.0755,8.0755,8.0755,8.1158,8.1489,8.1489,8.1893,8.2186,8.2186,8.2186,8.2251,8.2375,8.2471,8.2628,8.2904,8.2964,8.3091,8.318,8.318,8.318,8.318,8.318,8.3366,8.3663,8.4183,8.4109,8.3737,8.5038,8.4963,8.4035,8.5669,8.6338,8.6412,8.7267,8.8084,8.8938,9.009,9.0387,9.0499,7.7127,7.8589,7.9213,7.7708,7.9947,8.1232,7.9029,8.0021,8.0718,7.991,7.9837,7.958,7.8809,7.936,7.9507,7.8883,7.8809,7.8736,7.8589,7.7855,7.7047,7.624,7.6203,7.5873,7.5139,7.4184,7.3744,7.3817,7.2936,7.2569,7.2716,7.2642,7.2642,7.2716,7.2716,7.2679,7.2606,7.2606,7.2606,7.2679,7.3413,7.3744,7.3891,7.4698,7.5506,7.6313,7.7157,7.8038,7.9066,8.0608,8.1599,8.2186,8.2186,8.2186,8.2186,8.2186,8.2186,8.2186,8.2186,8.2186,8.2186,8.2186,8.2186,8.2186,8.2186,8.2186,8.2186,8.2186,8.2186,8.2186,8.2186,8.2186,8.2186,8.2186,8.2186,8.2186,8.2186,8.2186,8.2186,8.2186,8.2186,8.2186,8.2186,8.2186,8.2186,8.2186,8.2219,8.2284,8.2407,8.2633,8.2788,8.2934,8.3121,8.318,8.318,8.318,8.318,8.318,8.318,8.3626,8.4406,8.4406,8.4406,8.4443,8.5261,8.4666,8.3329,8.4926,8.5595,8.5669,8.6486,8.7378,8.8381,8.9942,8.9607,8.8784,7.7127,7.8148,7.8736,7.8369,7.9433,8.0131,7.9617,8.0351,8.0718,7.991,8.0351,8.0424,7.9617,7.969,7.9984,8.0461,8.0498,7.9947,7.8662,7.8405,7.7965,7.7084,7.7017,7.6943,7.676,7.4771,7.4001,7.4661,7.3193,7.3156,7.4368,7.3744,7.378,7.4404,7.4404,7.4037,7.345,7.345,7.345,7.345,7.3634,7.4074,7.4735,7.5542,7.635,7.7127,7.8002,7.925,8.0645,8.1599,8.2039,8.2186,8.2186,8.2186,8.2186,8.2186,8.2186,8.2186,8.2186,8.2186,8.2186,8.2186,8.2186,8.2186,8.2186,8.2186,8.2186,8.2186,8.2186,8.2186,8.2186,8.2186,8.2186,8.2186,8.2186,8.2186,8.2186,8.2186,8.2186,8.2186,8.2186,8.2186,8.2186,8.2186,8.2186,8.2186,8.2316,8.2444,8.2633,8.2752,8.2934,8.3121,8.318,8.318,8.318,8.318,8.318,8.318,8.318,8.3626,8.4406,8.4406,8.4406,8.4443,8.5261,8.4666,8.3329,8.4926,8.5595,8.5669,8.6486,8.7712,8.9161,9.0127,9.0685,9.1216,7.7053,7.8002,7.8589,7.8589,7.925,7.991,8.0314,8.0094,7.9837,7.98,7.947,7.9066,7.8662,7.9323,8.0277,8.1452,8.0865,8.0057,7.9213,7.8809,7.8222,7.7347,7.7273,7.7273,7.7273,7.5689,7.5065,7.5469,7.4258,7.4074,7.4918,7.4478,7.4515,7.4918,7.4918,7.4661,7.4258,7.4258,7.4258,7.4331,7.5102,7.5689,7.6203,7.7414,7.8112,7.8589,7.9433,8.0534,8.1636,8.2039,8.2186,8.226,8.2663,8.2774,8.2774,8.2774,8.2774,8.27,8.2296,8.2186,8.2186,8.2186,8.248,8.2663,8.2296,8.248,8.2774,8.2774,8.2774,8.2774,8.2774,8.2443,8.2186,8.2186,8.2186,8.2186,8.2186,8.2186,8.2186,8.2186,8.2186,8.2186,8.2186,8.2186,8.2186,8.2186,8.2311,8.2471,8.2665,8.2813,8.2994,8.318,8.318,8.318,8.318,8.318,8.3366,8.3775,8.3366,8.3626,8.4369,8.3997,8.4035,8.4406,8.4443,8.396,8.3292,8.4518,8.5261,8.5669,8.6486,8.7601,8.8827,8.9644,9.0202,9.0689,7.6833,7.7781,7.8405,7.8552,7.914,7.9874,8.0681,7.9653,7.8993,7.9507,7.8369,7.7494,7.7494,7.8993,8.0534,8.1893,8.0901,8.0131,7.9984,7.936,7.8626,7.7781,7.7714,7.764,7.753,7.7011,7.6607,7.6313,7.5359,7.5065,7.5322,7.5175,7.5175,7.5322,7.5322,7.5249,7.5139,7.5139,7.5139,7.5249,7.6686,7.7384,7.7708,7.9213,7.9874,8.0094,8.0901,8.1819,8.259,8.259,8.259,8.27,8.3251,8.3398,8.3398,8.3251,8.3214,8.3067,8.237,8.2186,8.2186,8.2186,8.281,8.3251,8.2553,8.303,8.3618,8.3618,8.3618,8.3581,8.3434,8.2847,8.237,8.2223,8.2186,8.2186,8.2186,8.2186,8.2186,8.2186,8.2186,8.2186,8.2186,8.2186,8.2219,8.2219,8.238,8.2534,8.2727,8.2874,8.3024,8.318,8.318,8.318,8.318,8.318,8.3514,8.4183,8.3514,8.3663,8.4555,8.3626,8.37,8.4555,8.3737,8.3477,8.3663,8.4332,8.5075,8.5855,8.6524,8.7341,8.8195,8.9013,8.931,8.9349,7.624,7.6937,7.7708,7.8479,7.8699,7.9029,7.9837,7.9764,7.9433,7.8846,7.8552,7.8405,7.8405,7.9874,8.0938,8.1158,8.1599,8.1562,8.0901,8.0755,8.0314,7.9507,7.9433,7.914,7.8442,7.8993,7.8589,7.7127,7.5652,7.5586,7.6943,7.6276,7.6313,7.698,7.698,7.6607,7.5946,7.5946,7.5946,7.6019,7.6907,7.7781,7.8516,7.9433,8.0241,8.0938,8.1746,8.2994,8.4278,8.4278,8.4278,8.4168,8.3618,8.3398,8.3287,8.2553,8.237,8.2333,8.2223,8.2186,8.2186,8.2186,8.281,8.3398,8.3287,8.3875,8.4462,8.4462,8.4462,8.4242,8.3544,8.3324,8.303,8.2296,8.2186,8.2186,8.2186,8.2186,8.2186,8.2186,8.2186,8.2186,8.2186,8.2186,8.2251,8.2343,8.2571,8.2727,8.2874,8.3061,8.318,8.318,8.318,8.318,8.318,8.318,8.3254,8.3366,8.3254,8.3997,8.5372,8.3886,8.3997,8.5372,8.4592,8.4629,8.5261,8.5372,8.5892,8.6635,8.6747,8.7341,8.8195,8.9013,8.931,8.9535,7.6607,7.7053,7.7598,7.8442,7.8222,7.8479,8.0204,7.9286,7.8626,7.9176,7.8883,7.8589,7.8589,8.0057,8.1195,8.1636,8.2003,8.1856,8.1048,8.1012,8.0645,7.9869,7.98,7.9617,7.9286,7.9617,7.9213,7.8038,7.7304,7.7084,7.7273,7.6937,7.6943,7.7273,7.7273,7.709,7.6827,7.7304,7.7231,7.69,7.8185,7.8662,7.8699,7.947,8.0277,8.1158,8.2443,8.3618,8.4609,8.4609,8.4609,8.4609,8.4719,8.4425,8.4022,8.3654,8.3544,8.3434,8.2994,8.3214,8.3544,8.3544,8.4168,8.4756,8.4756,8.538,8.582,8.5343,8.527,8.5159,8.4792,8.4389,8.3801,8.2994,8.2884,8.27,8.226,8.2186,8.2186,8.2186,8.2186,8.2186,8.2186,8.2186,8.2251,8.2375,8.2602,8.2758,8.2904,8.3091,8.318,8.318,8.318,8.318,8.318,8.318,8.3403,8.3849,8.3403,8.3552,8.422,8.3514,8.3589,8.422,8.3886,8.4183,8.4926,8.4926,8.5669,8.6747,8.6301,8.6635,8.749,8.8307,8.8815,8.9232]}]]